GFSNGP_850_thetae_000.txt.gz
Theta_e
316 316 316 318 318 318 318 316 317 316 316 315 313 311 313 315 315 315 315 313 312 311 310 309 308 307 305 306 306 304 302 300 298 296 293 291 291 291 290 290 290 290 290 290
312 312 312 313 312 311 313 316 316 315 315 313 314 314 316 316 314 315 314 311 310 310 309 308 305 305 307 306 304 301 298 295 292 291 291 290 290 290 289 289 289 289 289 289
311 312 314 316 314 311 310 309 310 312 311 312 313 314 314 315 314 314 311 310 310 309 307 304 306 306 305 303 300 296 292 290 290 290 290 289 289 288 288 288 288 288 288 288
312 314 319 316 312 313 313 313 312 311 311 312 314 313 314 315 316 313 311 309 308 306 305 306 306 304 302 298 294 290 290 290 289 289 288 288 288 288 288 287 287 287 287 287
314 315 315 316 315 316 317 315 313 314 314 314 313 312 313 313 314 313 310 308 306 305 305 305 303 302 298 293 290 290 290 289 288 288 288 287 287 287 287 287 286 286 286 286
306 313 318 315 314 314 313 313 313 314 313 314 313 312 309 312 312 311 308 306 306 305 305 304 301 298 293 290 289 289 288 288 287 287 287 287 286 286 286 286 286 286 286 286
312 313 312 311 312 314 316 311 311 311 311 311 312 312 312 311 310 308 307 307 306 305 305 305 301 293 290 289 288 288 287 287 287 287 286 286 286 286 285 285 285 285 285 285
310 312 312 312 314 316 311 311 310 311 310 310 310 311 311 311 310 309 308 306 305 304 305 303 293 289 288 287 287 287 287 287 286 286 286 285 285 285 285 285 285 284 285 285
311 310 311 313 312 311 312 311 311 311 310 310 309 309 309 309 307 306 305 304 304 303 301 296 289 288 287 287 287 287 286 286 286 286 285 285 284 284 284 284 284 284 285 285
313 311 309 311 311 311 311 311 311 310 310 309 308 308 308 307 306 305 304 302 301 300 294 288 288 287 287 286 286 286 286 286 285 285 284 284 284 284 283 284 284 284 285 286
310 310 310 310 310 310 310 310 309 309 308 309 308 306 306 305 304 304 302 300 297 292 288 288 287 287 286 286 286 285 285 285 285 284 284 283 283 283 283 283 284 285 285 285
310 309 310 309 309 309 309 309 308 308 308 307 306 305 304 303 303 301 298 295 292 288 288 287 286 286 286 286 285 285 285 284 284 284 283 283 283 283 283 283 284 284 284 285
310 310 309 309 309 308 308 307 306 306 305 305 304 303 302 301 299 298 294 288 288 288 287 286 286 286 286 285 285 284 284 284 283 283 283 282 282 283 283 283 283 283 283 284
310 309 308 308 307 307 307 305 304 304 303 302 301 299 299 299 296 290 287 288 288 287 287 286 286 286 285 284 284 284 283 283 283 282 282 282 283 283 283 282 282 282 282 283
308 309 308 307 306 305 302 301 302 301 301 300 299 298 297 293 288 288 288 288 287 287 286 285 285 285 284 284 283 283 283 282 282 282 282 282 282 282 282 282 282 282 282 282
308 308 307 305 301 300 299 300 301 300 300 299 298 295 291 288 288 288 288 287 286 285 285 285 284 284 284 283 283 282 282 282 282 282 282 282 282 282 282 282 282 282 282 282
307 305 302 299 299 299 300 301 300 299 298 298 295 290 288 288 288 287 286 285 285 285 285 284 284 284 283 283 282 282 281 281 282 281 281 281 282 281 282 282 282 281 281 281
300 299 299 299 299 300 299 299 299 299 298 295 289 288 288 287 287 286 286 285 286 285 285 284 284 283 283 282 281 281 281 281 281 281 281 281 282 282 282 281 281 281 281 281
299 299 299 298 298 299 299 299 299 298 294 288 288 287 287 287 286 286 285 285 286 285 284 284 283 282 282 281 281 281 281 281 281 281 281 281 281 281 281 281 281 281 281 280
300 300 298 297 297 298 298 298 296 291 288 287 287 287 287 287 286 286 285 285 286 283 283 283 282 281 280 280 280 281 281 281 281 281 281 281 281 281 281 280 281 280 279 279
300 299 296 296 296 296 296 293 289 288 287 287 287 287 287 287 286 285 285 284 284 283 282 282 281 280 280 280 281 281 281 281 281 280 280 280 280 280 280 279 279 279 279 279
299 299 296 295 295 295 294 290 287 287 287 287 287 287 286 286 285 285 284 283 282 282 281 280 280 280 280 281 281 281 280 280 279 279 279 279 279 278 279 279 279 279 279 278
299 298 297 295 295 294 292 289 287 287 287 287 287 287 286 285 284 283 282 282 281 280 280 280 280 279 280 281 280 280 279 279 279 279 278 278 278 278 279 278 278 278 278 278
298 298 295 294 294 293 293 291 288 287 287 287 287 286 285 284 283 283 282 281 280 280 279 279 280 280 280 280 279 279 279 279 279 278 278 278 278 278 278 278 278 278 278 278
298 296 293 293 294 294 292 290 289 287 287 286 286 285 284 282 281 281 280 280 279 279 279 279 279 280 280 280 279 279 279 279 278 278 278 277 277 277 277 277 277 277 278 278
295 292 292 292 293 291 290 290 288 287 286 285 284 283 282 282 281 280 279 279 279 279 279 280 280 279 279 279 279 279 278 278 277 277 277 277 277 277 277 277 277 277 277 277
293 291 291 291 291 290 289 288 287 285 284 283 282 282 281 280 279 279 279 279 279 279 279 279 279 279 279 279 279 279 278 278 277 276 277 276 276 276 276 276 277 277 277 277

GFSNGP_850_thetae_003.txt.gz
Theta_e
314 314 316 317 318 314 314 313 315 315 314 315 313 311 312 314 314 314 314 313 312 312 311 310 308 304 304 306 306 304 303 299 295 291 291 291 290 290 290 290 290 290 290 290
311 311 311 312 313 315 315 316 314 315 314 311 312 314 314 315 314 313 314 313 311 310 309 307 304 305 306 305 304 301 297 293 290 290 290 290 289 290 290 290 289 289 288 288
312 312 313 313 311 310 309 309 310 310 310 310 312 312 314 315 315 315 314 312 310 309 307 303 304 305 305 304 302 297 291 290 290 289 289 289 289 288 288 288 288 288 287 287
310 313 316 314 312 312 311 312 310 313 313 312 313 313 313 314 315 315 314 311 308 307 304 304 305 305 303 302 296 291 289 289 289 288 288 288 288 288 287 287 287 286 286 286
316 315 314 316 314 312 315 315 312 314 313 312 312 311 312 313 312 313 312 309 308 305 304 305 306 305 303 296 290 289 289 289 288 288 288 288 287 287 286 286 286 286 285 285
309 315 320 315 313 313 311 316 311 312 311 312 311 311 308 312 312 311 309 308 306 305 305 305 304 301 295 291 290 289 288 288 288 287 287 287 286 286 285 285 285 285 285 284
314 315 314 311 312 313 315 311 310 310 309 309 308 310 310 311 311 309 308 307 307 305 304 302 301 298 292 292 289 288 288 287 287 286 286 286 286 285 285 284 284 284 284 284
311 314 316 311 313 314 310 309 310 310 310 310 309 309 309 310 309 308 307 306 304 303 302 301 299 295 291 288 288 287 287 287 286 286 286 285 285 285 284 284 283 283 283 284
311 311 310 311 311 311 311 310 310 310 310 309 309 309 308 308 308 307 306 305 303 302 301 298 294 290 288 287 287 287 286 286 286 286 285 285 284 284 283 283 282 283 283 284
312 309 309 310 311 311 311 311 310 310 309 309 308 308 307 306 306 306 304 303 302 300 299 293 289 288 287 286 286 286 286 286 285 285 285 284 284 283 282 282 282 283 284 284
310 309 309 309 310 310 310 310 309 309 308 308 307 307 306 305 304 304 303 302 300 296 291 288 288 287 286 286 286 286 285 285 285 285 284 283 283 282 282 282 283 284 284 284
310 309 309 308 309 308 308 308 308 308 307 307 306 306 305 304 303 302 301 299 295 291 287 288 287 287 286 285 285 285 285 285 284 283 283 283 282 282 282 282 283 283 283 283
309 310 309 309 309 308 307 307 306 305 304 305 304 304 303 303 301 299 298 295 289 288 288 287 287 286 285 285 285 285 284 284 283 283 282 282 281 281 282 282 282 282 282 283
309 309 308 308 307 307 306 305 303 301 302 302 303 301 300 300 298 298 294 288 288 287 287 287 286 286 286 286 285 284 283 283 282 282 282 281 282 282 282 281 281 281 281 282
308 308 308 307 306 306 303 300 299 299 299 300 298 298 298 297 295 290 287 288 287 287 287 286 286 286 286 285 284 283 282 282 282 281 281 282 281 281 281 281 281 281 281 281
307 307 307 306 304 300 299 299 299 299 299 299 298 298 296 293 288 288 288 287 287 287 287 286 286 285 284 284 283 282 282 281 281 281 281 281 281 281 281 281 281 281 281 281
306 306 305 302 300 299 299 299 299 299 298 298 298 296 293 289 288 288 287 287 287 286 286 285 285 285 284 283 282 281 281 281 281 281 281 281 281 281 281 282 281 281 280 280
303 300 299 300 300 299 298 298 299 299 299 298 297 293 289 288 288 288 287 287 286 286 285 286 285 284 283 282 281 281 280 280 281 281 281 281 281 281 281 281 280 281 280 280
300 301 301 300 298 297 297 298 298 299 298 297 294 289 288 287 287 287 286 286 286 286 286 285 284 283 282 281 280 280 280 281 281 281 280 281 280 281 280 280 280 280 280 279
300 300 300 299 297 296 296 297 298 298 297 293 289 288 287 287 286 286 286 286 286 285 284 284 283 281 281 280 280 281 281 281 280 280 280 280 280 279 279 279 279 279 279 279
298 299 300 300 299 297 295 295 296 295 291 288 288 287 287 287 286 286 286 285 286 284 283 283 282 281 280 280 281 281 280 280 280 279 279 279 279 279 278 278 278 278 278 278
298 297 299 299 298 297 295 294 294 291 288 287 287 287 287 286 286 286 285 285 284 283 282 281 281 280 280 280 280 280 280 279 279 279 279 279 278 278 278 278 278 278 277 278
298 297 297 298 298 296 295 294 293 290 287 287 286 286 286 286 285 285 285 284 283 282 281 280 280 279 279 280 280 280 279 279 279 279 279 278 278 278 277 277 277 277 277 277
298 297 296 297 297 295 293 293 292 289 287 286 286 286 286 286 285 284 283 282 281 281 280 280 279 279 279 279 279 279 279 279 279 278 278 278 278 277 277 277 277 277 277 277
297 296 296 296 295 292 293 293 291 289 288 287 286 286 285 284 283 282 282 281 280 280 280 279 279 279 279 279 279 279 279 279 278 277 277 277 277 276 276 277 277 277 277 277
296 295 295 294 292 292 292 291 290 289 288 287 286 285 284 283 282 281 281 280 280 279 279 279 279 279 279 279 279 279 279 278 278 278 276 276 276 276 276 277 277 277 277 277
294 294 293 291 291 291 290 289 288 287 286 285 284 283 282 282 281 280 279 279 279 279 279 279 279 279 279 279 279 279 278 278 278 276 276 276 276 276 276 277 277 277 277 277

GFSNGP_850_thetae_006.txt.gz
Theta_e
312 315 316 316 316 311 313 314 316 316 313 314 312 312 312 313 313 312 313 313 312 312 311 310 309 306 304 306 307 306 303 297 294 293 291 290 290 290 290 290 290 289 289 289
311 311 311 315 315 312 313 312 313 313 314 311 311 312 314 315 315 313 313 312 312 311 311 309 306 304 306 306 305 303 299 296 293 291 290 290 289 290 289 289 289 289 289 288
314 311 312 312 310 313 312 311 312 314 311 310 313 312 314 314 315 315 315 313 311 310 309 307 303 305 305 305 303 300 300 295 291 289 289 289 289 289 289 289 288 288 288 287
308 312 311 311 312 308 310 310 310 311 311 312 312 312 312 312 313 314 314 313 310 309 307 304 304 305 305 302 301 299 295 291 289 289 289 288 288 288 288 288 287 287 286 285
313 311 312 316 311 312 314 315 312 312 311 311 311 312 312 313 313 312 312 311 309 308 305 304 305 303 302 301 297 293 290 288 289 288 288 287 288 288 287 286 286 285 285 284
308 314 316 314 312 312 312 317 311 311 311 311 311 310 308 311 311 311 310 308 308 305 304 304 303 303 301 298 295 289 288 288 288 287 287 287 286 286 286 285 285 284 284 284
315 315 313 312 312 312 316 314 311 311 310 310 308 309 310 309 309 309 307 307 305 304 303 303 303 301 300 293 289 289 288 288 287 287 286 286 286 285 285 284 284 284 284 284
311 314 316 310 312 314 310 310 310 310 310 309 309 308 308 308 308 308 307 306 304 303 303 303 301 298 290 288 288 288 288 287 287 286 286 286 285 285 285 284 284 283 283 283
311 312 309 310 311 311 311 310 310 310 309 309 309 308 308 307 307 307 306 305 303 302 302 300 296 291 288 287 288 287 287 287 287 286 286 286 285 284 284 283 282 282 282 283
311 310 309 310 310 310 310 310 310 310 309 309 308 308 307 306 306 306 305 303 302 301 299 295 291 288 287 287 287 287 287 286 286 286 286 285 285 284 283 282 282 282 283 283
309 308 309 309 310 310 310 310 309 309 308 308 307 307 306 305 305 304 303 302 301 299 296 292 289 288 287 287 287 286 286 286 286 286 285 285 284 282 282 282 282 283 283 283
310 309 309 309 309 309 309 308 308 307 306 305 306 305 305 304 303 303 301 300 299 297 296 289 288 288 287 286 286 285 285 286 285 285 284 283 282 282 281 281 282 282 282 283
309 309 309 309 308 308 308 307 306 304 302 302 303 303 302 302 302 300 299 298 297 294 288 288 288 287 286 285 285 285 285 285 284 284 282 282 281 281 281 281 281 281 282 282
309 308 307 307 307 306 306 305 302 300 299 299 300 300 300 298 298 298 297 297 291 288 288 287 287 286 285 285 286 285 285 284 283 282 282 281 281 281 281 281 281 281 281 281
308 308 308 307 306 305 303 300 300 300 299 299 299 299 297 297 298 297 296 289 288 288 287 287 286 286 286 286 286 285 284 283 282 281 281 281 281 281 281 281 281 281 281 281
306 307 306 306 303 299 299 299 299 299 298 298 298 299 298 298 297 293 288 288 288 287 286 286 286 286 287 286 284 283 283 282 281 280 281 281 281 281 280 281 281 281 281 280
306 306 305 300 300 300 299 299 298 298 298 298 298 298 297 296 291 288 287 287 287 286 286 286 286 286 285 284 283 282 281 281 280 281 281 281 280 280 280 281 280 280 280 280
305 301 300 300 300 299 298 297 297 297 298 299 298 298 297 293 288 287 287 287 287 286 286 286 286 285 284 283 282 281 281 280 281 281 281 280 280 280 280 280 280 279 279 279
300 300 300 299 299 299 298 297 296 296 298 298 298 297 293 288 287 287 287 287 287 286 286 286 285 284 283 282 281 281 280 281 280 280 280 280 280 279 279 279 279 278 278 278
300 300 299 300 300 300 298 297 295 295 297 297 296 294 289 287 287 287 286 287 286 285 285 285 284 283 282 281 280 280 280 280 280 280 279 279 279 279 279 279 278 278 278 278
299 299 299 299 299 299 298 297 296 294 295 294 293 289 287 287 287 286 286 286 286 285 285 284 283 282 281 280 281 280 280 280 279 279 279 279 279 279 278 278 278 277 277 277
298 298 297 296 297 298 298 297 296 294 293 292 289 287 287 286 286 286 286 285 285 285 284 283 282 281 280 280 280 279 279 279 279 279 279 279 278 278 278 278 277 277 277 277
299 298 297 296 296 296 297 296 294 293 292 290 287 286 286 286 286 286 286 286 285 283 282 281 280 280 279 279 279 279 279 279 279 279 279 279 278 278 277 277 276 276 277 276
298 298 297 297 296 296 296 294 293 292 290 288 286 286 286 286 286 285 285 283 282 281 280 280 279 279 279 279 279 279 279 279 279 279 279 278 278 277 277 277 276 276 276 276
297 297 297 296 296 295 294 292 292 291 290 288 287 287 286 286 286 284 283 282 281 280 280 279 279 279 279 279 279 279 279 279 279 278 277 278 278 277 276 276 276 275 276 276
297 296 295 295 295 293 292 291 291 289 288 287 287 287 286 283 283 282 281 280 280 279 279 279 279 279 279 279 279 279 279 279 279 278 278 277 276 276 276 276 276 277 277 277
295 294 294 293 292 291 290 289 289 288 287 286 285 283 283 282 282 281 280 279 279 279 279 279 279 279 279 279 279 279 279 279 278 277 276 276 277 277 276 276 277 277 277 278

GFSNGP_850_thetae_009.txt.gz
Theta_e
311 315 315 315 315 311 313 315 318 316 313 313 311 311 311 312 313 313 313 312 312 312 311 310 309 307 304 305 306 306 306 302 300 295 292 290 289 289 289 289 289 289 289 289
311 312 314 317 314 313 312 311 312 312 313 309 311 311 312 314 314 313 312 312 312 311 311 310 308 304 305 306 306 306 302 298 294 291 289 289 289 289 289 289 289 290 289 288
315 311 311 315 312 313 313 310 314 315 316 308 312 311 312 313 313 313 313 313 312 312 311 309 306 304 305 306 305 302 298 295 292 289 288 289 289 289 289 289 289 288 287 286
310 311 314 314 310 311 313 309 309 310 308 309 311 311 311 312 313 312 313 313 311 310 309 307 303 304 305 304 303 299 296 292 289 288 288 288 288 289 289 289 288 287 286 285
313 311 311 314 310 310 313 313 309 310 309 310 310 311 311 312 313 313 312 312 310 309 308 305 303 304 304 302 300 296 292 289 288 288 288 288 288 289 288 287 287 286 285 284
310 313 315 313 312 311 312 316 310 310 309 309 310 312 309 310 311 311 311 310 309 307 305 303 303 303 303 300 297 292 289 288 288 287 287 288 288 288 287 286 285 285 284 283
315 314 313 311 311 311 316 315 311 312 311 310 309 309 310 309 309 309 309 308 306 305 303 302 302 302 300 296 293 289 288 288 287 287 287 288 287 287 286 285 285 284 283 282
311 313 314 310 312 314 311 310 311 310 310 309 309 308 308 308 308 308 308 306 305 303 302 302 302 300 295 291 289 288 288 287 287 287 287 287 287 286 285 284 283 283 282 282
311 311 308 309 310 310 312 310 310 310 309 308 308 308 308 307 306 307 306 305 303 302 301 301 300 295 291 290 288 287 287 287 287 287 287 287 286 285 284 283 282 282 282 282
310 310 308 309 310 310 311 311 310 309 309 309 308 308 307 306 305 305 304 303 302 301 300 300 295 294 290 288 287 287 287 287 287 287 287 286 285 284 283 282 281 282 282 282
308 307 308 309 309 310 310 310 309 309 309 308 307 307 306 306 305 304 304 302 301 301 299 296 296 289 287 287 287 287 286 287 288 287 286 284 283 282 281 281 282 282 282 282
310 308 309 309 309 309 309 309 308 308 307 306 305 304 304 304 304 303 303 302 301 299 297 295 289 287 287 287 286 286 287 287 287 285 284 283 282 281 281 281 282 282 282 282
308 309 309 309 309 309 309 308 307 305 302 301 301 301 302 302 302 302 301 299 298 296 294 288 288 287 287 286 286 287 287 286 285 283 282 282 281 281 281 281 281 281 281 282
309 310 306 307 307 307 307 305 304 300 299 299 299 299 299 299 298 297 298 296 295 291 288 288 287 287 286 286 287 287 286 285 283 283 282 281 281 281 281 281 281 281 281 281
307 308 309 308 306 306 305 301 299 299 299 298 298 298 296 295 295 296 296 295 289 288 287 287 287 286 286 287 287 286 284 284 283 281 281 281 281 281 280 280 280 280 280 280
306 307 306 306 305 302 299 299 299 299 298 298 297 298 298 297 297 296 294 288 288 287 287 287 286 286 286 286 285 285 284 283 281 281 280 281 280 280 280 280 280 280 280 280
305 304 305 302 299 300 299 299 298 298 297 297 298 298 298 297 296 293 288 288 288 287 287 286 286 286 286 286 285 284 283 281 280 281 281 280 280 280 280 280 279 279 279 279
307 306 302 300 299 299 298 298 297 296 297 297 298 298 298 297 295 289 288 287 287 287 286 286 286 286 286 285 283 282 281 280 281 280 280 280 280 280 279 279 279 278 278 278
301 300 299 299 299 299 298 298 297 296 296 297 297 297 297 295 290 288 287 287 286 286 286 286 286 286 284 283 282 281 281 281 280 280 280 279 279 279 279 279 278 278 278 278
300 299 299 299 299 299 299 298 297 296 295 295 296 296 295 291 288 287 287 286 286 286 286 286 285 284 283 282 281 281 280 280 279 279 279 279 279 279 279 279 277 277 277 277
300 299 299 299 298 298 298 297 297 296 295 294 294 294 292 288 287 286 286 286 286 286 286 285 284 283 282 281 281 280 280 279 279 279 279 279 279 279 279 278 278 277 277 277
298 298 297 297 296 296 297 297 296 295 294 293 292 291 288 286 286 286 286 286 286 286 285 284 283 282 281 280 280 279 279 279 279 279 279 279 279 278 278 277 277 277 276 276
298 298 297 297 296 296 296 296 295 294 293 291 290 287 286 286 286 286 286 286 285 283 283 282 281 280 280 280 279 279 279 279 279 279 279 279 279 278 277 277 276 276 277 276
298 297 297 296 296 296 295 295 293 292 291 290 288 287 286 286 286 286 286 284 283 282 282 281 280 280 279 279 279 279 279 279 279 279 279 279 278 278 277 277 277 276 276 276
297 297 296 296 295 295 294 293 292 291 290 289 288 287 287 287 286 284 283 283 282 281 280 280 280 279 279 279 279 279 279 279 279 279 278 278 278 277 277 277 277 276 275 276
296 296 295 294 294 294 293 291 291 290 289 288 287 287 286 284 283 282 282 281 280 280 279 279 279 279 279 279 279 279 279 279 279 279 279 278 278 277 277 277 277 277 277 278
295 294 293 293 293 292 291 290 289 288 287 287 285 283 283 282 282 281 280 280 280 279 279 279 279 279 279 279 279 279 279 279 279 278 278 277 278 278 277 277 278 278 278 278

GFSNGP_850_thetae_015.txt.gz
Theta_e
321 322 323 324 325 325 326 326 326 325 324 324 323 322 320 318 318 318 317 316 315 314 313 310 307 305 302 301 304 305 305 304 302 300 296 293 290 289 289 290 291 290 289 288
322 321 321 322 322 323 324 325 325 325 325 324 322 320 320 319 318 318 317 316 315 314 313 310 307 304 301 302 304 304 304 302 300 297 293 290 289 289 290 290 290 289 288 288
323 319 321 323 322 322 322 322 323 324 324 324 319 319 319 319 318 317 316 316 315 314 313 310 306 303 300 301 304 304 302 300 297 294 291 289 289 289 289 289 288 288 287 287
322 320 325 321 318 320 321 321 322 322 323 320 319 318 318 318 317 316 316 315 314 313 312 308 304 301 299 301 303 302 300 297 294 291 289 289 289 289 288 288 288 287 287 286
323 325 325 322 316 319 321 321 320 320 320 318 317 315 313 313 314 313 313 313 313 312 308 304 302 300 301 302 302 300 297 294 291 289 289 289 288 288 289 288 287 287 286 285
323 323 324 319 316 315 319 322 321 321 320 317 315 318 316 311 310 310 311 311 310 308 305 304 300 301 301 301 301 297 295 292 290 289 289 288 288 289 288 287 286 286 285 285
323 324 325 317 315 315 319 322 315 317 317 316 317 316 312 309 308 308 308 308 308 307 304 300 301 301 300 301 299 295 293 291 289 288 288 288 289 288 288 287 286 285 284 284
323 324 325 315 314 318 318 315 315 315 315 315 312 310 309 307 307 307 307 307 306 303 301 301 301 301 301 299 295 294 293 289 288 288 287 288 288 288 287 285 285 284 284 284
321 322 314 314 314 314 315 315 314 314 313 311 310 309 307 307 306 306 306 305 304 302 301 301 301 301 299 297 295 294 289 288 288 287 288 288 288 286 285 284 284 284 284 284
315 314 314 313 311 312 314 313 312 311 310 310 309 308 307 306 305 304 304 304 303 301 300 301 301 300 297 297 295 289 288 287 287 288 289 288 286 285 284 284 284 283 283 284
315 313 311 311 311 311 310 310 309 309 309 309 307 307 306 306 305 304 304 303 303 301 298 299 300 298 296 295 289 288 287 287 288 289 287 286 285 284 284 283 283 283 283 283
317 315 315 314 311 310 309 309 308 308 308 307 306 305 305 304 304 304 304 303 302 301 300 299 298 296 293 288 288 287 287 288 288 287 286 285 284 284 284 284 284 283 283 283
315 313 313 311 309 309 309 308 308 308 307 305 304 302 302 301 302 302 302 302 301 300 299 298 296 292 288 288 287 287 288 288 287 286 284 284 284 283 283 283 283 283 283 283
310 311 310 309 309 308 308 308 307 306 303 301 301 300 300 300 300 301 301 300 300 299 297 295 290 288 287 287 287 287 288 287 285 284 284 283 283 283 282 282 282 282 282 282
308 309 310 309 307 306 308 307 305 302 300 300 300 299 298 298 297 297 298 299 298 296 294 289 288 287 287 287 287 287 286 285 284 284 283 283 282 282 282 282 282 282 282 281
306 308 307 307 306 307 306 304 302 300 300 299 298 298 297 297 297 297 297 297 295 294 289 288 287 287 287 287 287 286 286 285 284 283 282 282 282 282 282 282 282 282 281 281
306 303 305 305 306 305 303 300 300 300 299 298 297 297 297 297 297 297 296 295 294 289 288 287 287 287 286 286 287 286 285 284 283 282 282 282 282 281 281 281 281 281 280 280
309 309 308 308 305 302 300 300 299 298 297 297 297 297 297 297 296 296 295 294 289 288 287 287 286 286 286 286 286 285 284 283 282 282 282 281 281 281 281 281 280 280 280 279
308 306 306 305 302 300 299 298 297 297 297 297 296 296 297 296 296 295 295 291 288 287 286 286 286 286 286 286 285 284 283 282 282 282 281 281 280 280 280 280 280 279 279 278
304 305 303 300 299 298 298 298 297 297 297 296 296 296 296 296 296 295 292 288 286 286 286 286 286 286 286 284 284 282 282 282 281 281 280 280 280 279 279 279 279 279 278 278
302 299 299 298 298 298 298 297 297 297 296 296 295 295 294 294 293 291 287 286 286 286 286 286 286 285 284 283 282 281 281 281 280 279 279 279 279 279 279 278 278 277 277 277
299 298 298 298 298 298 297 297 296 296 296 295 294 293 292 292 289 287 286 285 286 286 286 286 285 284 282 281 280 280 280 279 279 279 279 279 279 278 278 278 277 277 277 276
298 298 298 297 297 296 296 296 296 295 295 294 293 291 290 288 286 286 285 286 286 287 285 284 283 281 281 280 280 279 279 279 279 279 278 278 278 277 277 276 276 276 276 276
297 297 297 296 296 296 296 296 295 294 293 292 290 289 287 286 286 286 287 287 286 284 284 281 281 280 280 280 280 279 279 279 279 279 278 278 278 277 277 276 276 276 277 277
297 297 296 296 296 296 295 295 294 292 291 290 289 288 287 287 287 287 285 284 283 282 281 280 280 280 279 279 279 279 279 279 278 278 278 278 278 278 277 277 277 278 277 277
296 296 296 295 295 294 294 293 292 291 289 289 288 287 288 287 284 284 283 282 281 280 280 280 279 279 279 279 279 279 279 279 279 279 278 278 278 277 278 278 278 277 278 278
295 295 294 294 293 293 292 291 290 289 288 287 287 286 284 284 283 282 280 280 280 280 279 279 279 278 279 279 279 279 279 279 279 278 278 278 278 278 277 277 277 277 277 278

GFSNGP_850_thetae_018.txt.gz
Theta_e
319 324 323 325 325 325 325 325 325 324 321 318 318 316 316 318 320 319 318 317 316 315 313 311 309 307 305 304 304 304 305 305 304 302 301 299 295 291 290 290 290 291 291 290
321 322 323 325 324 324 324 323 322 323 323 321 318 319 318 318 319 318 318 317 316 315 313 311 309 306 304 303 303 303 304 304 303 301 299 295 292 290 290 290 290 291 290 288
320 320 321 322 322 323 323 322 323 325 323 321 317 317 317 318 318 318 318 317 316 315 313 311 308 306 304 302 302 302 303 303 301 299 296 293 290 289 289 290 290 290 289 287
321 320 322 320 317 319 320 320 320 319 319 319 317 316 317 319 318 318 317 316 316 315 314 311 308 305 303 301 301 302 302 301 299 297 293 290 289 289 289 290 290 288 287 286
321 323 322 322 316 318 319 320 318 318 318 315 315 315 313 315 316 316 315 315 315 314 313 310 307 304 302 300 301 301 301 298 296 292 290 289 289 289 290 290 289 287 286 285
321 321 323 317 316 314 317 319 315 316 317 314 315 314 311 312 314 313 313 313 313 312 311 308 304 302 301 301 301 301 298 296 294 290 289 289 289 290 290 289 287 286 286 285
323 323 321 316 314 314 319 319 314 316 317 314 312 313 311 311 310 311 311 311 310 309 307 305 303 301 300 300 300 298 296 295 290 289 289 288 290 290 289 287 286 286 285 284
321 323 322 314 314 317 316 315 315 316 315 311 310 309 309 308 307 307 307 306 306 306 304 302 300 300 300 300 298 296 295 291 289 288 288 290 289 288 288 287 286 285 284 284
320 321 315 314 314 314 315 314 314 313 312 311 309 308 306 306 305 305 305 304 304 304 303 301 300 300 300 299 296 295 291 289 288 289 290 289 288 288 287 286 284 284 283 284
316 313 312 313 313 314 315 314 313 312 311 310 308 307 306 305 304 304 304 304 303 303 302 301 300 300 299 296 295 291 289 288 289 289 289 289 289 287 285 285 284 284 284 284
313 312 311 312 312 313 313 312 311 310 310 308 307 306 305 304 304 303 303 302 302 301 300 300 300 299 296 295 292 289 288 288 289 289 289 289 287 286 284 284 284 284 284 284
316 314 314 312 312 311 311 310 309 309 308 307 306 306 305 305 304 303 303 302 300 298 298 298 298 297 295 292 289 288 288 288 289 289 289 288 286 285 284 283 283 283 283 283
313 313 314 311 310 310 309 308 308 307 307 306 305 304 303 302 302 302 302 301 300 299 299 298 297 295 292 289 288 288 288 289 289 289 287 285 285 284 283 283 282 282 282 283
312 312 309 310 309 309 308 308 307 306 304 302 301 301 300 300 300 300 300 300 299 299 298 297 295 291 288 288 287 287 288 288 288 287 286 285 284 283 282 282 282 281 281 282
311 311 310 310 309 308 308 307 305 302 301 300 300 299 298 298 298 298 298 298 298 297 296 294 290 288 288 287 287 288 288 288 287 285 284 283 282 282 282 281 281 281 281 281
309 310 309 308 307 307 306 304 303 300 300 299 298 298 297 297 297 297 297 296 296 295 295 290 288 287 287 287 287 287 288 287 285 284 283 282 282 281 281 281 281 281 281 280
308 306 306 306 306 305 304 303 302 300 299 298 297 297 297 297 297 297 296 295 295 295 290 287 287 287 287 287 287 287 287 285 284 283 282 282 281 281 281 281 280 280 280 280
309 310 308 308 306 303 301 301 300 298 298 297 297 297 297 297 297 296 296 296 294 289 287 287 286 286 287 286 287 286 285 283 282 282 281 281 281 281 280 280 280 279 279 279
309 308 306 305 304 303 300 298 298 297 297 297 297 296 296 296 296 296 295 292 288 287 287 286 286 286 286 287 286 284 283 282 282 281 281 280 280 280 279 279 279 279 279 278
305 306 305 303 301 300 298 297 297 297 297 296 296 296 296 296 295 294 292 288 287 286 286 286 286 286 287 285 284 282 281 281 281 280 280 279 279 279 279 279 279 278 278 277
305 303 301 299 298 297 297 297 297 296 296 296 296 295 295 294 293 291 289 287 287 286 286 286 287 286 284 283 282 281 281 280 280 280 280 279 279 279 279 278 278 278 277 277
300 299 298 298 298 297 297 297 296 296 296 295 295 293 293 292 291 289 287 286 286 286 286 286 284 284 282 281 281 281 280 280 280 279 279 279 278 278 278 278 277 277 276 276
298 298 298 298 297 297 296 296 296 295 295 294 293 292 291 290 288 287 286 286 287 287 285 284 282 281 281 281 280 280 280 280 279 279 279 278 279 278 276 277 277 276 276 277
298 298 297 297 296 296 296 295 295 294 293 293 291 290 289 288 287 286 287 287 285 284 283 282 281 281 281 280 280 279 279 279 279 279 278 278 278 278 278 277 277 276 277 277
297 297 296 296 296 295 295 295 294 293 292 291 290 288 287 287 288 287 285 284 283 282 281 281 281 280 279 279 279 279 279 279 279 278 278 278 278 278 278 277 277 277 276 277
296 296 295 295 295 295 294 294 293 292 291 290 289 288 288 288 285 284 284 282 281 281 281 280 280 279 279 279 279 279 279 279 279 279 278 278 278 278 278 278 278 278 278 278
296 295 295 294 294 293 293 292 292 291 290 289 289 288 286 284 284 283 281 281 281 280 280 279 279 278 278 279 279 279 279 279 279 278 278 278 278 278 277 277 278 278 278 278

GFSNGP_850_thetae_021.txt.gz
Theta_e
316 318 322 323 322 321 324 324 325 318 318 316 314 313 313 317 317 317 316 316 316 315 314 313 311 309 307 306 305 303 303 304 304 304 303 301 299 295 292 291 290 291 291 290
322 323 322 325 325 324 324 323 323 322 323 316 314 315 314 316 317 316 316 315 315 315 314 313 311 308 306 304 303 302 303 303 303 302 301 300 297 292 291 290 291 291 290 288
320 323 324 326 324 323 323 322 322 324 321 314 315 314 313 316 317 317 316 316 316 315 314 313 310 308 306 304 302 302 302 302 302 300 299 296 292 290 290 290 291 290 289 288
321 317 320 317 317 321 323 321 320 321 319 316 313 312 315 317 318 318 318 317 316 315 314 312 310 308 305 303 301 301 302 302 300 298 297 293 290 289 290 291 290 289 288 287
320 320 318 317 315 317 318 318 316 318 316 313 313 314 312 315 318 318 318 317 316 315 314 311 309 306 304 302 301 301 301 300 298 297 294 290 289 290 290 290 289 288 287 286
318 317 321 316 314 313 314 318 314 313 314 313 313 314 310 313 315 316 316 316 315 314 313 311 307 305 304 301 300 300 300 298 297 294 290 289 289 291 290 289 288 287 286 285
321 322 317 315 313 313 318 316 312 313 314 312 311 311 311 313 314 314 314 314 314 312 311 308 305 303 301 300 300 299 297 296 294 290 289 289 290 290 289 288 287 286 285 284
320 322 319 313 313 316 313 313 312 311 311 309 309 309 310 311 311 312 312 311 311 310 307 304 303 302 301 300 299 297 296 294 290 288 289 290 290 290 289 287 285 285 284 284
318 319 315 313 313 315 315 314 311 311 310 312 309 309 309 308 308 308 308 308 307 306 304 301 300 299 300 300 298 296 293 289 288 289 290 290 290 288 287 285 284 284 284 284
315 313 312 312 313 315 314 314 312 312 311 311 308 307 306 305 305 305 304 304 303 303 301 299 298 299 299 298 296 293 289 288 289 290 290 290 289 287 286 285 283 284 284 283
312 311 311 312 312 314 313 312 311 310 310 309 308 306 305 304 304 303 303 302 301 301 300 300 299 299 297 295 293 289 288 288 289 290 290 289 287 286 285 283 283 283 283 283
315 312 312 311 312 312 312 311 310 309 307 306 306 305 304 303 303 302 302 301 300 300 299 299 298 297 295 293 288 288 288 289 289 289 289 288 286 286 284 283 282 282 282 283
312 313 313 312 311 311 311 309 309 308 307 306 305 304 304 303 303 302 301 301 300 299 298 298 297 295 293 288 288 288 288 288 289 288 288 286 285 284 282 282 282 281 281 282
313 313 309 310 309 310 309 308 307 306 305 304 303 302 301 301 301 301 300 299 298 298 297 297 295 293 288 288 288 288 288 288 288 288 286 285 283 282 282 281 281 281 281 281
311 312 311 310 309 308 308 307 305 303 302 301 300 300 299 299 299 299 298 298 297 297 296 294 293 289 288 287 287 287 287 288 288 286 285 283 282 282 281 281 281 280 280 280
310 310 309 309 308 307 306 304 303 300 300 299 298 298 297 297 297 297 296 297 297 296 294 292 288 287 287 287 287 287 287 287 286 285 283 282 281 281 281 280 280 280 280 279
308 306 307 307 307 305 304 302 301 300 299 298 297 297 297 297 296 296 296 295 294 294 290 287 287 287 287 287 286 287 287 286 284 283 282 281 281 280 280 280 280 279 279 279
311 310 309 309 307 304 301 300 300 299 298 297 297 297 297 296 296 296 295 294 292 289 287 287 286 286 286 286 287 287 285 283 282 282 281 280 280 280 280 279 279 279 279 279
309 309 307 306 304 303 301 299 298 297 297 297 297 296 296 296 295 295 294 292 289 288 287 286 286 286 286 287 286 285 282 282 282 281 280 280 280 280 280 279 279 279 278 279
307 307 306 303 302 301 299 297 297 297 296 296 296 296 296 295 294 294 292 291 288 287 286 285 286 287 287 285 284 282 282 281 281 280 280 280 280 279 279 279 278 278 278 278
305 304 303 301 299 298 297 297 296 296 296 296 296 295 295 294 293 292 291 288 286 286 285 286 287 286 285 283 282 281 281 280 280 280 279 279 279 279 279 279 278 278 278 276
302 301 299 298 297 297 296 296 296 295 295 295 294 294 293 292 291 289 287 286 286 286 287 286 285 283 282 282 281 281 280 280 280 279 279 279 279 279 279 278 278 278 277 277
299 298 297 297 297 296 295 295 295 295 295 294 293 293 292 290 288 287 287 286 287 287 285 284 282 282 281 281 280 280 279 279 279 279 279 279 279 278 278 278 278 277 278 277
297 297 297 296 296 296 295 295 295 294 294 293 292 290 289 288 287 287 288 287 285 284 283 282 281 281 280 280 279 279 279 279 279 280 280 279 279 279 278 278 278 278 278 278
297 297 296 296 296 295 295 294 294 293 292 291 289 288 287 288 289 288 285 285 284 282 281 281 281 280 280 279 279 279 279 279 280 279 279 279 279 278 278 278 278 277 277 278
296 296 295 296 296 295 295 294 293 292 290 289 288 288 288 287 286 285 284 282 282 281 281 281 280 279 279 279 279 279 279 280 280 280 279 279 278 278 277 277 278 278 278 278
295 295 295 295 294 294 293 293 292 290 289 289 289 288 286 285 284 283 282 281 281 281 280 280 279 279 279 279 279 279 280 280 279 279 279 278 278 277 277 277 278 278 279 279

GFSNGP_850_thetae_024.txt.gz
Theta_e
315 313 315 320 319 319 314 317 318 321 322 318 314 312 313 315 314 314 314 315 315 315 314 313 311 310 308 306 304 303 303 303 304 304 303 302 300 297 293 291 290 291 291 290
314 316 317 320 321 319 316 314 315 317 324 315 311 311 313 314 314 314 314 314 315 315 315 313 312 310 307 305 304 303 302 303 303 303 302 300 298 294 291 290 291 291 290 288
323 322 321 326 324 314 314 317 316 324 320 313 315 313 312 314 315 315 315 315 315 316 315 314 312 310 307 305 304 302 301 302 302 301 299 298 295 291 290 291 291 290 289 288
323 323 321 317 316 322 322 321 319 321 316 314 313 311 313 315 316 316 316 315 315 316 315 313 312 309 307 304 303 302 301 301 301 299 298 296 291 289 290 291 290 289 288 287
323 320 318 316 314 317 322 321 315 319 314 311 312 313 312 315 317 317 316 316 316 316 315 313 311 308 306 303 302 301 300 300 299 298 296 291 289 290 291 291 289 288 287 286
314 318 321 316 314 312 313 317 313 313 312 311 311 315 311 313 315 316 316 316 316 315 314 313 309 307 304 302 301 300 300 299 298 296 292 289 290 291 290 289 288 287 287 285
317 321 316 314 313 312 318 315 312 312 312 312 311 310 312 312 313 316 316 316 315 314 313 311 307 305 302 301 300 300 299 297 296 291 289 290 291 291 290 288 287 287 286 285
318 319 316 313 313 316 311 312 311 310 310 310 309 310 311 312 313 314 314 314 313 313 309 306 304 303 302 300 299 299 297 296 291 289 289 291 291 290 288 287 287 286 284 284
317 316 312 313 313 314 313 313 310 309 310 312 310 310 311 310 311 312 312 311 309 309 305 302 301 301 301 300 299 298 296 291 289 289 290 290 289 289 288 287 285 284 283 283
317 314 313 312 314 314 313 313 312 311 310 311 310 309 309 309 309 309 308 308 307 306 303 300 299 298 300 299 297 296 291 289 289 289 289 289 289 288 287 285 284 283 283 282
312 311 311 312 312 313 313 312 311 310 310 310 309 307 307 306 305 304 304 303 303 302 301 300 298 299 299 297 295 290 288 288 289 289 289 289 289 287 285 284 282 283 282 282
315 312 311 310 312 312 312 311 310 310 308 307 307 306 304 304 303 303 302 301 301 300 300 299 298 298 296 294 290 288 288 288 288 289 289 288 287 287 284 283 282 281 281 282
312 313 312 311 311 311 311 310 309 308 307 305 304 304 303 303 302 301 301 300 300 299 299 299 298 296 294 289 288 287 288 288 288 289 288 287 286 283 282 282 282 281 281 281
313 312 308 309 309 310 310 308 307 306 305 304 303 303 302 302 301 301 300 299 298 298 298 297 295 294 289 287 287 287 287 287 288 288 287 285 283 282 281 281 281 281 281 280
311 312 312 310 309 309 308 307 306 305 304 304 303 302 301 301 300 300 299 298 297 297 296 295 293 289 287 287 287 287 287 288 288 287 285 283 282 281 281 281 280 280 280 280
310 310 309 309 308 307 307 306 305 303 302 301 300 299 299 299 298 298 297 297 297 296 294 292 289 287 287 287 287 287 287 288 286 284 283 282 281 281 281 280 280 280 280 280
308 305 307 306 307 306 305 304 303 301 300 299 298 297 297 297 296 296 295 294 294 294 292 288 287 287 287 286 286 287 288 286 283 282 282 281 280 280 280 280 280 279 279 280
312 311 309 309 307 305 303 301 300 299 298 297 297 297 296 296 296 295 294 294 293 291 288 287 286 286 286 286 288 287 285 283 282 282 281 281 280 280 280 279 279 279 279 280
310 310 308 307 306 304 301 300 299 298 297 297 296 296 296 296 295 295 294 293 291 288 287 286 286 286 287 287 286 284 282 282 281 281 280 280 280 280 279 279 279 279 279 279
308 308 307 306 304 302 300 299 297 297 296 296 296 296 295 295 294 294 292 289 287 287 286 286 286 287 287 285 283 282 282 281 281 280 280 280 280 279 279 279 279 279 279 278
306 306 305 303 301 300 298 297 297 296 296 296 296 295 295 294 293 292 290 288 286 286 286 287 288 285 284 282 282 281 281 280 280 280 280 280 280 279 279 279 279 278 278 278
304 303 302 301 299 297 297 296 296 296 296 295 295 294 294 292 290 288 287 287 287 287 288 286 284 283 282 282 281 281 280 280 280 280 280 280 280 279 279 279 278 278 278 278
302 301 300 298 297 296 296 295 295 295 295 294 293 293 292 290 288 288 288 287 288 287 285 284 282 282 282 281 281 280 280 280 280 280 280 280 279 279 279 278 278 278 278 278
301 298 297 296 296 296 295 294 294 293 293 292 291 290 290 289 288 287 288 288 285 284 283 282 282 281 281 280 280 280 280 280 280 280 280 279 279 279 278 278 278 278 278 278
298 297 296 296 295 295 294 294 293 292 291 290 289 288 288 289 289 288 286 285 283 282 282 281 281 281 280 280 279 279 279 280 280 280 279 279 279 278 278 277 277 278 278 278
296 296 296 295 295 294 294 293 293 291 291 290 288 288 289 288 287 285 284 282 282 282 281 281 281 280 279 279 279 279 280 280 280 280 279 279 278 278 278 277 278 278 278 279
295 295 295 294 294 294 293 293 292 291 290 290 290 289 287 285 284 283 282 282 281 281 281 281 280 279 279 279 280 280 280 280 279 279 279 278 279 279 278 277 278 278 278 279

GFSNGP_850_thetae_027.txt.gz
Theta_e
313 312 312 314 316 314 313 314 316 314 312 311 313 317 315 313 312 313 313 314 315 314 313 311 310 308 307 306 304 304 304 304 304 304 303 302 301 299 296 293 291 291 292 291
312 313 314 316 315 315 314 313 315 316 316 314 313 312 312 312 313 313 313 313 315 315 313 311 310 308 306 305 304 303 303 303 303 303 302 301 299 297 294 291 290 291 291 290
316 319 318 319 316 317 316 316 315 316 315 314 314 312 313 312 313 313 314 315 315 315 314 312 310 309 307 305 304 302 302 302 301 301 300 299 297 295 291 290 292 292 290 289
319 320 324 320 317 316 317 315 313 314 314 314 314 311 313 314 314 314 314 314 315 315 314 312 311 309 307 305 303 302 301 301 300 300 299 297 296 291 290 292 292 291 289 288
323 321 319 314 317 316 317 318 313 312 315 312 310 312 311 314 315 315 315 315 316 315 315 314 312 309 307 304 303 301 300 300 300 299 298 295 290 289 291 292 291 290 289 287
319 320 320 316 313 311 313 317 312 316 315 312 311 315 313 313 315 315 315 315 315 315 314 313 311 309 306 304 302 300 299 299 299 297 295 291 289 291 291 291 291 289 288 286
318 320 315 314 312 311 316 315 311 312 312 311 312 309 310 312 314 315 315 315 315 314 314 312 310 307 304 302 300 299 299 298 296 295 291 289 290 291 291 290 289 288 286 285
316 318 315 310 311 314 310 312 310 309 310 308 308 307 308 311 313 313 314 314 313 313 312 310 308 305 302 301 299 298 298 296 295 291 289 290 291 290 290 289 288 286 284 284
314 314 311 312 312 313 312 311 310 309 309 311 308 307 307 308 310 312 312 312 312 312 310 306 303 302 302 300 299 298 296 295 290 288 289 290 290 290 290 288 286 284 283 283
315 313 312 312 313 313 312 311 310 309 309 311 310 308 307 308 309 310 310 311 309 308 305 301 300 300 300 299 298 296 294 290 288 289 289 289 289 289 288 286 284 283 282 282
312 310 311 312 312 313 311 311 310 308 309 310 311 308 309 308 308 308 308 307 306 306 304 301 299 298 298 297 296 294 290 288 288 289 289 289 289 287 286 284 283 282 282 281
315 312 312 311 312 312 311 310 310 310 308 309 310 309 309 307 307 307 306 304 303 302 301 298 297 298 297 295 293 289 288 288 288 288 288 289 288 287 284 283 282 282 281 281
313 313 312 311 311 311 311 309 310 310 309 308 306 306 305 304 303 302 302 301 301 300 299 298 297 297 295 293 289 288 288 288 288 288 288 287 285 284 283 284 282 282 281 281
312 312 308 309 309 310 310 309 308 307 306 305 304 303 302 302 301 300 299 299 299 299 298 297 296 295 292 288 287 287 287 287 287 288 287 285 283 283 282 281 281 281 281 280
310 311 312 311 310 309 308 307 306 305 304 303 302 302 302 301 300 299 299 298 298 298 297 296 294 292 288 287 287 287 287 287 288 287 284 283 283 282 281 281 280 280 280 280
310 310 309 310 309 307 306 305 305 303 303 302 302 301 301 300 299 299 298 297 298 296 295 293 291 288 287 287 287 287 287 287 286 284 283 283 282 281 281 280 280 280 280 279
308 305 307 307 307 306 306 305 304 303 302 301 300 300 299 299 298 297 296 295 295 294 293 290 288 287 286 286 286 287 288 286 284 283 282 281 281 281 280 280 280 279 279 280
311 311 309 310 308 306 305 304 303 301 300 299 298 298 297 297 297 296 295 294 293 292 288 287 286 286 286 286 287 287 285 283 283 282 281 281 280 280 280 280 280 279 279 280
310 310 309 308 307 306 304 302 301 300 298 297 297 296 296 296 295 295 294 293 292 289 287 286 286 286 286 288 286 284 283 283 282 281 280 280 280 280 280 280 279 279 279 279
309 308 308 307 306 305 302 300 299 297 297 296 296 296 295 295 294 293 292 291 288 287 287 286 286 287 287 285 283 283 282 281 281 280 280 280 280 280 280 279 279 279 279 278
307 307 306 305 303 302 300 299 298 297 296 296 296 296 295 294 293 292 291 290 288 286 286 287 288 286 285 283 282 282 281 281 280 280 279 280 280 280 280 279 279 278 278 278
305 304 304 303 301 299 298 297 297 296 296 296 295 295 294 293 291 289 288 288 287 287 288 287 285 284 282 282 281 281 280 280 280 279 280 280 280 280 279 279 278 278 277 278
303 303 302 301 300 298 297 296 296 296 296 295 294 294 293 292 290 289 288 287 288 288 286 284 283 282 282 281 281 280 280 279 280 280 280 280 280 279 278 278 278 277 278 278
302 301 300 299 297 296 296 295 295 295 294 293 293 292 292 290 288 287 288 288 287 285 283 282 282 282 281 281 280 279 279 280 280 280 280 280 279 279 278 278 278 278 278 279
301 299 298 297 296 295 295 294 294 293 293 292 290 289 288 288 288 289 288 286 285 283 282 282 281 281 280 280 279 279 280 280 280 280 280 279 279 278 279 278 278 278 278 278
298 297 296 296 295 295 294 294 294 292 292 290 288 288 288 289 288 287 286 284 282 282 281 281 281 280 279 279 279 280 280 280 280 280 279 279 279 279 279 278 278 278 278 279
296 296 295 294 294 294 294 293 293 291 290 290 290 289 288 287 286 285 283 282 282 281 281 281 280 279 279 279 280 280 280 280 280 279 279 279 279 279 279 278 278 278 278 279

GFSNGP_850_thetae_030.txt.gz
Theta_e
312 312 312 313 314 312 312 312 313 312 311 309 309 311 311 314 313 312 311 310 310 313 315 315 314 313 311 310 308 306 304 304 304 304 304 303 303 302 300 298 295 291 291 292
312 312 313 313 313 314 313 312 312 312 313 313 312 313 313 312 313 313 311 310 309 312 313 313 312 310 308 307 305 304 303 303 303 303 303 302 301 300 297 295 291 291 292 292
315 314 315 320 316 315 314 314 313 314 313 312 313 314 313 312 313 313 312 311 311 313 313 312 310 309 307 305 303 302 302 302 302 302 301 300 299 297 295 291 291 292 292 291
316 317 324 320 318 316 315 315 312 313 314 314 313 313 312 312 313 313 313 311 312 313 312 310 308 307 306 304 303 302 301 301 301 300 300 298 297 295 292 291 292 292 291 290
321 320 319 318 318 314 314 315 314 314 313 312 312 310 311 312 313 314 314 314 315 314 313 311 309 308 306 304 302 301 300 300 300 299 298 296 294 292 290 292 292 291 291 290
317 320 322 315 312 313 313 318 312 311 313 312 312 316 312 312 313 314 314 315 315 314 313 312 309 308 306 304 301 300 299 299 298 297 295 294 292 290 291 291 291 291 290 287
319 320 315 313 311 311 315 314 311 313 312 313 313 312 310 312 314 314 314 314 314 314 314 312 310 307 305 302 300 299 298 297 296 295 294 292 290 291 291 291 291 290 288 286
317 318 314 310 311 314 309 310 310 310 311 311 312 309 305 310 312 312 313 312 313 313 312 310 308 306 303 301 299 298 297 296 295 294 292 289 290 290 290 290 289 288 286 285
314 313 310 312 311 312 311 310 309 308 309 310 307 304 306 308 310 311 312 312 311 312 310 308 306 304 302 300 297 296 296 295 294 291 289 290 290 290 290 289 288 286 284 283
314 313 311 312 312 311 310 309 308 308 308 308 305 305 306 307 308 309 310 310 309 309 307 304 301 301 301 298 296 296 295 294 290 288 289 289 289 289 289 288 285 284 283 282
311 310 310 311 311 311 310 308 308 307 308 307 308 306 307 306 307 307 308 307 307 306 303 300 298 298 297 297 296 296 294 290 288 289 289 289 289 289 288 285 283 282 281 281
314 312 311 310 311 310 310 309 308 309 307 306 308 308 307 306 306 307 306 304 303 302 300 298 297 297 296 296 294 292 289 288 288 288 288 289 289 288 285 283 282 282 281 281
312 312 311 310 309 309 310 309 309 310 309 308 306 308 307 306 304 304 302 302 301 300 299 297 297 297 295 293 290 288 288 288 288 288 288 289 287 284 284 284 282 281 281 281
311 311 309 309 309 309 310 308 309 309 308 308 307 305 305 304 302 301 300 300 299 298 297 297 296 296 292 290 288 288 288 288 288 288 288 286 283 283 282 281 281 281 281 281
310 311 311 311 309 308 308 307 306 305 304 303 302 302 301 300 299 299 298 298 298 297 297 296 295 293 289 288 287 287 287 287 288 287 285 283 282 282 281 281 280 280 280 281
309 310 310 310 308 307 307 305 305 303 302 302 301 300 300 299 299 298 297 298 298 297 295 294 293 290 288 287 287 287 287 288 287 284 283 282 282 281 280 280 280 280 280 280
308 306 307 307 307 306 306 305 304 303 302 301 300 300 299 299 298 297 296 295 296 295 293 292 290 287 287 287 287 288 288 285 283 282 282 281 281 280 280 280 280 280 280 280
310 311 310 311 308 306 304 304 303 302 301 301 300 299 299 298 297 296 296 295 295 293 291 288 287 287 286 287 288 287 284 283 282 282 281 281 280 280 280 280 280 280 279 279
310 310 309 309 308 306 304 303 303 302 301 300 298 298 297 297 296 296 295 294 293 291 288 287 286 286 287 288 286 283 283 282 282 281 280 280 280 280 280 280 280 279 279 278
309 308 308 308 306 306 304 303 301 300 299 297 297 296 296 295 295 294 292 292 289 288 287 286 286 287 287 285 283 282 282 282 281 280 280 280 280 280 280 280 279 278 278 278
308 307 306 306 305 304 303 301 300 298 297 296 296 295 295 294 293 293 292 290 288 287 286 286 288 286 284 283 282 282 282 281 280 280 280 280 280 280 280 279 279 278 278 278
305 305 304 304 304 301 300 299 297 297 296 295 295 295 294 293 292 290 288 288 287 286 287 287 286 283 283 282 282 281 281 280 280 280 280 280 280 280 279 279 279 278 278 278
304 304 304 303 301 300 297 297 296 296 296 295 295 294 294 293 291 290 289 287 287 288 286 285 283 283 282 282 281 280 280 280 280 280 280 280 280 279 278 279 279 278 278 278
303 302 302 300 299 298 296 296 296 295 295 294 294 293 293 291 289 288 288 288 288 286 284 283 282 282 282 281 280 280 280 280 280 280 280 280 279 279 279 279 278 278 278 279
302 301 300 299 297 297 296 295 295 294 294 293 292 291 290 288 289 289 289 287 285 284 283 282 282 282 281 280 279 279 280 280 280 280 280 280 279 279 279 279 278 278 278 278
300 299 298 297 297 296 295 295 295 293 293 292 290 289 289 289 290 288 286 285 283 283 282 282 281 281 280 279 279 280 280 280 280 280 280 279 279 279 279 279 278 278 278 279
298 298 297 296 295 295 295 294 294 293 292 291 291 289 290 289 287 286 284 283 283 282 282 281 281 280 279 279 279 280 280 280 280 280 280 279 279 279 279 279 278 278 279 279

GFSNGP_850_thetae_033.txt.gz
Theta_e
310 311 311 312 312 312 312 312 312 312 311 310 309 309 310 312 312 312 310 308 308 309 312 316 318 320 319 317 312 308 306 305 304 304 304 304 303 302 300 299 297 294 293 293
313 313 313 313 313 313 311 312 311 312 312 310 309 310 312 313 313 312 310 308 307 308 312 315 317 317 315 312 308 306 305 304 303 303 303 302 301 300 299 297 294 293 292 293
315 315 315 319 317 318 314 312 311 313 312 310 311 312 313 312 312 313 312 308 307 309 312 314 315 315 312 309 307 304 303 303 303 302 302 301 299 298 296 294 292 292 292 292
315 316 323 320 318 315 316 314 312 312 312 311 311 312 312 312 311 313 312 309 309 310 311 311 311 309 308 306 304 302 302 302 301 301 300 299 297 296 294 292 292 292 292 291
319 319 318 316 314 316 318 317 313 313 312 312 313 312 310 310 312 313 313 311 311 311 311 310 308 307 306 303 302 301 301 301 300 299 298 297 296 294 292 291 292 292 291 291
316 320 320 316 312 311 312 317 313 313 312 312 312 316 311 309 312 312 312 313 313 311 310 309 306 305 303 301 300 300 299 299 298 297 296 296 295 292 291 291 291 291 290 289
317 321 314 312 310 311 314 315 310 312 312 312 314 310 307 309 311 312 313 313 312 311 309 307 305 303 302 300 299 299 298 298 297 296 295 294 292 290 291 291 290 290 289 287
317 317 315 310 311 314 310 310 310 310 311 315 310 306 310 310 310 311 312 312 312 310 308 306 304 302 301 299 298 298 297 297 296 295 294 291 290 290 290 290 290 289 287 286
313 313 310 311 311 311 310 308 308 307 309 311 311 306 308 308 309 309 310 310 310 310 307 304 302 302 301 299 298 297 296 296 296 294 290 289 290 289 289 290 288 286 284 284
314 313 311 311 311 311 309 307 307 308 308 309 308 306 307 306 305 305 307 308 308 308 305 302 301 300 301 298 296 297 297 296 293 289 289 289 289 289 289 288 285 284 283 283
311 311 310 311 310 310 308 307 307 306 307 307 308 307 306 304 304 304 306 306 306 306 304 300 298 298 297 297 296 296 295 292 289 289 289 288 289 289 287 285 283 282 282 281
314 312 311 309 310 308 308 308 307 309 305 305 307 306 305 303 304 306 306 304 304 302 300 297 297 297 296 295 294 295 291 289 288 288 288 288 289 287 284 283 283 282 281 281
311 311 311 310 309 308 308 307 307 308 307 306 304 305 305 304 304 303 302 301 301 299 298 297 297 297 295 294 291 289 288 288 288 288 288 289 287 285 285 284 283 282 281 281
311 311 309 309 308 308 309 307 308 307 306 306 306 304 305 304 301 301 300 299 299 298 297 297 296 295 292 290 288 288 288 287 288 289 288 285 284 283 282 281 281 281 281 281
310 310 310 310 308 307 307 307 307 306 305 304 304 304 303 301 300 299 299 298 297 297 296 295 295 293 289 287 287 287 287 288 289 287 284 284 283 282 281 281 280 281 281 281
308 309 309 309 306 306 307 307 307 303 303 302 302 301 300 300 299 298 297 297 298 296 294 293 292 289 287 287 287 287 288 289 286 284 283 283 282 281 281 280 281 281 280 280
308 306 307 306 306 306 306 305 304 302 301 301 300 299 299 298 297 296 295 295 295 294 292 291 290 288 287 287 287 289 288 285 284 283 282 281 281 280 280 280 280 280 280 279
310 310 309 309 307 305 304 303 302 301 301 300 299 298 298 297 297 295 294 294 294 292 290 288 287 287 287 288 289 286 284 283 283 282 281 281 280 280 280 280 280 279 279 279
309 309 309 308 307 305 304 302 301 301 300 299 298 297 297 296 296 295 294 294 293 292 289 287 287 287 288 288 285 284 283 283 282 281 281 280 281 280 280 280 279 279 279 278
309 308 308 308 306 305 303 301 301 300 299 298 298 297 296 295 295 294 293 292 290 289 288 287 287 289 288 284 283 283 283 282 281 280 280 280 280 280 280 279 279 279 279 278
308 307 307 306 304 303 302 302 301 300 298 297 297 296 296 294 294 293 293 292 289 287 287 287 289 286 284 283 283 282 281 281 280 280 280 280 280 280 280 279 279 279 278 278
308 307 306 305 304 302 302 301 300 298 297 296 295 295 295 293 292 291 290 290 288 287 288 288 286 284 283 283 282 281 281 280 280 280 280 280 280 280 279 279 279 279 278 278
305 305 305 304 303 302 300 298 297 296 296 295 295 295 294 293 292 292 290 288 287 288 287 286 284 283 282 282 281 281 280 280 280 280 280 280 279 279 279 279 279 278 278 278
303 303 303 303 301 299 298 296 296 295 295 295 294 294 294 293 290 289 288 288 289 286 285 283 283 282 282 281 281 280 280 280 280 280 280 280 279 279 279 279 279 278 278 278
302 302 302 300 299 298 296 295 295 295 294 293 293 292 291 290 290 289 289 288 286 284 283 283 283 282 281 281 280 280 280 280 280 280 280 279 279 279 279 279 279 278 278 279
300 300 299 299 298 297 296 295 295 294 294 293 291 290 289 289 289 289 287 286 284 283 283 282 282 281 281 280 280 280 280 280 280 280 280 279 279 279 279 279 279 279 279 279
299 299 298 297 296 296 296 295 295 294 293 292 292 289 289 289 289 287 285 284 283 283 282 282 281 281 280 280 279 279 280 280 280 280 280 279 279 279 279 279 279 279 279 280

GFSNGP_850_thetae_036.txt.gz
Theta_e
312 312 312 313 313 313 313 312 314 314 313 313 312 312 312 311 313 314 314 310 309 308 309 308 306 312 320 321 319 319 317 310 305 303 303 304 304 303 302 300 299 298 295 294
313 312 313 315 315 315 314 314 312 313 313 312 312 311 312 311 312 314 313 311 308 306 306 302 308 315 319 317 316 312 308 305 304 303 303 303 302 301 299 298 297 295 293 293
317 314 316 322 319 318 317 315 313 315 314 312 312 312 312 313 313 314 313 309 306 305 301 302 311 317 315 314 309 305 304 303 303 302 302 301 300 299 297 296 295 293 293 293
317 316 323 321 317 317 316 316 313 312 313 312 313 313 313 312 311 312 313 308 305 302 301 306 311 311 313 307 305 304 302 302 301 301 301 299 298 296 295 294 293 292 292 292
318 319 318 319 317 314 316 318 314 314 313 313 313 313 311 309 312 315 310 306 304 306 307 306 308 308 306 303 301 301 301 301 300 300 299 298 296 295 294 292 292 292 291 291
318 319 321 318 315 312 314 321 312 314 313 314 314 320 314 308 311 310 306 304 305 307 306 308 306 305 304 302 301 300 300 300 299 298 297 296 295 293 292 291 291 291 291 290
317 319 318 316 315 312 318 316 311 312 313 313 316 309 306 307 308 311 311 310 308 308 308 307 305 304 302 300 300 300 299 299 298 296 296 294 293 291 291 291 290 290 290 288
319 320 320 312 317 318 315 312 310 310 311 313 310 304 304 307 307 306 306 308 309 308 306 304 303 301 300 300 299 299 298 297 296 296 294 292 290 290 290 290 290 289 288 286
317 319 315 313 314 312 309 309 309 308 309 310 306 304 305 305 305 306 307 306 306 306 303 300 299 301 301 299 298 297 297 296 294 293 292 290 290 289 289 289 289 287 285 285
318 318 316 313 310 309 308 306 305 307 307 308 307 305 305 305 304 304 304 305 304 304 302 299 299 299 300 298 297 296 295 294 293 291 289 289 289 289 289 288 286 285 284 283
317 317 315 310 309 308 308 307 305 306 306 306 305 301 304 304 304 303 304 303 303 302 301 299 298 298 298 296 295 295 295 293 290 289 289 288 289 289 288 285 284 283 282 282
319 314 314 311 308 308 307 306 304 305 304 304 306 305 305 304 304 305 305 303 302 301 300 297 297 297 295 294 294 295 293 289 288 288 288 289 289 286 285 284 283 282 282 281
316 311 310 309 308 308 306 305 306 304 305 302 302 303 305 305 304 304 302 301 301 299 298 297 297 296 294 294 292 290 289 288 288 288 289 288 285 284 284 284 283 282 281 281
312 311 309 308 308 307 306 305 304 306 304 305 305 304 304 304 301 301 299 299 298 298 297 297 296 296 293 291 289 288 288 288 288 289 286 284 284 284 283 282 282 282 282 281
311 310 310 310 308 307 306 305 304 305 303 304 304 304 303 301 299 298 298 297 297 297 296 296 295 293 290 288 288 288 288 289 288 285 284 284 283 283 282 281 281 281 281 281
308 308 309 310 309 308 307 305 306 305 302 302 302 301 300 300 299 298 297 297 297 297 295 294 293 290 288 287 287 288 289 287 285 284 284 283 282 281 281 281 281 280 280 279
308 306 308 307 307 304 304 304 305 306 303 301 301 301 300 299 297 296 296 296 296 295 293 292 290 288 287 287 288 289 286 285 284 284 283 282 281 281 281 280 280 280 280 279
309 310 312 311 308 306 304 305 304 303 302 301 300 299 298 298 297 296 295 295 294 292 290 288 287 287 287 289 288 285 284 284 283 282 281 281 281 281 281 280 280 280 279 279
309 309 309 309 308 308 307 304 302 301 300 300 299 298 298 297 297 296 295 294 292 291 288 287 287 287 289 287 285 284 284 283 282 281 281 281 281 280 280 280 280 279 279 279
309 309 308 308 307 307 305 302 301 300 299 299 298 297 296 296 295 294 293 292 290 289 287 287 287 289 286 284 284 284 283 282 281 281 281 281 281 280 280 280 279 279 279 278
308 308 307 307 306 304 303 301 301 300 299 298 297 297 296 295 294 293 292 291 288 287 287 288 289 286 284 284 284 283 282 281 281 281 281 281 281 280 280 279 279 279 279 278
306 306 306 306 305 303 301 300 300 299 298 297 296 296 295 294 293 291 290 290 288 287 288 288 286 284 284 283 283 282 281 281 280 280 280 280 280 280 279 279 279 279 278 278
305 305 305 304 303 302 300 300 299 298 297 296 295 295 294 293 292 291 289 288 288 289 288 286 284 283 283 283 282 281 280 280 280 280 280 280 280 279 279 279 279 279 278 278
304 303 303 302 301 301 300 298 297 296 296 295 295 294 294 293 290 289 288 288 289 288 286 284 283 283 283 282 281 281 280 280 280 280 280 280 279 279 279 279 279 279 279 279
302 302 302 301 300 300 299 297 296 295 295 294 293 293 292 291 291 289 288 289 287 285 284 283 283 283 282 281 281 280 280 280 280 280 280 280 279 279 279 279 279 279 279 279
301 301 300 300 300 299 297 296 295 294 294 293 292 291 290 289 289 289 289 287 285 284 283 283 283 282 281 281 280 280 280 280 280 280 280 279 279 279 279 279 279 279 279 280
299 299 299 298 297 296 296 295 295 294 293 293 292 290 289 289 289 288 286 285 284 283 283 283 282 281 281 280 280 280 280 280 280 280 279 279 279 279 279 279 279 279 280 281

GFSNGP_850_thetae_042.txt.gz
Theta_e
312 311 311 312 313 314 314 314 316 315 316 315 315 314 313 313 313 312 312 312 312 314 314 315 318 316 315 315 313 313 311 310 309 308 309 308 305 304 306 302 301 302 302 301
308 310 311 312 313 315 314 316 317 318 318 314 313 313 313 313 313 313 314 313 314 313 313 314 315 312 311 310 309 308 306 303 303 304 304 304 303 301 300 301 301 301 302 299
314 314 314 316 317 318 318 318 317 318 317 315 314 314 313 313 312 313 313 314 312 311 312 310 307 307 306 304 301 301 299 300 301 303 302 301 302 304 303 300 301 300 298 296
314 313 318 319 318 317 317 316 316 316 316 315 315 311 309 309 308 312 312 313 310 309 308 307 305 304 303 300 298 297 296 297 299 300 301 301 298 297 297 297 299 299 297 295
315 314 313 316 317 317 316 316 316 315 314 316 316 312 309 307 305 309 309 306 306 305 304 301 299 297 296 295 295 295 296 299 300 301 300 299 301 298 297 298 298 297 294 292
314 315 317 316 315 315 314 318 314 313 313 315 311 315 309 305 301 302 302 302 300 298 296 295 294 294 294 294 296 297 299 300 300 302 302 299 298 298 297 298 297 293 292 291
315 316 313 314 315 315 319 316 313 312 312 309 308 308 305 303 302 299 298 296 296 295 295 294 294 295 297 299 302 303 303 303 303 299 296 297 297 300 298 293 291 291 291 290
313 315 314 316 317 319 314 313 312 312 312 307 306 304 303 300 300 300 300 300 299 298 297 297 299 301 303 303 304 303 300 295 295 297 298 300 297 293 291 290 290 291 289 287
315 314 314 317 316 313 311 310 310 311 314 309 306 305 302 300 298 297 296 296 296 296 296 296 302 304 300 296 295 295 296 297 297 297 296 293 291 290 290 290 291 288 286 286
317 317 317 314 313 310 309 306 307 309 311 311 308 304 304 302 301 300 298 296 296 296 295 295 296 297 298 297 296 296 297 298 295 295 292 290 290 290 290 290 287 286 285 284
315 314 315 313 311 309 307 306 305 306 309 308 307 302 300 299 298 297 295 295 299 300 299 298 297 296 295 296 297 299 297 295 294 292 290 289 290 290 289 286 286 285 284 283
314 315 315 312 310 308 307 305 304 304 304 304 304 302 301 299 297 296 296 298 298 298 298 296 296 296 295 296 296 297 297 293 291 290 289 290 290 287 286 285 284 283 283 283
314 313 313 312 310 308 307 305 304 303 302 300 300 301 301 299 297 298 298 298 298 298 297 296 296 296 295 295 296 295 293 290 289 289 291 289 286 286 285 284 282 282 281 281
315 314 312 311 309 307 306 304 302 301 300 301 301 298 300 299 297 298 298 297 297 297 296 295 295 296 295 295 293 291 290 289 290 290 287 286 285 284 283 283 282 282 282 281
314 313 312 312 309 306 304 305 303 301 299 299 300 298 298 299 298 297 296 296 296 296 295 296 296 296 293 292 290 289 289 291 289 286 286 285 284 283 283 282 282 282 281 281
312 311 310 309 307 305 303 303 304 299 299 299 299 298 298 298 297 295 295 295 297 296 296 296 296 294 291 290 289 290 290 287 286 286 285 284 283 283 282 282 281 281 281 280
310 308 307 306 305 304 304 303 302 301 299 300 300 299 298 296 294 294 294 295 296 297 296 295 294 291 289 289 290 290 287 286 285 285 284 283 282 282 281 281 281 280 280 280
312 311 310 309 307 306 303 303 303 301 300 302 301 298 297 296 296 295 295 296 296 295 293 292 290 289 289 290 288 286 286 285 284 283 283 282 282 281 281 281 280 280 280 280
309 309 309 308 308 307 305 304 303 303 302 302 300 297 297 297 297 296 296 296 296 294 291 289 288 289 290 287 286 286 285 284 283 283 282 281 281 281 281 280 280 280 279 279
308 308 308 308 307 306 305 304 304 303 301 300 299 298 297 297 296 296 295 295 293 292 289 289 289 290 287 286 285 285 284 283 283 282 281 281 281 281 280 280 279 279 279 279
306 307 306 306 305 305 304 304 303 302 300 300 300 299 298 296 296 296 295 294 291 289 289 289 290 288 286 285 285 284 284 283 282 281 281 281 281 280 280 280 279 279 279 279
304 305 305 305 304 303 303 303 301 300 300 299 298 297 297 296 295 294 293 293 291 289 289 290 288 286 285 285 285 284 283 282 281 281 281 281 280 280 280 279 279 279 279 279
302 303 303 302 302 302 301 301 300 299 299 298 298 297 297 296 296 295 293 291 290 289 290 288 286 285 285 285 284 283 282 281 281 281 281 281 280 280 280 279 279 279 279 279
301 301 301 300 300 300 299 298 298 298 298 297 297 297 297 296 294 293 292 290 289 290 289 287 285 285 285 284 283 282 281 281 281 281 281 280 280 280 280 280 280 279 279 279
301 300 299 299 299 298 298 297 297 296 296 297 296 295 295 295 294 293 291 290 289 290 287 286 285 285 284 284 282 282 281 281 281 281 281 280 280 280 280 280 279 279 280 280
300 299 298 297 297 297 297 296 296 296 296 296 295 295 294 293 292 291 290 289 290 288 286 285 285 284 284 283 282 281 281 281 281 281 281 280 280 280 280 280 280 280 280 281
298 299 298 297 296 296 296 296 296 296 296 296 296 294 293 293 291 290 289 290 288 286 285 285 284 284 283 282 282 281 281 281 281 281 281 280 280 280 280 280 281 281 282 282

GFSNGP_850_thetae_045.txt.gz
Theta_e
310 310 310 309 310 311 310 311 313 312 314 314 315 316 314 312 312 311 312 312 313 312 312 313 315 318 319 319 320 321 321 320 319 316 313 311 309 305 303 304 301 301 303 305
302 308 309 308 310 311 311 312 313 314 315 315 315 315 314 313 313 312 310 312 313 313 313 315 315 316 315 315 313 314 315 314 312 308 306 305 300 300 299 299 301 304 302 296
305 310 311 313 313 312 313 314 315 319 317 316 316 316 310 308 306 308 311 312 312 312 312 312 312 312 309 308 307 307 307 304 302 300 299 298 299 299 301 301 299 299 301 298
306 308 313 315 314 315 315 315 314 316 316 315 314 309 306 303 302 305 312 310 309 308 306 304 305 306 304 303 302 302 300 297 296 296 298 298 299 299 299 301 301 298 295 296
312 310 311 317 316 316 315 314 316 315 314 313 312 311 306 302 301 301 305 305 303 302 301 302 302 301 302 300 299 297 294 296 296 296 298 301 301 301 303 302 299 291 292 293
313 311 315 316 314 314 313 316 313 313 313 312 310 314 308 301 298 299 299 301 303 303 300 298 295 296 298 295 295 296 297 297 299 301 301 301 303 301 296 292 292 294 291 291
313 315 311 310 312 315 318 315 311 312 312 308 309 307 302 300 297 297 297 297 296 296 297 296 295 296 296 297 299 299 299 300 300 300 301 300 298 293 296 297 291 290 290 290
315 314 313 311 314 318 313 312 311 312 311 306 305 303 302 301 300 298 296 295 296 295 297 297 298 299 299 298 299 300 300 300 300 297 294 292 299 296 290 290 290 290 289 287
311 311 310 313 314 312 311 310 309 310 312 310 305 302 300 299 299 300 299 298 299 299 298 298 298 300 300 300 300 300 299 296 294 295 300 293 290 290 290 290 291 288 286 286
314 315 313 313 311 310 309 308 307 309 313 310 307 303 300 298 298 298 300 300 299 300 300 299 300 300 300 298 297 295 293 295 297 294 290 289 290 290 290 288 286 286 285 284
313 312 312 311 311 310 308 307 307 308 311 310 308 305 304 300 297 297 297 298 299 298 298 297 297 295 294 294 294 296 297 293 291 290 289 289 290 289 287 286 286 285 284 283
314 313 313 312 311 309 308 307 306 307 307 305 305 303 301 300 299 298 298 296 296 296 296 294 294 295 294 294 295 296 294 291 289 289 289 289 286 286 285 285 284 283 283 282
312 314 314 313 311 308 307 305 305 305 305 303 301 301 299 297 297 296 298 298 297 296 295 294 294 293 293 293 293 292 291 289 289 289 288 287 287 286 285 284 283 282 282 282
314 314 312 311 311 308 307 305 303 302 302 302 301 300 299 298 296 297 296 295 294 294 293 294 293 293 292 292 291 290 289 289 290 288 287 287 286 285 284 283 283 282 282 281
313 313 313 313 310 307 305 304 303 302 300 299 298 300 299 298 297 296 295 295 295 294 294 294 294 293 291 290 289 289 290 290 288 287 287 286 284 283 283 282 282 281 281 281
311 311 310 309 308 306 304 302 303 301 299 299 298 298 298 297 296 296 295 294 295 295 294 295 295 292 290 289 289 291 290 288 287 286 285 284 283 283 282 282 281 281 280 280
311 309 308 307 306 305 304 304 304 302 300 298 299 298 297 296 296 295 294 294 295 295 295 295 295 291 289 290 291 289 288 287 286 285 284 283 283 282 282 281 281 280 280 280
309 309 310 310 308 305 303 303 302 302 302 300 299 298 297 296 297 295 294 294 295 294 293 292 291 289 290 291 289 287 286 286 285 284 283 283 282 281 281 281 280 280 280 280
308 309 310 309 307 306 305 303 302 303 301 300 300 298 298 297 297 296 295 295 296 295 292 290 289 290 291 289 287 286 286 285 284 283 283 282 281 281 281 280 280 280 280 279
307 307 307 308 311 309 307 303 304 303 302 300 300 299 297 297 296 296 295 296 295 294 292 289 289 291 289 287 286 286 285 284 283 283 282 282 281 281 280 280 280 280 279 279
304 306 306 307 309 307 305 304 304 303 301 300 300 299 298 297 296 296 295 295 292 291 290 289 290 289 287 286 286 285 284 283 282 282 282 281 281 281 280 280 280 279 279 279
303 304 304 304 305 304 304 303 302 302 301 300 298 298 298 297 296 295 295 295 293 290 289 290 290 287 286 286 285 285 283 283 282 282 282 281 281 281 280 280 280 280 280 279
301 302 303 302 302 303 302 301 300 300 301 300 299 298 298 297 297 296 294 292 291 290 289 290 288 286 286 285 285 284 283 282 282 282 281 281 281 281 280 280 280 280 280 280
301 301 301 300 300 300 300 299 299 298 298 298 297 297 297 297 295 294 293 293 290 290 290 289 287 286 286 285 284 283 282 282 282 281 281 281 281 280 280 280 280 280 280 280
300 300 299 299 299 298 298 298 297 296 296 296 296 296 296 296 296 295 293 292 290 289 290 287 286 286 285 285 283 282 282 282 282 281 281 281 281 280 280 280 280 280 280 280
299 299 298 297 297 297 297 296 296 295 295 295 295 295 295 295 294 293 292 290 290 290 288 287 286 286 285 284 283 282 282 282 282 281 281 281 280 280 280 280 280 281 281 282
297 297 297 297 297 296 295 295 296 295 295 295 296 295 294 295 293 292 291 290 289 289 287 286 286 285 285 283 282 282 282 282 281 281 281 281 280 280 280 281 282 283 283 283

GFSNGP_850_thetae_048.txt.gz
Theta_e
308 308 309 308 308 308 305 309 309 310 311 311 312 313 314 314 312 312 312 312 312 311 311 312 313 314 314 316 318 318 318 319 320 318 315 316 315 311 309 306 305 302 300 301
301 306 307 307 308 308 309 310 311 311 312 311 312 315 311 309 307 306 307 310 312 312 312 313 312 312 312 314 312 310 309 311 313 309 310 310 307 304 302 301 300 299 301 302
304 308 310 309 310 310 310 309 312 313 314 314 315 313 307 304 302 301 305 310 311 311 310 311 309 308 309 308 307 304 305 304 303 307 307 303 300 299 300 300 300 300 299 299
303 306 310 312 313 312 311 311 311 313 315 313 314 309 304 301 299 299 300 302 305 305 304 305 305 305 305 304 305 304 303 300 299 300 299 297 297 299 299 299 299 301 300 300
309 309 310 315 316 316 315 314 314 313 312 314 311 310 305 302 298 298 299 300 300 301 302 304 305 304 302 301 301 300 299 297 296 297 297 299 300 300 299 300 300 300 297 294
312 309 314 314 313 313 311 314 312 312 312 313 310 315 308 301 297 297 297 297 299 300 300 300 299 300 301 299 298 298 296 298 300 300 300 299 299 300 299 299 295 295 294 290
311 313 312 308 309 314 317 314 311 312 312 309 310 307 303 299 297 296 296 296 296 296 296 296 296 296 297 296 298 299 300 299 298 298 300 300 300 300 299 297 293 289 290 290
313 314 311 310 312 317 313 312 311 311 311 308 307 304 302 301 299 297 296 295 295 295 294 294 294 295 296 299 299 299 298 299 300 300 300 299 299 297 291 289 289 289 289 288
312 311 308 311 313 313 311 310 309 310 312 310 308 304 302 301 301 300 300 299 298 298 297 296 297 299 300 299 299 300 299 299 299 298 297 292 290 289 289 289 290 288 286 285
312 313 310 312 312 312 310 308 308 308 312 311 309 304 302 301 301 303 302 301 301 300 299 299 300 300 301 300 299 299 298 296 297 292 290 289 289 289 290 289 287 286 286 285
312 311 312 311 312 311 310 308 307 308 311 311 310 305 303 301 301 302 302 302 302 301 300 300 300 300 299 297 295 294 294 293 291 290 289 289 290 290 288 287 287 286 284 283
314 313 312 313 313 312 310 308 307 308 309 309 309 308 304 301 300 300 303 302 302 301 302 301 299 295 294 294 295 296 293 291 290 289 290 291 289 287 287 285 284 283 283 282
312 313 313 313 312 311 309 307 306 306 307 307 305 305 305 301 299 298 298 298 299 299 298 297 296 297 295 294 294 294 293 290 290 290 289 287 286 285 284 283 283 282 282 281
314 314 312 313 312 310 308 307 305 304 304 303 303 302 303 302 299 299 298 297 298 298 297 296 296 295 294 293 293 290 289 289 290 287 286 286 285 284 283 283 283 282 282 281
312 311 312 312 311 309 307 305 304 303 302 301 300 300 299 301 298 297 298 298 297 296 295 295 294 294 293 291 289 289 290 288 286 286 285 285 284 283 283 282 282 281 281 281
309 310 310 309 309 307 305 303 303 302 300 300 300 299 298 299 297 296 296 295 295 295 295 294 294 293 290 288 289 290 287 286 286 285 285 284 283 283 282 282 281 281 281 280
306 308 309 309 308 307 305 304 303 304 301 300 300 299 297 297 296 295 294 294 294 294 294 294 293 290 288 288 289 287 287 286 286 285 284 284 283 282 282 281 281 280 280 280
305 306 308 308 309 307 305 303 303 303 302 300 300 299 298 297 296 295 294 293 292 293 293 292 290 289 289 289 287 287 287 286 286 284 284 283 282 282 281 281 281 280 280 280
305 306 308 309 308 307 306 305 303 302 302 301 300 299 297 297 295 294 293 293 293 294 293 290 289 289 290 288 287 287 286 286 285 284 283 282 282 282 281 281 280 280 280 280
305 306 306 308 308 306 305 304 303 303 302 301 300 299 297 296 295 295 294 294 295 295 293 290 289 290 289 287 287 286 286 285 284 283 283 282 282 281 281 281 280 280 280 280
303 305 306 307 309 309 309 308 306 304 302 301 302 300 298 297 295 295 295 295 294 293 291 289 289 290 288 287 287 286 285 284 283 283 282 282 282 281 281 281 280 280 280 280
302 303 304 305 305 306 307 305 303 302 302 301 300 299 297 296 295 295 295 296 295 292 290 289 290 289 287 287 286 286 284 283 283 282 282 282 282 281 281 280 280 280 280 280
301 301 302 302 303 303 303 302 301 301 301 301 301 299 298 298 297 296 295 294 293 292 289 289 290 288 287 286 286 285 284 283 283 283 282 282 281 281 281 281 280 280 280 280
301 301 301 301 301 301 301 301 300 299 299 299 299 298 298 297 296 296 295 294 292 290 289 289 289 287 286 286 286 285 283 283 282 282 282 282 281 281 281 280 280 280 280 280
299 300 300 300 299 298 298 298 298 297 297 296 296 296 296 296 296 296 294 293 292 290 289 290 288 286 286 286 285 284 283 283 282 282 282 281 281 281 281 280 280 280 281 281
298 299 299 299 298 297 296 296 296 296 296 296 295 295 295 295 294 294 294 293 291 289 289 289 287 286 286 285 285 283 283 282 282 282 282 281 281 281 281 280 281 282 283 283
296 296 297 298 298 297 296 295 295 295 294 294 295 295 294 294 294 293 293 293 290 289 289 288 286 286 285 285 284 283 282 282 282 282 281 281 281 281 281 281 282 283 284 284

GFSNGP_850_thetae_051.txt.gz
Theta_e
307 307 308 308 307 307 302 307 303 307 308 308 309 310 312 311 309 307 307 309 309 312 311 312 312 312 313 313 313 314 315 315 315 316 316 316 316 316 316 313 313 311 305 301
302 306 306 306 307 307 307 308 308 309 310 309 310 313 313 307 304 303 303 304 310 309 309 310 310 309 309 310 309 308 311 311 309 310 310 309 310 308 309 305 301 300 300 300
304 306 308 307 308 307 307 307 310 311 310 313 313 314 308 304 300 300 299 298 302 304 305 306 307 305 307 307 306 306 305 303 301 301 300 301 299 300 300 299 299 299 299 301
303 305 308 309 310 309 309 310 309 310 311 312 313 311 305 303 299 298 298 298 299 299 301 303 303 304 306 305 306 308 306 305 302 300 298 298 299 298 298 299 299 300 300 300
308 309 307 313 315 313 313 313 311 309 310 312 311 308 306 304 299 297 298 298 298 298 298 299 300 301 303 303 305 304 303 302 300 299 299 299 300 301 300 299 300 300 300 300
312 311 312 312 311 312 310 314 311 311 311 314 311 316 310 302 298 297 296 297 298 298 297 297 297 297 298 297 297 297 296 295 295 295 297 299 299 299 300 299 298 298 295 289
312 311 309 308 308 313 317 314 311 311 311 311 311 310 306 302 299 297 296 296 296 296 297 297 296 296 297 295 295 296 296 297 297 298 300 300 299 299 300 299 295 290 289 289
311 313 311 309 312 317 313 312 311 310 311 311 309 306 305 304 301 298 296 295 295 295 295 295 295 295 296 298 297 298 298 299 298 299 299 299 299 296 290 289 288 288 288 287
309 309 308 310 312 313 312 311 309 309 311 311 308 306 305 304 302 301 300 298 297 296 295 294 296 298 299 298 299 299 299 299 298 298 296 291 289 289 289 289 289 288 287 286
311 312 309 312 313 312 312 311 309 308 309 312 311 307 306 303 303 303 302 300 300 300 299 299 298 299 300 299 299 299 299 298 294 291 290 289 289 290 289 288 286 286 285 284
311 311 313 313 313 313 312 311 309 308 309 311 310 308 307 305 304 304 303 301 301 300 300 300 299 299 299 298 297 297 296 293 291 290 289 289 289 288 286 286 286 285 284 284
313 312 311 312 313 312 312 310 308 307 309 310 310 309 306 305 305 305 304 302 301 300 300 300 300 297 296 296 296 295 293 290 289 289 289 289 287 286 286 286 285 284 284 283
310 312 311 312 312 312 311 309 308 307 308 309 309 308 305 304 304 303 302 301 301 301 300 298 295 295 294 294 293 292 291 289 289 289 289 287 287 287 285 284 283 283 282 282
310 311 311 312 312 311 310 308 308 306 306 306 307 306 305 303 304 301 300 300 300 299 298 295 295 295 294 293 292 291 290 289 291 289 288 287 286 285 284 284 283 282 282 281
309 308 308 310 311 310 309 308 306 305 305 304 303 303 303 303 304 302 299 298 299 298 298 296 296 295 295 294 292 290 290 291 289 287 287 286 285 284 283 283 282 282 281 281
304 305 308 308 308 308 307 306 304 304 303 303 302 301 301 302 303 301 301 299 299 298 298 298 296 296 296 292 290 290 290 288 287 286 285 285 284 283 282 282 282 281 281 280
303 305 306 308 308 308 308 305 303 303 303 302 302 300 299 300 300 298 299 299 298 297 297 296 296 296 293 290 289 290 288 287 286 285 284 283 283 282 282 282 281 281 280 280
302 304 305 305 306 308 308 305 303 302 303 301 300 300 298 299 299 298 298 297 296 295 295 295 295 293 290 289 290 287 286 286 285 284 284 283 283 283 282 281 281 281 280 280
303 304 305 307 307 308 308 305 303 303 303 303 303 301 299 299 298 298 297 295 295 295 295 294 293 290 289 290 288 286 286 286 285 284 283 283 283 282 282 281 281 281 280 280
303 304 305 306 307 306 306 304 303 303 303 303 303 300 300 299 297 296 296 296 296 296 295 295 292 289 289 289 287 286 286 285 284 284 283 283 282 282 282 281 281 281 280 280
302 302 303 304 306 307 305 305 306 304 303 303 302 301 300 299 297 296 295 295 295 294 294 293 290 289 289 287 286 286 285 285 284 283 283 283 282 282 281 281 281 281 280 280
301 301 302 302 302 304 306 306 306 305 304 302 301 299 299 298 297 295 295 296 295 294 293 291 289 289 289 287 286 286 285 284 283 283 283 282 282 282 281 281 281 280 280 280
300 301 301 302 302 301 302 303 303 302 301 301 303 301 300 299 298 296 296 295 293 294 293 290 289 289 288 286 286 286 285 284 283 283 282 282 282 281 281 281 281 280 280 280
299 300 301 301 300 300 300 300 299 299 300 299 299 299 299 298 297 296 296 295 294 293 292 289 289 289 287 286 286 286 285 284 283 282 282 282 282 281 281 281 280 280 280 281
297 298 299 300 300 299 298 298 298 298 297 297 297 297 297 297 297 297 296 295 294 293 291 289 289 289 287 286 286 285 285 283 283 282 282 282 281 281 281 281 280 280 281 282
292 294 296 297 298 298 297 297 297 296 296 296 296 296 295 295 295 294 294 294 293 293 290 289 289 289 287 286 285 285 284 283 282 282 282 282 281 281 281 281 281 281 283 283
290 291 293 295 295 296 296 296 295 295 294 294 294 294 295 295 294 294 294 293 293 292 291 289 289 288 286 286 285 285 284 283 282 282 282 282 281 281 281 281 281 282 283 284

GFSNGP_850_thetae_054.txt.gz
Theta_e
307 306 307 307 307 306 301 304 302 305 305 307 306 307 307 310 308 305 304 304 309 307 307 309 310 310 310 311 311 311 311 312 312 312 313 313 313 314 313 314 314 314 311 305
301 306 306 306 307 306 306 306 306 308 308 308 308 310 314 308 305 302 301 299 304 301 304 305 305 305 307 308 306 306 308 309 309 308 310 310 309 308 306 306 304 303 301 301
305 305 307 307 307 307 306 306 308 309 309 308 311 313 311 306 305 300 299 299 299 299 303 304 304 304 305 304 304 303 302 302 302 303 305 304 304 302 302 302 300 299 299 299
307 304 308 307 308 307 307 307 307 307 308 310 311 311 308 306 302 298 298 299 298 298 301 304 303 303 304 302 302 301 300 301 301 301 302 302 301 299 298 298 298 299 300 299
308 309 306 312 312 309 310 313 307 307 307 310 312 309 307 306 300 298 298 298 298 298 299 301 301 301 301 301 300 299 299 299 299 300 298 300 299 298 298 299 299 299 299 298
310 310 310 309 310 312 311 314 310 309 310 311 311 312 311 304 300 298 297 297 297 297 297 298 299 299 298 297 297 297 297 297 297 298 298 298 298 298 297 298 299 298 299 297
310 311 306 305 308 312 317 313 311 311 311 312 312 310 307 304 300 298 297 296 296 296 296 296 296 296 296 296 296 296 295 296 297 298 298 298 298 298 298 299 298 291 290 289
309 312 310 308 312 316 313 312 311 310 310 311 311 309 307 304 301 299 298 296 295 295 295 295 295 296 299 298 297 298 298 298 298 297 297 297 298 293 289 289 289 289 288 287
307 306 307 309 311 311 312 311 310 309 310 311 311 308 308 305 303 301 300 300 297 295 294 295 298 298 299 297 298 298 298 298 297 296 292 289 289 289 289 289 288 287 286 286
310 312 310 311 313 313 312 311 310 309 309 310 312 310 307 306 304 302 302 301 300 298 299 299 299 299 299 298 298 298 298 295 291 290 289 289 289 289 288 287 286 286 285 284
308 310 312 312 313 313 312 311 311 309 308 309 311 310 307 306 305 304 302 301 301 301 301 300 299 299 299 299 298 296 292 290 289 289 289 289 288 287 287 286 285 284 284 283
313 310 310 311 312 312 312 311 310 309 308 309 310 311 308 305 305 305 303 302 301 300 299 298 298 298 296 296 295 293 291 290 289 289 289 288 287 286 285 284 283 283 283 282
309 310 311 312 311 311 311 311 310 308 307 309 310 310 308 305 305 304 303 302 302 301 300 299 296 296 296 295 293 291 290 289 289 289 287 286 286 286 285 284 283 283 282 282
307 309 310 309 309 309 310 309 309 308 307 307 308 309 308 305 304 304 304 302 302 301 299 297 296 295 295 294 292 290 289 289 289 287 287 287 286 285 284 284 283 283 282 282
306 306 304 307 308 308 308 308 307 307 306 305 306 306 306 304 303 304 302 301 300 299 298 296 296 295 295 293 291 289 289 290 289 288 287 286 285 284 284 284 283 283 282 281
304 304 305 305 308 307 307 306 306 306 305 304 304 304 304 304 303 304 299 299 300 299 298 297 296 295 295 293 290 289 290 290 288 287 286 285 284 284 284 283 283 282 282 281
300 301 303 305 305 306 307 306 305 304 304 304 303 302 302 302 301 303 301 300 299 298 299 298 296 296 296 293 290 290 290 288 287 286 286 285 284 283 283 283 282 282 281 281
301 302 302 303 304 306 306 307 306 304 303 303 302 301 300 300 301 302 300 300 299 298 297 297 295 295 295 292 290 290 289 287 287 286 285 284 284 283 283 282 282 282 281 281
300 301 303 304 305 306 306 307 307 304 302 303 302 301 300 300 301 300 298 299 299 298 297 296 296 295 293 290 290 290 288 287 286 285 284 284 283 283 283 282 282 281 281 281
301 302 302 304 305 305 305 305 304 303 303 302 302 302 302 302 300 298 297 298 298 297 296 296 296 295 292 290 290 288 287 287 286 285 284 283 283 283 282 282 281 281 281 281
299 300 302 304 305 305 304 302 301 302 303 302 302 303 303 301 299 298 297 297 296 295 295 295 295 294 290 290 289 287 287 286 285 284 283 283 283 282 282 282 281 281 281 280
299 299 299 300 302 304 304 304 305 305 304 302 301 301 300 300 298 298 297 296 295 295 295 295 294 292 289 290 288 287 286 286 285 284 283 282 282 282 282 282 281 281 280 280
297 298 299 300 300 300 300 300 302 303 303 301 300 301 300 300 300 298 299 297 295 295 295 294 293 291 289 289 288 286 286 285 285 283 283 282 282 282 282 281 281 281 281 280
294 296 297 298 299 300 299 298 298 298 299 300 302 300 299 299 299 298 297 296 295 295 295 294 292 290 289 289 287 286 286 285 284 283 282 282 282 282 282 281 281 281 281 281
291 292 293 295 297 298 298 298 298 298 298 297 297 297 297 298 298 298 297 296 295 295 294 294 292 290 289 289 287 286 285 285 284 283 282 282 282 282 281 281 281 281 281 282
289 290 290 291 294 295 296 297 297 296 296 296 295 296 295 295 296 295 295 294 294 295 294 293 292 290 289 289 287 286 285 285 284 283 282 282 282 282 282 281 281 281 281 283
287 287 288 289 289 292 294 295 296 296 296 295 294 294 293 293 294 294 293 293 293 294 294 292 291 290 288 288 287 285 285 285 284 282 282 282 282 282 282 281 281 282 283 284

GFSNGP_850_thetae_057.txt.gz
Theta_e
306 306 306 307 308 306 303 304 306 305 305 306 306 305 307 309 308 306 305 303 302 305 307 307 306 308 308 309 309 308 309 308 309 310 310 311 313 312 311 311 310 311 311 308
302 306 306 307 307 306 306 306 306 306 308 308 308 308 312 309 306 302 302 300 304 303 305 305 304 307 308 308 309 308 305 305 303 304 306 305 303 305 304 305 304 304 303 301
306 305 306 307 307 307 306 305 308 308 308 307 309 310 311 307 305 301 300 301 301 301 302 303 305 305 307 307 306 305 304 302 299 299 300 300 300 301 301 300 298 298 298 300
308 304 307 306 306 306 307 307 306 307 307 308 308 311 308 307 305 300 299 300 300 300 300 301 302 302 303 303 303 303 302 301 300 298 300 299 298 299 298 298 298 298 298 299
307 308 305 311 308 308 309 314 306 306 306 306 311 310 308 306 303 300 299 298 298 299 299 299 300 299 299 299 300 300 300 299 298 298 298 297 297 296 296 297 297 297 297 298
306 309 310 307 309 311 310 315 310 307 307 311 311 313 310 305 302 300 298 297 297 297 298 298 298 296 296 297 298 298 297 298 297 297 297 297 297 297 297 298 298 297 297 297
306 308 306 304 306 310 318 314 311 311 311 311 311 310 308 305 303 300 298 297 296 297 297 297 297 295 297 297 298 297 297 297 297 297 297 297 298 297 297 297 295 290 289 289
307 309 306 307 311 316 313 312 311 311 310 310 311 310 308 306 303 301 299 297 295 296 296 296 297 298 299 298 297 297 297 297 298 298 298 297 295 291 289 289 289 288 287 287
305 305 305 308 311 311 311 311 311 310 310 310 311 310 309 306 305 303 301 298 296 296 296 298 299 299 299 297 296 297 298 298 297 294 290 289 290 290 289 288 287 287 286 285
309 310 307 311 313 312 312 311 311 310 309 309 310 310 308 307 306 304 302 300 298 298 299 299 299 299 298 297 297 298 297 292 290 289 289 290 289 288 287 287 286 285 285 284
307 307 310 311 313 311 312 311 311 310 309 308 309 310 309 308 306 304 303 301 302 302 301 300 300 300 299 299 298 294 291 290 289 289 289 288 287 287 286 286 285 284 284 283
313 309 308 310 311 312 311 311 310 310 308 308 309 309 308 307 307 305 303 301 301 301 300 300 299 298 298 296 293 291 290 289 289 289 288 287 287 286 285 284 284 283 283 282
309 310 310 311 311 310 310 309 309 309 308 307 309 309 308 307 306 305 303 302 301 299 299 300 298 297 296 294 292 291 289 289 290 288 287 286 286 285 284 284 283 283 282 282
305 307 308 308 308 309 309 309 309 308 308 307 307 308 308 307 305 305 305 303 302 301 300 299 298 297 295 294 292 290 289 289 289 287 287 286 285 285 284 283 283 283 282 282
304 304 304 305 305 307 308 308 308 308 307 306 306 307 308 308 305 305 305 303 302 302 299 298 297 297 296 294 292 290 289 290 288 287 286 286 285 284 284 283 283 283 282 282
303 303 303 304 304 305 306 307 307 306 305 305 304 306 306 306 304 304 305 302 302 302 300 297 297 296 296 295 292 289 289 289 287 287 286 286 285 284 284 284 283 283 282 282
300 301 302 303 303 304 305 306 306 307 305 304 303 303 303 303 302 301 303 301 300 300 299 298 297 296 295 294 291 289 290 289 287 287 286 285 285 284 284 284 283 282 282 281
299 300 300 301 303 304 305 305 306 307 307 304 302 302 301 301 302 303 302 299 297 296 296 296 295 295 295 294 291 289 290 288 287 287 286 285 284 284 284 283 283 282 281 281
300 300 301 302 303 303 304 306 306 306 306 304 302 303 302 301 300 301 302 301 300 297 297 295 294 294 295 294 291 290 290 288 287 287 286 285 284 284 283 283 283 282 282 281
300 300 301 302 303 304 303 303 304 305 304 302 301 301 300 299 299 300 300 301 300 300 297 296 295 294 294 294 291 290 289 288 287 286 286 284 284 284 283 283 282 282 281 281
299 299 300 302 303 303 304 302 301 301 301 301 301 301 301 301 302 301 300 299 298 297 296 295 295 295 295 293 290 290 289 287 287 286 285 284 284 283 283 282 282 282 281 281
298 299 300 300 301 301 302 303 304 304 304 303 300 300 300 301 300 298 297 297 296 296 295 295 294 294 294 293 290 290 289 287 287 286 285 284 283 283 283 282 282 281 281 281
294 295 297 298 300 300 299 300 301 302 303 303 303 301 299 298 298 298 299 298 297 295 294 294 294 294 294 292 290 290 288 287 287 286 285 284 283 283 283 282 282 282 281 281
291 291 292 294 296 298 299 299 299 299 299 299 300 301 300 301 300 299 297 296 296 296 295 293 293 293 293 292 290 289 288 287 286 286 285 283 283 282 283 282 282 281 281 281
289 289 290 290 292 294 295 297 297 297 297 297 297 297 297 297 298 297 297 299 296 295 294 294 293 292 293 291 289 289 288 286 286 285 284 283 282 282 282 282 282 282 281 281
287 287 287 288 289 290 292 293 295 296 297 297 296 296 295 295 295 296 296 295 296 294 294 293 293 293 293 291 289 289 288 286 285 285 285 283 282 282 282 282 282 282 282 282
287 287 287 287 286 287 288 289 291 293 294 295 296 295 295 294 294 294 294 294 294 295 293 292 293 293 292 290 288 288 287 286 285 285 285 283 282 282 282 282 282 282 282 284

GFSNGP_850_thetae_060.txt.gz
Theta_e
309 308 309 310 311 309 309 312 316 311 310 311 310 311 311 312 309 307 305 303 302 303 304 301 302 306 306 306 306 307 308 309 308 308 309 308 307 309 309 307 306 306 307 307
309 308 308 310 310 310 309 310 310 311 311 311 311 310 312 312 308 304 302 300 300 301 302 301 302 306 306 306 306 306 307 307 305 305 304 305 305 305 304 305 302 301 301 300
312 308 309 312 311 310 310 309 311 312 312 311 311 310 312 310 307 303 300 301 299 300 301 302 303 305 303 303 303 304 305 305 303 303 301 302 302 301 302 302 300 298 298 298
312 309 315 310 309 310 310 310 310 310 310 310 310 310 309 307 305 302 299 300 299 298 299 300 301 301 300 300 302 302 302 302 302 301 300 299 299 299 298 297 296 297 297 297
311 311 311 312 309 310 312 316 311 310 310 310 309 311 310 306 304 300 298 298 299 299 300 299 300 300 298 300 300 300 300 300 299 298 298 298 298 297 297 298 297 297 297 297
310 311 313 313 311 311 311 319 313 310 312 312 313 319 316 305 303 301 299 298 298 298 298 298 299 297 298 299 298 298 298 298 298 297 297 297 297 297 297 298 297 297 297 296
311 312 310 309 308 308 319 318 312 312 312 313 314 315 309 308 304 302 300 299 298 298 298 297 297 297 298 298 298 298 298 297 297 297 297 297 297 297 297 295 290 289 288 288
309 311 311 307 312 317 315 312 311 311 311 311 311 311 310 307 304 302 302 300 298 298 296 296 299 299 298 298 298 298 297 296 297 297 297 295 292 290 290 289 288 287 287 286
310 310 308 308 310 310 311 310 311 310 310 309 310 310 308 306 305 304 303 300 298 297 296 298 299 299 299 297 297 298 298 297 296 291 290 289 290 289 288 287 286 286 285 284
310 312 309 308 308 313 312 311 310 310 310 309 309 309 308 306 305 305 304 301 298 297 299 299 299 299 298 298 297 297 296 291 290 290 290 289 288 287 287 287 286 285 285 284
311 310 310 312 311 314 312 310 310 309 309 308 308 309 309 308 307 305 304 302 301 301 300 300 300 300 298 297 297 294 291 290 290 290 289 288 288 287 287 286 285 285 284 283
312 311 312 312 311 312 312 311 310 310 309 308 308 308 308 308 307 306 304 304 302 301 301 301 300 300 299 297 293 291 290 290 290 289 288 287 287 286 286 285 285 284 284 283
311 309 309 309 308 309 309 309 309 309 308 308 308 308 308 309 308 306 304 304 302 301 300 300 300 299 297 295 292 291 290 290 290 288 288 287 286 285 285 285 284 283 283 283
306 306 308 308 307 307 308 309 309 308 308 308 307 308 308 308 307 306 305 304 303 300 300 300 299 298 296 294 293 291 290 290 290 288 287 287 286 285 285 284 283 283 283 282
306 306 306 306 307 306 306 308 308 307 307 307 307 306 307 308 306 306 305 304 303 302 301 299 298 297 296 295 293 291 290 290 289 288 287 286 285 285 284 284 284 283 283 282
304 304 303 303 304 304 305 306 307 307 307 306 306 305 306 307 306 305 305 304 303 303 302 300 298 297 296 295 293 291 290 290 289 288 287 286 285 285 284 284 284 283 283 282
301 301 301 302 302 303 304 304 305 307 306 307 305 304 305 305 305 304 303 304 303 303 302 300 298 297 296 295 293 291 290 290 288 287 287 286 285 285 284 284 284 283 283 282
300 300 300 301 301 303 304 304 305 305 307 307 305 303 303 304 304 303 302 302 302 301 301 300 297 296 296 295 294 291 289 290 288 287 287 286 285 285 284 284 283 283 283 282
300 300 300 300 301 302 303 303 304 305 306 306 305 303 303 303 302 302 301 301 301 300 299 298 296 295 295 295 293 290 289 290 288 287 287 286 285 284 284 284 283 283 283 282
300 300 300 301 301 302 302 300 302 303 305 305 303 301 301 301 300 299 299 301 302 301 299 298 296 296 295 294 293 291 289 289 288 287 287 286 285 284 284 284 283 283 283 282
300 299 299 300 302 302 302 302 300 300 300 300 300 300 300 299 299 298 298 300 301 300 300 299 300 296 294 294 293 291 289 289 288 287 287 286 285 284 284 283 283 283 282 282
296 297 298 299 299 300 300 301 302 302 302 302 302 301 301 302 301 300 300 300 301 300 300 300 297 294 294 293 293 291 289 289 288 287 286 286 285 284 283 283 283 283 282 282
292 292 293 294 297 298 298 299 299 299 301 301 302 302 301 300 299 299 300 299 297 297 296 295 296 294 293 292 292 291 289 289 288 287 286 286 285 284 283 283 283 283 282 282
290 290 290 291 292 294 295 297 298 298 298 297 297 298 300 300 300 300 298 297 296 295 296 295 294 293 292 293 292 291 289 289 288 286 286 286 285 284 283 283 283 283 282 282
288 288 288 288 289 290 291 293 294 296 297 297 297 296 296 296 297 299 299 299 299 297 295 294 293 292 292 293 292 291 289 288 288 286 286 286 285 284 283 283 283 283 282 282
287 287 287 287 287 287 287 288 289 292 294 295 295 295 295 295 295 295 295 296 296 298 295 292 291 291 292 292 292 292 289 288 288 287 286 286 285 284 283 283 283 283 282 282
287 287 287 287 287 287 287 287 287 287 289 291 292 293 294 294 293 293 294 294 294 295 296 292 290 290 291 292 292 291 290 288 288 286 286 285 286 284 283 283 283 283 282 282

GFSNGP_850_thetae_063.txt.gz
Theta_e
311 311 311 313 313 312 312 314 319 314 312 312 312 312 313 313 313 311 308 306 304 305 304 304 304 305 304 305 307 307 307 306 304 306 307 308 308 309 309 307 308 307 308 308
312 310 310 312 312 312 311 311 312 312 313 312 312 312 313 314 313 310 306 304 302 302 302 303 303 303 303 302 304 305 305 302 303 303 306 306 305 305 304 304 304 302 301 300
313 310 310 313 312 312 312 311 312 313 313 312 312 312 312 314 312 309 305 303 302 301 301 301 301 302 301 300 302 304 303 303 303 303 304 303 303 303 301 301 300 299 298 299
313 311 316 313 311 311 312 311 311 312 312 312 311 311 312 311 312 308 304 302 300 300 299 299 299 299 299 300 302 302 302 302 302 301 302 300 299 299 298 298 298 298 298 298
313 314 313 311 311 311 313 316 311 311 312 312 312 312 314 310 306 305 303 301 299 298 300 299 298 298 299 299 300 300 301 300 300 300 299 298 298 298 298 298 297 297 297 297
312 313 314 316 313 312 312 319 315 313 313 314 313 319 318 308 305 302 300 299 298 298 299 299 298 297 297 299 300 299 299 300 299 298 298 297 296 297 297 297 297 296 296 292
312 312 312 311 312 310 319 319 314 314 314 314 315 315 312 309 306 302 300 299 298 297 299 298 297 298 298 299 299 298 298 298 298 298 297 297 297 296 294 291 289 289 288 288
311 311 312 309 311 313 316 314 313 313 313 313 313 312 310 308 305 304 302 299 298 298 298 298 299 298 299 299 299 298 297 298 297 296 296 292 290 289 289 288 288 287 287 286
310 311 310 310 312 311 312 313 313 312 312 311 311 309 309 308 306 304 302 299 298 299 298 299 300 299 299 298 299 299 298 297 294 290 290 290 289 288 288 287 287 286 286 285
311 312 311 309 310 310 314 312 311 310 310 310 311 309 308 309 308 307 304 300 298 299 299 301 299 299 298 298 298 298 296 291 290 290 290 289 288 288 287 286 286 285 285 285
312 312 312 313 313 312 313 313 312 310 309 309 309 309 308 308 309 307 305 301 297 299 301 301 300 298 298 298 298 295 291 290 290 290 289 288 288 288 287 286 286 285 285 284
313 312 312 313 312 313 312 313 312 310 309 309 308 309 307 306 309 308 305 303 301 301 301 301 301 300 299 297 295 291 290 290 291 290 289 288 288 287 286 286 286 286 285 285
311 310 310 310 310 310 310 310 310 309 308 308 308 308 307 306 307 308 306 304 304 303 302 301 301 300 299 297 293 291 290 290 291 290 289 288 287 286 286 286 286 285 285 285
307 307 309 309 310 306 307 307 309 309 308 308 307 307 307 306 306 307 307 306 304 303 302 302 301 300 299 296 293 291 290 290 291 289 288 288 287 286 286 285 285 285 285 284
306 306 306 307 307 306 307 307 306 308 307 307 308 307 307 306 306 308 307 306 304 303 302 302 301 300 298 296 294 292 290 290 291 289 288 288 287 286 286 286 285 285 285 284
305 305 305 305 305 305 305 305 305 306 305 306 306 306 306 305 305 306 306 306 305 305 304 302 301 299 298 296 295 293 291 290 290 289 288 288 287 286 286 285 285 285 284 284
303 303 303 302 302 302 302 303 303 304 305 306 306 306 304 304 304 305 306 305 305 304 304 304 301 299 298 296 295 294 291 290 290 289 288 288 287 286 285 285 285 285 284 284
301 300 300 300 300 300 302 302 302 303 304 305 306 306 304 303 304 305 306 305 304 303 303 303 302 299 297 296 295 294 292 290 290 290 288 287 287 286 285 285 285 284 284 284
298 299 300 301 301 301 302 302 302 301 303 304 305 305 305 303 302 303 303 303 303 303 303 303 302 300 297 296 295 295 293 290 290 289 288 287 287 286 285 285 284 284 284 284
300 300 300 300 300 300 301 301 299 299 301 303 304 304 304 302 302 302 301 302 303 302 302 302 300 300 297 295 294 294 293 291 289 289 288 287 286 286 285 284 284 284 284 283
299 298 299 299 300 300 301 301 301 299 299 300 300 300 300 300 300 300 300 300 300 300 300 300 300 300 299 295 294 293 293 291 289 289 288 287 286 286 285 284 284 284 284 283
295 295 295 297 298 297 298 298 299 300 301 301 301 301 301 301 301 300 299 299 298 299 299 299 299 299 299 299 297 293 293 292 290 289 288 287 286 286 285 285 284 284 284 283
292 291 291 291 293 294 296 297 297 298 298 299 300 301 301 300 301 301 302 300 300 300 300 300 300 299 299 298 295 292 292 292 290 289 288 287 286 286 286 285 284 283 283 283
291 290 289 289 290 291 292 293 294 296 297 297 297 297 297 299 300 300 300 299 299 297 296 296 296 295 294 294 292 292 292 291 290 289 288 287 286 286 286 285 284 283 283 283
291 289 288 288 288 288 288 288 289 291 294 295 296 295 295 295 295 295 297 298 298 296 295 295 294 295 292 292 292 292 292 292 290 289 288 287 286 286 286 285 284 283 283 283
289 287 287 287 287 287 287 287 287 287 288 290 292 293 294 295 295 294 294 294 294 295 296 296 294 292 292 291 291 293 293 291 290 288 288 287 286 286 286 285 284 284 283 283
288 287 287 287 287 287 288 288 287 287 287 287 287 289 291 292 294 294 294 294 293 293 293 293 294 293 291 290 291 292 290 290 290 287 287 287 286 286 286 285 285 284 283 283

GFSNGP_850_thetae_066.txt.gz
Theta_e
311 311 312 313 312 312 308 310 307 312 311 309 309 309 311 313 314 314 311 308 306 306 305 304 304 305 305 306 307 307 306 306 306 306 307 308 307 307 307 306 306 305 305 305
306 310 310 310 311 311 311 310 310 311 311 310 311 312 312 313 313 312 310 307 304 303 303 304 304 305 305 306 306 305 305 304 304 304 304 304 303 302 303 303 304 303 304 302
310 310 310 308 310 310 311 310 310 310 310 311 311 312 312 314 314 312 309 305 303 302 302 302 303 304 305 305 304 304 303 302 302 301 301 301 300 300 301 301 301 301 300 299
309 310 309 312 311 311 311 311 310 311 311 311 311 311 311 313 313 310 306 304 303 301 301 302 302 302 303 303 303 302 302 301 301 299 300 299 299 300 300 299 299 299 298 298
309 311 311 311 309 310 311 312 310 310 310 311 311 311 312 312 310 308 305 303 301 300 300 300 300 300 300 301 301 301 300 299 299 298 299 299 300 299 299 298 298 298 298 297
311 311 314 315 311 312 311 318 313 310 310 312 312 314 315 312 309 308 305 302 301 300 300 300 300 298 299 299 300 300 299 299 298 299 299 299 299 298 297 297 295 292 290 290
311 313 310 312 311 311 318 317 314 314 314 314 312 313 313 311 308 306 304 301 299 299 299 300 299 299 299 299 299 299 299 299 299 299 299 298 296 293 290 289 289 288 288 287
311 312 309 311 310 312 314 313 313 313 313 313 313 312 311 310 308 306 305 302 300 300 299 299 299 300 300 299 298 297 297 298 298 298 294 291 291 290 289 288 288 287 287 286
308 309 310 310 311 312 313 313 312 312 312 311 311 311 310 310 309 307 305 303 301 301 301 299 300 300 300 299 298 296 298 298 295 291 291 290 290 289 288 287 287 286 286 286
309 309 308 309 311 311 313 313 312 311 311 310 311 311 309 309 309 308 305 303 301 301 300 300 300 300 300 299 299 298 297 292 290 291 290 289 289 288 288 287 287 286 286 286
309 309 311 313 311 310 313 312 312 313 311 310 310 310 310 309 309 308 306 303 301 301 301 301 301 301 300 299 298 297 292 291 291 290 290 289 289 288 288 287 286 286 286 286
310 311 311 311 312 312 312 312 312 312 311 310 310 309 309 308 308 308 308 304 302 302 302 301 301 300 300 299 298 295 291 291 291 290 289 289 288 288 287 287 286 286 286 286
310 310 311 311 311 311 310 310 310 310 310 309 309 308 309 308 308 308 308 306 303 303 304 302 302 301 299 298 297 293 292 291 291 291 289 289 288 288 287 287 286 286 286 286
309 309 309 309 310 309 309 308 308 309 309 309 308 308 308 308 307 307 308 308 305 304 304 303 302 302 300 298 296 293 291 291 291 291 289 289 288 288 287 287 287 286 286 285
308 307 308 308 308 307 307 307 307 307 307 308 307 307 307 307 307 307 307 307 305 304 304 303 303 302 301 299 296 293 292 291 290 291 290 289 288 288 287 286 286 286 286 286
306 306 306 306 305 305 305 305 305 305 305 305 306 306 306 306 305 306 306 306 306 305 304 303 303 302 301 299 297 294 293 291 290 290 290 289 288 288 287 286 286 286 286 285
305 303 303 304 303 302 302 302 303 303 303 304 304 305 305 305 304 304 304 305 305 305 305 304 304 303 301 300 298 296 294 292 290 290 290 289 288 288 287 286 286 286 285 285
302 301 301 301 301 301 302 302 302 302 303 303 303 304 304 305 305 303 304 304 304 304 304 304 303 303 301 300 298 297 296 294 292 290 290 290 288 288 287 287 286 285 285 285
300 300 300 300 301 301 302 302 302 302 302 301 302 304 304 304 304 302 302 303 304 304 304 302 302 302 301 300 298 296 296 295 294 291 290 290 289 288 287 287 286 285 285 285
300 300 300 300 301 301 301 301 301 300 298 299 300 302 303 303 303 302 301 301 302 302 302 302 302 302 301 301 299 295 295 295 294 293 290 289 289 288 287 287 286 285 285 285
299 299 300 299 300 300 300 300 301 301 300 299 298 299 300 300 299 300 301 300 300 300 300 300 299 300 300 300 299 298 295 295 294 294 292 290 289 288 287 287 286 286 285 284
295 295 294 294 296 297 297 297 298 298 299 300 301 301 300 300 300 300 299 299 299 299 299 299 299 299 299 299 299 299 298 295 293 293 293 290 289 288 287 287 286 286 285 284
292 292 291 291 291 292 292 293 294 296 297 297 297 298 299 300 300 300 300 300 300 300 300 299 299 298 298 296 297 298 298 299 295 294 292 291 289 288 287 286 286 286 285 284
293 292 290 289 289 289 289 289 289 291 293 294 295 296 296 296 296 297 298 299 299 299 300 300 298 298 297 297 297 297 297 296 296 293 291 291 289 288 287 286 286 285 287 285
294 291 289 288 288 288 287 287 287 287 288 290 292 293 294 295 295 295 295 295 295 297 298 297 295 293 293 295 296 296 295 295 294 291 290 293 290 287 286 286 285 287 287 285
294 292 289 288 287 287 287 288 288 288 287 287 287 288 290 292 293 294 294 294 294 294 294 294 296 295 295 294 294 294 293 292 293 291 292 292 288 287 286 285 285 287 287 284
294 290 287 287 287 287 287 287 288 287 287 288 288 287 287 288 290 291 292 293 293 293 293 292 292 293 294 294 293 292 292 292 292 292 291 289 288 286 286 285 285 286 285 285

GFSNGP_850_thetae_069.txt.gz
Theta_e
310 311 311 310 311 310 306 309 306 310 308 309 307 306 308 310 314 314 312 310 308 307 306 305 305 305 306 306 307 307 306 306 306 306 306 307 308 307 307 306 307 306 304 304
301 309 309 309 310 310 309 309 309 309 310 308 309 309 311 311 313 313 311 309 307 306 305 304 304 304 305 306 305 305 305 305 305 305 305 306 305 305 305 304 302 301 302 303
306 309 308 306 308 309 309 309 310 310 309 309 309 310 311 312 313 313 313 310 308 305 304 304 304 304 305 304 304 303 304 304 304 304 303 304 303 302 301 299 300 300 301 301
304 306 305 305 309 308 309 310 308 309 308 309 310 311 312 312 313 314 312 309 306 304 302 302 303 304 304 303 303 303 304 304 303 302 301 300 299 299 299 299 299 300 300 299
307 307 306 310 309 309 309 309 308 308 308 309 311 311 311 311 313 312 310 306 304 303 302 301 302 302 302 302 302 303 303 302 301 300 300 299 299 299 298 298 299 299 298 292
310 307 312 313 309 311 310 315 312 308 308 308 311 311 310 312 312 310 308 306 304 302 301 300 301 301 301 301 301 301 301 301 300 300 299 299 299 298 298 295 291 290 290 289
308 309 308 309 311 312 316 314 313 309 310 310 310 311 315 313 310 308 307 305 303 301 301 300 300 300 299 300 301 300 300 299 299 298 298 298 296 291 290 289 289 288 288 287
308 311 309 310 309 313 313 312 313 313 313 313 313 314 314 312 309 308 306 305 303 301 301 300 300 299 299 300 300 300 300 299 298 298 296 292 290 290 289 288 288 287 287 287
306 307 307 310 311 313 313 313 312 313 312 312 312 311 311 310 309 307 306 304 302 302 302 301 300 301 301 300 299 299 299 298 297 294 291 290 289 289 289 288 287 287 287 287
307 308 307 309 311 312 313 313 312 312 312 311 311 311 310 309 308 308 307 305 305 303 301 301 301 302 301 301 299 299 299 298 292 291 291 290 289 289 288 287 287 287 287 286
307 307 309 309 309 311 312 312 311 311 310 310 310 310 311 310 309 308 309 306 304 303 302 302 303 302 301 300 300 299 297 292 291 291 291 290 289 288 288 287 287 287 287 286
308 308 308 311 311 310 311 312 312 312 311 310 310 310 310 310 309 308 308 307 305 303 303 303 303 302 301 299 299 298 294 291 291 291 290 289 289 288 288 287 287 287 287 286
309 310 311 311 311 311 312 311 311 310 309 309 309 309 309 309 309 308 307 307 307 305 304 304 303 302 302 300 299 298 294 291 290 291 290 289 289 289 288 287 287 287 287 286
309 309 309 310 310 310 310 309 309 308 309 309 308 308 308 308 308 308 308 308 308 306 304 304 304 303 302 301 300 297 293 291 290 291 290 289 289 289 288 287 287 287 287 286
309 309 308 308 308 308 308 307 308 307 307 307 307 307 307 307 308 308 307 307 306 305 304 303 303 303 302 301 300 297 294 291 291 290 291 290 289 289 288 287 287 287 287 286
308 308 307 306 306 306 305 305 305 305 305 305 305 305 306 306 306 306 306 306 306 307 307 306 304 303 303 302 300 298 295 292 291 290 290 290 289 289 288 288 287 286 286 286
306 305 305 304 304 304 303 302 302 303 303 303 304 304 304 305 305 305 305 305 305 305 306 306 305 303 302 301 300 299 297 294 292 291 290 290 290 289 288 288 288 287 286 286
305 304 304 303 302 302 302 302 302 302 302 303 303 303 304 304 305 305 304 304 303 303 304 305 304 303 302 301 300 299 297 295 294 293 291 290 290 289 288 288 288 287 286 286
301 301 301 301 301 301 302 302 302 302 303 303 302 302 302 303 304 304 303 303 302 302 304 303 303 303 302 302 300 299 297 296 295 294 293 291 290 290 289 288 288 287 287 286
300 300 300 300 301 301 301 301 301 301 300 299 299 300 301 302 302 302 302 302 301 301 302 302 302 302 302 301 300 300 299 296 295 295 294 292 291 290 289 289 288 287 287 286
300 300 300 300 300 300 298 298 299 300 300 300 300 298 298 299 300 300 300 300 301 301 301 301 301 301 300 299 299 299 299 298 295 295 296 293 292 290 289 289 288 287 287 286
296 294 293 294 295 295 295 295 295 296 297 297 298 300 300 300 300 299 299 300 299 299 299 300 300 300 300 299 298 298 298 298 298 297 296 292 292 292 290 289 288 287 287 286
292 292 291 290 290 291 291 291 291 292 293 294 295 296 296 297 297 299 299 299 299 299 300 300 299 298 298 297 297 297 296 296 296 297 297 295 293 294 290 288 288 287 286 286
294 294 292 290 289 288 288 288 288 288 288 290 292 293 294 295 294 295 295 296 297 298 298 298 298 298 297 297 297 296 296 296 296 296 296 295 295 292 290 289 288 287 286 286
296 295 293 289 288 288 288 288 288 288 287 287 287 288 289 291 292 293 294 294 294 294 294 295 297 296 295 296 296 296 296 295 295 295 294 294 294 293 292 290 287 287 286 285
295 295 293 290 288 287 288 288 288 288 288 288 287 287 287 287 289 290 291 292 293 293 293 293 293 293 294 294 294 293 293 294 293 293 293 293 293 293 292 291 287 286 286 285
295 295 293 288 287 287 287 287 287 287 288 288 288 288 287 287 287 287 289 290 291 291 292 292 292 292 292 292 293 293 293 292 291 291 292 292 292 291 291 290 287 286 285 286

GFSNGP_850_thetae_072.txt.gz
Theta_e
308 310 309 309 310 309 308 311 312 313 308 309 308 308 309 312 313 314 314 313 312 311 309 307 307 306 306 306 306 307 307 307 306 306 307 307 307 308 307 306 306 306 305 305
301 308 309 308 309 309 308 308 309 308 310 308 308 307 308 309 311 312 313 313 311 309 308 307 306 306 305 306 306 306 306 305 305 305 305 306 306 306 305 304 304 304 304 303
304 308 306 307 308 308 309 308 309 310 309 308 307 308 309 309 309 313 314 312 310 309 307 306 305 305 305 305 305 305 304 304 304 304 305 305 304 303 303 302 302 302 302 301
303 304 304 306 307 307 308 308 307 308 307 307 308 309 310 311 312 313 313 312 310 308 306 304 303 304 304 304 304 303 303 303 304 303 303 303 302 301 301 301 300 300 299 299
306 306 305 307 308 308 308 308 307 308 306 308 309 310 311 312 312 312 313 312 310 307 305 303 302 302 303 303 303 303 303 303 303 302 301 301 300 300 300 299 299 298 292 289
308 307 310 308 309 308 309 311 308 307 306 307 309 309 307 311 311 313 313 311 308 305 303 302 301 302 302 302 302 302 302 302 301 301 300 300 299 299 298 294 290 290 289 288
308 311 306 305 309 310 314 312 312 309 308 308 308 309 311 312 312 312 311 309 306 304 302 301 301 301 301 301 301 301 301 301 300 300 299 299 298 293 290 289 289 288 288 287
310 311 309 308 309 312 311 312 312 309 309 309 310 311 313 314 312 310 309 307 304 303 302 301 300 300 300 299 300 301 300 299 299 300 299 296 291 290 289 289 288 288 287 287
307 307 306 308 309 310 312 313 313 313 313 313 313 313 313 313 311 309 308 307 304 303 302 301 301 300 300 300 301 301 299 298 299 299 295 291 290 290 289 288 288 287 287 287
306 306 305 308 310 313 313 313 313 312 312 312 313 312 312 311 310 309 308 308 306 304 304 303 303 301 301 301 300 299 299 299 298 295 291 291 290 289 289 288 288 287 287 287
305 305 308 309 309 311 312 312 312 311 311 310 310 311 312 311 310 309 309 308 307 306 305 304 303 302 302 300 300 299 299 298 295 291 291 290 289 289 288 288 287 287 287 287
307 307 307 308 310 309 311 312 312 312 312 311 311 310 310 310 310 309 308 308 308 306 303 303 303 304 302 301 301 300 300 298 292 291 291 290 289 289 288 288 287 287 287 287
308 310 311 311 311 310 309 311 312 312 311 310 310 310 309 309 309 309 307 307 307 307 305 303 303 304 303 302 301 300 300 295 291 291 291 290 289 289 289 288 287 287 287 287
309 310 310 311 311 311 311 310 310 309 308 308 308 308 308 308 308 309 309 308 307 307 306 304 303 304 303 303 301 301 300 295 292 291 290 290 289 289 288 288 287 287 287 287
309 309 309 309 309 309 309 308 308 307 307 307 307 307 307 307 308 308 308 307 307 306 307 305 304 304 303 302 301 301 299 296 293 291 290 290 290 289 289 288 288 287 287 287
308 307 307 308 307 307 307 306 306 306 306 306 306 305 305 306 306 307 307 307 307 307 307 307 306 304 303 302 301 300 300 297 294 291 290 290 290 290 289 288 288 288 287 286
306 304 305 306 306 305 305 305 304 304 303 303 304 304 304 305 305 306 306 306 306 306 305 305 306 304 303 302 302 302 301 298 295 292 291 290 290 290 290 288 288 288 288 286
307 307 306 305 305 304 304 303 302 302 303 303 302 303 303 303 304 304 304 304 305 304 304 304 304 304 303 302 302 302 301 299 297 295 292 291 290 289 290 289 288 288 288 287
304 304 303 302 302 301 301 301 302 302 303 303 302 303 302 302 302 303 303 303 304 304 304 303 303 303 303 303 302 301 300 299 298 296 294 292 291 290 289 289 289 288 288 287
301 301 301 300 300 300 300 301 301 301 301 301 300 299 299 300 301 302 302 302 302 302 301 301 301 302 302 302 301 301 300 299 298 297 294 293 293 292 290 289 289 289 288 288
299 299 299 300 300 300 300 300 300 298 298 299 300 300 300 298 298 299 300 300 300 300 300 300 301 301 301 301 299 299 299 298 298 297 296 295 295 295 295 291 289 289 289 288
297 297 296 295 295 295 294 294 294 294 295 295 296 297 298 299 299 299 299 299 299 299 299 299 300 300 300 299 299 298 298 297 297 297 297 296 296 295 295 295 292 288 288 287
292 291 291 291 291 291 290 290 289 289 290 291 292 293 294 295 296 296 297 298 298 299 299 299 299 299 298 297 297 297 296 296 296 296 296 296 296 295 295 296 295 292 288 287
293 293 292 291 289 289 288 288 288 288 287 287 288 289 290 292 292 293 293 294 294 295 296 297 298 298 297 297 297 296 296 295 295 295 295 294 294 294 294 295 294 293 289 287
295 294 293 291 289 288 287 287 288 288 287 287 287 287 287 287 288 289 290 291 293 293 294 294 294 295 296 296 295 295 295 294 294 293 293 293 293 293 293 293 292 293 291 288
294 294 294 293 289 287 287 287 287 287 287 287 287 287 287 287 287 287 288 289 290 291 292 292 293 293 293 293 294 294 294 293 292 292 292 292 292 292 292 292 292 292 291 290
295 295 295 294 289 287 287 287 287 287 287 287 287 287 287 287 287 287 287 287 288 288 289 290 290 291 291 291 291 291 292 292 292 291 291 291 291 291 291 291 291 290 290 290

GFSNGP_850_thetae_075.txt.gz
Theta_e
306 306 307 308 308 311 313 313 312 313 309 309 307 307 308 311 312 313 314 314 314 313 312 310 308 308 307 306 306 306 306 306 306 306 306 306 306 307 307 307 306 305 305 305
302 307 308 308 308 308 311 312 313 312 308 308 308 307 308 310 312 313 314 314 313 313 311 310 309 307 306 306 306 306 306 305 305 305 305 306 306 306 305 305 304 304 304 303
304 307 306 306 307 307 308 308 309 309 311 308 307 306 308 309 311 312 312 312 313 313 312 310 308 307 306 305 305 305 305 305 304 304 304 305 304 304 303 303 303 302 302 301
302 304 305 306 305 306 307 308 307 308 307 308 308 309 308 310 310 310 310 311 313 313 311 308 307 305 304 304 304 304 304 304 303 303 304 303 303 302 301 301 301 300 300 299
306 306 304 307 306 307 307 308 306 307 307 307 308 308 309 308 310 310 310 312 313 312 311 308 305 304 303 303 303 303 303 303 303 303 302 301 301 301 300 300 300 297 291 290
302 307 308 304 308 307 307 309 309 306 306 306 308 308 307 311 311 312 312 312 313 310 308 305 304 303 302 302 302 302 302 301 301 302 300 300 300 299 299 298 293 290 289 289
307 310 306 304 304 308 312 308 311 309 307 307 306 307 310 311 311 311 312 312 310 308 306 304 303 302 301 301 301 301 300 300 300 300 300 300 299 299 294 290 290 289 288 288
309 310 309 306 308 310 308 311 312 309 308 307 309 310 310 311 311 311 312 310 309 308 305 304 302 301 301 301 300 300 300 299 300 299 299 299 298 292 290 290 289 288 288 288
306 307 305 307 310 310 310 312 312 312 311 309 309 309 311 312 313 311 310 310 311 307 305 304 303 301 301 301 299 299 298 298 298 298 298 297 292 290 290 289 288 288 288 288
306 306 304 307 308 310 312 313 313 312 312 313 313 312 313 313 312 310 309 310 309 307 306 304 303 302 301 299 298 299 298 297 297 298 297 292 291 290 289 289 288 288 288 287
304 304 306 308 309 309 311 312 312 312 311 311 311 311 312 312 312 310 309 309 308 308 306 304 303 302 301 300 301 299 298 299 299 298 294 291 291 290 289 289 288 288 288 287
305 306 307 308 309 309 309 311 312 311 311 311 311 310 310 310 311 311 310 308 308 307 306 304 303 302 301 302 302 302 301 300 299 297 292 291 291 290 289 289 288 288 287 287
307 309 309 311 311 311 309 310 311 311 311 311 311 310 310 309 309 309 309 309 307 307 307 305 303 303 302 303 302 302 301 301 299 294 291 291 291 290 289 289 289 288 287 287
309 309 310 310 311 311 309 310 310 311 311 310 309 309 308 308 308 308 309 309 308 307 307 306 305 304 303 303 303 302 301 300 298 293 291 291 291 290 289 289 289 288 288 287
308 308 309 309 310 310 310 310 309 309 308 308 307 307 307 307 307 307 308 308 308 307 307 307 306 305 304 303 303 302 301 300 299 294 291 290 290 290 290 289 289 289 288 287
308 308 308 308 308 308 308 307 307 307 307 306 306 306 306 305 306 306 306 307 307 308 308 308 307 306 304 302 303 302 301 300 298 297 293 291 290 290 291 290 289 289 288 288
306 305 306 307 307 307 307 306 306 305 304 304 304 304 304 304 305 305 304 304 305 306 306 306 306 305 304 303 302 302 302 300 300 299 296 292 291 290 290 290 290 289 289 288
306 306 306 306 306 305 304 303 303 303 303 303 303 303 303 302 303 303 303 304 304 305 305 305 304 304 304 304 303 302 302 301 300 300 298 295 292 291 290 290 290 290 289 288
304 304 304 304 303 303 302 302 302 302 302 302 303 303 302 302 302 301 302 303 303 303 304 304 303 303 303 303 302 302 301 301 300 299 299 297 295 292 291 290 289 289 289 289
302 302 301 301 301 302 302 301 301 301 301 301 301 301 300 299 299 300 300 301 302 302 302 302 302 302 302 301 301 301 300 300 300 299 299 298 297 295 292 291 290 289 289 289
301 300 300 301 301 300 300 301 300 300 300 298 298 299 299 300 300 299 298 299 299 299 300 300 300 300 300 301 301 301 300 299 299 299 299 298 298 297 297 297 296 294 294 291
299 299 299 298 297 297 295 294 293 292 292 293 293 294 295 296 297 298 299 298 298 298 298 299 299 299 299 300 300 299 299 298 298 298 298 297 297 297 297 296 296 295 295 295
293 292 292 292 291 291 290 290 288 288 289 289 289 290 291 292 293 294 295 295 296 297 298 298 298 299 298 298 298 297 297 297 296 296 295 295 295 295 295 295 295 295 294 294
294 294 293 292 290 289 288 288 288 288 288 288 287 287 287 288 288 290 291 292 293 294 294 294 295 296 297 297 296 296 295 295 295 294 294 294 294 294 294 294 294 294 293 293
295 294 294 294 292 289 288 287 287 288 287 287 287 287 287 287 287 287 288 288 289 290 291 292 293 293 293 294 295 294 294 294 293 293 293 293 293 293 293 293 293 293 293 293
294 295 295 294 293 289 287 287 287 287 287 287 287 287 287 287 287 287 287 287 287 288 288 289 290 290 291 292 292 292 292 293 293 293 292 292 292 292 292 292 292 292 292 292
295 294 295 294 294 291 287 287 287 287 287 287 287 287 287 287 287 287 287 287 287 287 287 287 288 288 289 290 290 290 291 291 291 292 292 292 292 291 291 290 290 290 290 290

GFSNGP_850_thetae_078.txt.gz
Theta_e
308 306 308 309 311 312 313 314 314 310 308 309 309 307 307 310 312 313 314 314 314 314 313 312 311 310 309 308 308 307 307 306 306 306 306 306 306 306 306 306 306 305 305 304
303 306 306 308 307 308 311 312 313 312 312 310 308 308 307 308 310 313 314 314 314 313 313 312 311 310 308 307 306 306 306 306 306 306 305 305 305 304 305 305 304 304 303 303
306 306 305 305 307 307 307 308 311 313 312 309 307 307 307 308 309 312 313 313 313 313 313 313 311 309 308 307 305 305 305 305 304 304 304 304 304 303 303 302 302 302 302 301
303 304 306 305 305 305 306 307 307 308 309 308 309 310 310 309 309 311 311 312 313 312 312 312 310 308 306 305 304 304 304 304 304 303 303 302 302 302 301 301 301 300 300 299
310 306 304 306 305 305 306 307 304 306 307 307 307 308 308 310 309 310 311 311 310 311 312 312 310 308 306 304 304 303 303 303 302 302 302 301 301 301 300 300 299 299 293 290
305 309 308 303 308 306 306 308 307 306 304 304 306 307 307 310 310 309 309 310 311 312 312 311 309 306 304 303 303 302 302 302 301 300 300 301 300 300 299 298 297 290 289 288
309 310 305 303 304 306 310 307 310 309 308 305 304 306 309 309 310 309 311 311 311 313 311 308 306 304 303 302 302 302 301 301 299 298 298 298 299 299 298 295 290 289 288 288
309 311 309 305 307 308 307 311 311 311 309 306 307 308 309 309 310 311 310 311 312 310 309 307 305 303 302 302 301 301 300 300 297 297 297 299 298 298 294 290 289 289 288 288
306 306 304 306 309 310 310 309 312 312 310 308 308 309 309 310 310 311 310 311 310 309 307 306 305 303 302 301 301 300 299 297 297 296 297 298 298 294 290 289 289 288 288 288
306 305 303 306 307 308 309 311 312 312 312 311 310 311 312 312 311 311 311 310 308 308 307 305 304 304 302 301 300 299 299 297 297 297 298 298 296 291 289 289 289 288 288 288
303 303 305 308 308 308 308 311 312 311 311 312 312 313 312 312 311 311 310 309 308 308 307 305 304 304 303 301 300 299 298 297 296 297 298 298 292 290 290 289 289 288 288 288
304 305 306 307 308 309 308 309 311 311 310 310 310 310 310 310 311 311 313 313 310 308 307 306 305 304 303 302 301 301 300 298 299 299 299 296 291 290 290 289 289 289 288 288
304 307 308 308 310 310 309 309 310 311 311 311 311 311 310 310 309 309 309 310 310 309 307 307 306 305 303 302 302 302 301 301 300 299 299 295 291 290 290 289 289 289 289 288
308 308 307 309 310 310 310 309 310 310 310 310 309 308 308 308 308 308 308 308 308 308 307 307 307 307 304 303 303 303 302 301 300 300 299 294 291 291 290 289 289 289 289 288
307 307 308 309 310 310 309 309 309 309 308 308 307 307 307 307 307 307 307 307 307 308 307 308 307 307 306 304 303 302 302 302 300 300 299 295 291 290 290 290 289 289 289 289
307 307 307 308 308 309 309 308 308 307 307 306 306 306 306 306 305 305 305 306 306 307 307 307 307 307 306 305 304 302 302 302 301 300 299 297 293 291 290 290 290 290 289 289
307 306 306 307 307 306 306 306 306 305 305 304 304 304 303 303 303 303 304 304 304 305 305 306 306 305 305 305 304 304 302 302 301 300 300 300 298 294 291 290 290 290 290 290
305 306 306 306 306 306 305 305 305 304 303 302 302 303 303 303 303 303 302 303 303 304 304 304 304 304 304 304 304 303 302 301 301 300 300 299 300 298 295 292 290 290 290 290
304 305 305 305 305 304 303 302 302 302 302 302 302 302 303 303 302 302 301 301 301 302 302 302 303 303 303 303 302 302 302 302 301 300 300 299 298 298 297 295 292 291 290 290
302 302 302 302 302 302 302 302 302 301 301 301 301 302 301 301 301 300 300 299 300 300 300 301 301 302 302 302 301 301 301 301 301 300 300 299 299 298 298 297 296 295 293 292
300 300 300 301 301 301 301 301 300 300 299 298 297 296 296 296 298 299 299 299 298 297 298 298 299 300 300 300 300 300 300 300 300 299 299 298 298 298 298 298 298 297 297 297
299 299 299 299 299 299 297 296 293 292 291 291 291 291 292 292 293 294 295 296 296 297 297 298 298 298 299 299 298 298 299 299 298 297 297 297 297 297 297 297 296 296 296 296
296 294 293 293 292 291 291 290 289 288 288 288 288 288 288 288 288 290 291 292 292 293 294 294 295 296 297 297 297 297 297 296 296 296 296 295 295 295 295 295 295 295 295 294
293 294 293 293 291 290 289 288 287 288 288 288 287 287 288 287 287 287 288 288 289 289 290 291 292 293 294 294 295 296 296 295 295 295 295 294 294 294 294 294 294 293 293 293
295 294 293 294 293 292 289 288 287 287 287 287 287 287 287 287 287 287 287 287 287 287 288 288 289 290 290 291 292 292 293 293 294 293 293 293 293 293 293 293 292 292 292 292
293 294 294 295 295 294 291 288 287 287 287 287 287 287 287 287 287 287 287 287 287 287 287 287 287 288 288 288 289 290 290 291 291 292 292 293 293 292 292 292 292 292 291 291
294 294 295 295 295 295 294 290 287 287 287 286 286 286 286 286 286 286 286 286 286 286 286 287 287 287 287 287 287 288 288 289 289 290 290 290 291 291 291 291 291 291 290 290

GFSNGP_850_thetae_084.txt.gz
Theta_e
311 310 311 312 313 314 315 315 315 314 313 312 312 313 312 311 310 311 313 312 312 312 313 314 314 314 312 312 311 310 309 309 308 308 307 306 306 306 306 306 306 306 306 306
313 312 311 312 312 312 313 313 313 313 314 312 312 312 312 311 311 310 311 313 312 312 312 314 314 313 312 312 311 310 309 308 308 307 306 306 306 306 305 305 304 306 305 304
314 310 310 313 311 311 311 312 313 315 313 312 312 312 312 312 311 312 312 311 312 313 313 314 314 314 313 312 311 309 308 308 307 306 306 305 305 305 304 302 303 304 303 302
312 309 313 310 306 308 310 310 311 311 311 311 311 310 310 310 310 311 310 310 311 312 313 314 314 313 312 312 310 309 308 307 306 305 305 305 304 303 302 301 300 301 301 301
313 312 310 310 307 307 308 309 309 309 310 309 309 308 308 308 309 310 310 310 310 311 314 314 314 313 312 311 310 308 307 306 305 304 304 304 303 301 300 300 299 300 300 299
311 312 311 308 308 305 307 311 309 307 309 310 308 312 314 308 307 308 309 309 309 311 313 314 313 312 311 310 309 307 306 305 304 303 303 303 301 299 299 298 298 299 298 293
311 312 311 308 307 306 310 311 310 311 312 311 309 309 308 307 308 308 308 308 308 311 312 312 311 311 311 310 309 307 305 304 303 302 302 301 299 298 298 297 298 297 292 289
311 312 311 305 306 309 310 310 310 312 311 309 308 307 307 308 308 309 309 308 308 310 310 310 311 311 310 309 307 305 304 303 302 301 301 299 298 297 296 296 297 293 289 288
311 310 307 306 308 308 309 310 311 312 311 309 307 308 308 308 309 309 309 309 308 309 311 311 311 309 307 306 305 304 303 302 301 300 299 297 297 296 295 296 297 291 289 288
308 309 308 306 306 308 308 308 309 311 312 310 309 308 308 310 309 309 309 309 310 310 310 309 308 307 306 305 304 303 302 301 301 300 298 297 296 295 296 297 297 290 289 288
307 307 306 307 307 307 307 307 306 310 311 311 312 312 311 311 310 310 310 309 309 308 308 308 308 307 306 305 304 303 302 301 300 299 297 297 296 296 298 297 292 290 289 288
308 304 305 306 306 306 308 308 307 310 310 310 310 310 310 310 310 310 309 310 312 312 310 308 309 309 307 304 304 303 302 301 300 299 297 297 296 297 297 294 290 289 288 288
303 303 304 305 306 307 308 308 307 310 309 309 310 310 310 309 309 309 309 309 309 309 309 308 306 306 307 304 303 303 303 302 301 299 298 297 296 297 298 293 290 289 289 289
298 301 305 306 307 308 309 308 308 309 309 309 309 309 308 308 308 308 307 307 307 307 307 307 307 306 305 304 303 303 302 301 302 301 300 299 298 299 298 293 291 291 290 289
297 298 303 304 305 307 308 308 308 308 308 308 308 307 307 306 306 306 306 306 306 306 307 307 306 306 305 304 304 304 303 302 301 301 300 300 299 299 298 295 292 291 290 290
301 303 304 305 305 306 307 307 307 307 307 307 306 306 306 305 304 304 304 304 304 304 304 305 306 305 305 305 305 304 303 302 302 300 300 299 299 299 298 297 295 292 291 291
298 300 304 304 305 305 306 306 306 306 305 305 304 304 303 303 303 303 303 303 302 302 302 303 303 304 305 305 305 305 305 303 302 301 300 300 300 299 299 299 298 296 292 291
296 298 302 303 304 305 305 305 304 304 304 303 303 302 302 302 302 302 301 302 302 301 301 301 302 302 302 303 303 304 303 303 302 302 301 300 300 300 299 299 299 298 298 296
301 302 302 303 304 305 304 303 303 303 302 302 302 302 301 301 301 301 301 301 301 300 300 300 301 301 301 301 302 302 302 302 302 301 301 301 299 299 299 299 299 299 299 299
301 300 301 302 302 303 302 301 301 301 302 301 300 298 297 296 296 296 298 298 298 298 298 298 299 299 300 300 300 301 301 300 300 300 300 299 299 299 299 298 298 298 298 297
299 299 300 300 300 300 300 300 300 299 297 296 294 292 291 291 291 291 292 293 294 295 296 297 297 297 297 298 298 298 299 299 298 298 298 298 298 297 298 297 297 297 297 296
298 298 298 298 298 296 295 294 291 290 289 289 289 288 288 288 288 288 289 290 289 290 290 291 292 293 294 296 297 296 296 296 296 296 296 296 296 296 296 295 295 295 295 295
296 295 296 295 294 292 290 289 288 288 288 288 288 288 288 288 288 288 287 287 287 287 288 288 288 289 290 292 293 293 294 295 294 294 294 294 294 294 293 293 293 293 293 293
296 292 292 291 291 291 290 288 288 287 287 288 287 287 287 287 287 287 287 287 287 287 287 287 287 287 288 288 288 289 290 291 292 293 293 293 293 292 292 292 292 292 292 292
297 293 293 293 293 294 294 293 291 288 287 287 287 287 287 287 287 287 287 287 287 287 286 286 286 287 287 287 287 287 287 288 288 289 289 290 290 291 292 292 292 292 292 292
299 297 293 293 294 294 294 294 294 292 289 287 287 287 287 286 286 286 286 286 286 286 286 286 286 286 286 286 286 286 286 286 286 287 287 287 287 288 288 289 289 290 290 290
299 298 297 295 294 294 294 294 294 294 293 289 287 286 286 286 286 286 286 286 286 286 286 286 286 286 286 286 286 286 286 286 286 286 286 286 286 286 286 287 287 288 288 288

GFSNGP_850_thetae_087.txt.gz
Theta_e
314 311 313 314 314 314 316 316 317 316 315 314 314 313 313 314 313 312 312 314 314 314 313 313 312 311 312 312 312 312 311 311 310 310 309 309 308 308 307 307 307 307 306 306
314 313 312 313 313 314 314 314 314 315 315 313 313 313 313 313 312 312 312 312 314 314 314 313 312 311 313 313 312 312 311 310 310 309 309 308 307 306 306 306 306 306 306 305
316 314 313 315 313 314 313 313 314 316 314 313 313 313 312 312 312 312 312 312 312 314 314 314 313 312 312 312 312 312 311 310 309 309 308 307 306 306 305 305 305 303 303 304
314 312 315 311 309 313 313 313 313 312 312 312 312 311 311 311 311 311 311 312 312 313 314 314 313 312 311 312 312 312 311 310 309 308 306 306 305 305 305 304 301 301 302 302
314 312 311 311 308 309 310 310 310 310 311 310 310 310 310 311 311 310 310 311 312 311 313 314 313 312 312 312 312 311 310 309 307 306 305 305 305 304 304 302 300 299 299 300
314 315 311 309 308 307 309 311 311 310 311 312 312 313 314 310 309 308 309 310 311 311 312 313 313 312 313 312 312 311 310 309 307 305 305 304 304 303 302 300 300 299 298 298
313 312 311 310 309 308 310 312 312 312 313 313 313 312 311 309 308 308 308 309 309 309 313 313 311 313 313 312 312 310 309 308 306 305 304 303 302 301 299 299 299 297 297 295
313 313 311 308 308 309 311 311 311 312 314 312 311 309 308 308 308 309 308 307 308 308 310 311 312 312 312 311 311 310 308 307 305 304 303 302 301 299 299 298 297 296 297 295
311 311 308 308 309 309 309 310 311 313 313 312 310 309 309 308 308 308 307 307 307 308 310 311 310 310 311 311 309 308 306 305 304 303 302 301 300 298 298 297 297 296 296 291
309 309 309 309 308 308 309 309 310 311 312 312 309 310 309 309 308 307 308 308 308 308 308 309 310 310 309 308 307 306 304 303 303 302 301 300 299 298 298 297 296 296 296 290
308 308 308 308 308 308 308 308 307 308 310 312 312 311 310 310 310 309 309 308 308 308 308 308 308 307 307 306 305 305 304 302 302 302 301 299 298 298 297 296 295 297 297 290
305 307 307 307 306 306 307 307 307 307 310 310 310 310 310 309 310 310 309 309 309 309 308 308 308 308 309 308 305 304 303 302 302 302 300 299 298 297 296 295 296 297 293 290
300 300 302 304 306 307 307 308 307 308 309 309 309 310 309 309 309 309 309 309 309 309 309 310 310 311 309 305 305 305 303 302 303 303 302 299 299 298 296 297 298 297 291 290
299 299 300 306 306 305 306 307 307 308 309 309 309 309 308 308 308 307 307 307 307 307 307 307 307 307 306 307 307 308 305 303 302 302 302 302 301 299 298 298 298 297 291 290
297 299 301 300 304 305 306 306 306 307 308 308 308 308 307 307 306 306 306 305 305 305 305 306 306 306 306 305 304 304 303 303 302 301 301 301 300 300 299 299 298 298 293 291
298 301 302 303 304 304 305 306 306 305 307 307 307 306 306 305 305 304 304 303 303 303 303 303 303 304 305 304 304 304 303 303 302 302 301 300 300 298 298 298 299 299 297 293
297 300 298 300 303 304 304 304 305 305 305 305 305 305 304 303 303 303 302 302 302 302 302 302 302 302 303 303 304 304 304 303 302 302 302 301 300 300 299 299 299 299 299 298
297 298 299 301 302 303 304 304 305 304 304 304 303 303 303 303 302 302 302 302 301 301 301 301 301 301 301 301 301 302 303 302 302 302 302 301 301 300 299 299 298 299 299 299
300 301 303 303 303 303 302 303 303 303 303 303 302 302 302 302 301 301 301 301 300 300 300 300 299 299 299 300 301 301 301 301 301 301 301 301 300 300 299 299 298 298 298 298
299 300 300 300 300 300 301 302 302 302 301 301 301 300 298 296 295 294 293 294 295 295 295 296 297 298 299 299 299 299 299 299 299 299 299 299 299 299 298 298 298 297 297 297
298 299 299 299 299 300 300 300 300 300 299 298 296 293 291 290 290 290 290 291 291 291 292 292 293 294 295 297 297 297 297 297 297 297 297 297 297 297 297 296 296 296 296 296
297 297 297 297 298 298 296 294 292 291 290 289 289 288 288 288 288 288 288 289 288 288 288 288 288 289 290 291 293 294 295 295 295 295 295 295 295 295 295 295 295 295 295 295
296 296 294 294 293 292 290 289 288 288 288 288 288 288 288 288 288 288 287 287 287 287 287 287 288 288 288 288 288 289 290 292 292 293 294 293 293 293 293 293 293 293 293 293
297 297 293 291 292 292 292 291 289 288 288 287 287 287 287 287 287 287 287 287 287 287 287 287 287 287 287 287 287 287 287 288 288 288 289 290 291 292 292 292 292 292 292 292
297 296 293 293 293 293 294 294 294 292 290 288 287 287 287 287 287 287 287 286 286 286 286 286 286 286 286 286 286 286 286 286 286 286 286 287 287 287 288 288 288 289 290 290
297 298 298 297 294 292 293 293 294 294 294 292 289 287 287 287 286 286 286 286 286 286 286 286 286 286 286 286 286 286 286 286 286 286 286 286 286 286 286 286 286 287 287 288
294 296 298 298 297 295 294 293 294 294 294 294 292 288 287 286 286 286 286 287 287 287 287 287 287 287 286 286 286 286 285 285 285 285 285 285 285 285 286 286 286 286 286 286

GFSNGP_850_thetae_090.txt.gz
Theta_e
313 313 313 314 314 315 315 315 315 314 315 313 313 312 312 312 312 312 312 312 313 314 313 312 312 312 312 312 312 312 312 311 311 311 310 310 311 310 309 308 308 307 307 306
314 314 313 313 313 314 314 315 315 314 314 312 313 313 312 312 313 312 313 312 312 314 314 313 312 312 311 312 312 312 311 311 311 310 310 310 310 309 308 308 307 306 306 306
314 312 311 313 312 313 313 313 314 314 313 312 312 312 312 312 312 312 312 312 312 312 313 314 313 312 311 312 313 312 311 311 311 310 310 310 309 308 307 307 306 305 305 305
314 312 313 312 308 311 312 312 312 312 311 311 311 311 311 311 310 310 310 311 311 312 313 313 314 313 312 312 313 312 311 311 310 310 309 309 308 307 306 306 305 305 303 303
313 312 311 309 307 310 311 310 310 310 309 310 310 310 309 311 311 310 310 311 310 311 312 313 314 313 312 312 313 312 312 312 311 310 309 308 307 306 305 305 304 302 300 299
312 313 314 309 307 308 308 308 310 309 309 312 312 310 310 311 310 310 309 309 310 311 311 312 314 313 313 312 313 313 312 311 310 309 308 307 306 305 304 303 302 300 299 299
310 312 311 308 307 309 309 311 312 312 313 313 311 310 310 309 308 308 308 308 309 310 311 312 314 313 313 312 312 312 310 310 309 308 307 306 305 303 303 302 299 299 299 298
310 310 312 308 308 309 310 311 311 312 313 313 312 310 309 309 308 308 308 307 308 309 311 313 313 313 312 311 310 310 310 309 308 306 305 304 303 302 302 300 299 299 298 297
312 311 308 308 308 308 309 308 310 312 313 313 310 310 309 309 308 308 307 306 307 308 310 312 312 311 311 310 309 309 308 307 306 305 304 303 302 301 300 298 298 298 297 297
307 308 308 308 308 307 308 308 309 310 311 312 311 311 310 309 308 308 307 307 307 307 308 309 309 309 309 308 308 308 307 306 305 304 303 302 301 300 299 297 297 297 296 297
304 304 307 307 306 306 307 307 307 307 307 311 312 312 310 309 309 309 308 307 307 307 308 308 308 308 308 307 306 306 306 305 305 304 303 302 301 299 298 298 297 297 296 296
300 301 303 305 302 306 307 308 307 307 308 310 311 311 310 309 309 308 308 308 308 307 308 308 308 307 307 307 308 307 306 306 304 304 304 302 300 299 298 297 296 295 294 296
299 299 299 300 303 304 305 306 307 307 309 309 309 309 309 309 308 308 308 308 308 308 308 308 309 311 311 311 309 307 305 304 302 303 304 304 303 300 299 298 296 295 296 297
298 297 299 300 301 300 304 306 306 307 308 308 309 308 308 308 307 307 307 306 306 306 306 307 306 306 306 306 306 306 306 306 306 304 302 301 302 302 300 298 298 298 299 298
298 297 297 300 302 302 305 305 305 306 307 307 307 307 307 307 306 306 305 304 304 304 304 304 305 305 305 305 304 304 303 303 303 302 301 301 301 301 301 300 300 299 299 298
298 298 298 300 301 304 305 305 305 305 305 305 305 306 306 305 304 304 303 303 303 303 302 302 302 302 303 304 304 304 303 303 302 302 301 301 301 301 300 301 300 300 300 301
297 298 298 298 299 304 303 304 305 305 304 304 305 304 304 303 303 303 302 302 302 302 301 301 301 301 301 301 302 302 303 303 302 302 301 301 301 300 300 300 300 299 300 300
298 297 298 300 301 303 303 303 303 303 303 303 303 303 303 303 303 302 302 302 301 301 300 301 300 299 299 300 300 300 301 301 301 301 301 301 300 299 299 299 299 299 299 298
299 299 300 301 301 302 302 301 301 301 302 302 303 302 302 302 301 300 300 299 299 299 298 298 298 297 297 297 297 298 299 299 299 299 299 299 299 299 298 298 298 298 298 298
299 299 299 300 300 300 300 300 300 300 300 301 301 300 299 297 296 294 292 292 292 292 292 293 293 294 295 296 298 298 298 298 298 298 297 297 296 296 297 297 297 297 297 297
298 298 298 299 299 299 299 299 298 299 299 299 297 294 291 290 289 289 289 290 290 289 288 288 288 289 289 290 292 293 295 296 296 296 295 295 295 295 295 295 295 295 295 295
297 297 297 297 297 298 297 294 291 290 290 289 289 288 288 288 288 288 288 288 288 287 287 287 287 287 288 288 288 288 289 291 292 294 294 294 293 293 293 293 293 293 293 294
296 295 294 292 291 291 290 289 288 288 288 288 288 288 288 288 288 288 288 287 287 287 287 287 287 287 287 287 287 287 287 287 288 288 288 289 290 291 292 292 292 292 291 291
296 296 296 295 293 292 293 294 293 291 289 288 288 288 287 287 287 287 287 287 287 287 287 287 287 286 286 286 286 286 286 286 286 286 286 286 287 287 287 287 288 288 289 289
297 297 297 297 295 294 293 293 294 294 294 292 290 288 287 287 287 287 287 287 287 286 286 286 286 286 286 286 286 286 286 286 286 286 286 286 286 286 286 286 286 286 286 286
297 298 298 298 298 298 297 294 293 293 294 294 294 292 289 287 287 286 286 286 287 287 287 287 287 287 287 287 287 287 287 287 286 286 286 285 285 285 285 285 285 285 285 285
291 291 292 293 293 295 296 296 294 294 293 294 294 294 292 289 287 286 286 287 287 288 287 287 287 286 286 286 285 285 286 286 286 286 285 285 285 285 285 285 285 285 285 285

GFSNGP_850_thetae_093.txt.gz
Theta_e
310 311 312 314 314 315 314 313 312 312 313 313 312 310 310 311 312 311 311 313 312 312 312 312 312 312 313 313 313 313 313 313 312 311 310 310 311 310 310 310 309 309 308 308
309 311 312 312 314 314 314 314 314 313 313 311 312 312 311 312 312 312 312 312 312 312 312 312 313 312 311 312 312 312 312 312 311 310 310 310 310 310 310 309 308 307 307 307
310 313 311 312 311 313 312 313 314 314 313 312 312 310 311 312 312 311 311 311 312 312 312 312 312 313 312 312 312 312 312 311 310 310 310 310 310 310 309 308 307 306 306 305
306 312 312 310 309 311 312 311 312 312 311 311 312 312 312 311 310 310 310 310 310 311 311 312 313 313 313 312 312 311 311 311 310 310 310 309 309 308 308 306 306 305 305 305
307 313 310 309 308 311 310 311 310 309 309 310 310 309 309 310 310 310 310 310 310 310 310 312 313 313 313 312 311 311 311 311 310 310 310 309 309 308 307 306 305 305 304 301
307 311 312 309 306 307 306 308 309 307 307 308 310 308 306 311 310 309 309 309 309 309 310 311 312 313 313 313 312 311 311 310 310 309 309 308 307 307 305 304 304 303 300 299
306 310 309 308 306 308 307 306 311 312 313 312 310 309 310 309 308 308 308 309 308 309 310 311 311 313 313 313 312 312 310 309 309 309 308 307 306 305 304 303 302 300 299 299
307 307 309 307 307 308 307 309 310 311 313 312 312 310 309 309 308 308 308 307 307 308 309 310 311 313 313 313 312 311 309 309 309 308 307 307 305 304 303 302 301 298 298 298
311 309 308 308 305 306 307 308 309 312 312 312 310 309 309 309 309 307 308 306 307 308 310 312 313 313 313 312 311 310 309 309 308 308 306 305 304 303 302 301 300 298 298 298
304 306 306 303 304 306 307 307 307 309 310 310 311 311 310 309 309 308 307 307 306 307 309 311 311 311 310 310 310 309 308 308 307 306 305 305 304 303 301 300 298 297 298 298
300 299 303 304 303 304 305 306 307 307 307 307 311 311 310 309 309 308 307 307 307 308 307 308 308 309 308 308 308 308 307 306 305 305 304 304 303 302 301 300 298 297 297 297
297 298 299 300 300 301 303 303 306 307 307 309 310 311 310 309 309 308 307 307 307 307 307 307 307 306 306 306 306 306 305 305 304 304 304 303 302 302 301 300 298 297 296 295
297 298 298 297 299 302 302 303 305 306 309 309 309 309 309 308 308 307 307 307 307 307 307 307 308 308 308 309 309 309 308 305 303 302 302 302 303 303 302 300 299 297 295 294
299 299 298 298 299 300 301 301 304 305 307 308 308 308 308 307 307 307 306 306 306 306 306 306 306 305 305 305 305 305 305 305 305 304 302 302 301 300 301 301 299 299 297 296
298 298 298 298 299 302 302 302 305 305 305 306 307 307 308 308 306 305 305 304 303 303 303 303 303 303 303 304 304 303 303 303 302 302 302 301 300 300 300 300 300 300 299 298
296 297 297 298 298 298 303 304 305 305 305 305 305 305 305 305 304 303 303 302 302 302 302 302 302 301 301 301 302 303 303 302 301 301 301 301 301 301 301 300 300 300 299 299
296 297 298 297 298 299 301 302 304 305 304 304 304 304 303 303 302 302 302 302 302 301 301 300 300 300 300 300 300 301 301 301 301 301 301 300 300 300 300 300 300 299 299 298
297 297 298 299 300 302 302 302 302 302 302 302 302 302 302 302 302 302 302 301 301 300 299 299 299 298 296 298 298 299 299 300 299 299 300 299 299 299 298 298 298 299 299 299
298 298 299 300 300 300 301 301 300 300 300 300 300 301 301 301 300 298 297 297 297 296 294 293 293 294 295 296 295 296 296 297 298 298 298 298 297 297 297 297 297 297 298 298
298 298 298 299 299 299 300 300 300 300 300 300 300 298 298 296 294 292 291 291 291 290 290 289 289 289 290 290 292 294 296 297 297 297 297 297 296 296 295 295 295 295 296 296
297 297 298 298 298 298 298 299 299 299 299 297 295 293 291 289 289 288 289 289 289 288 288 288 288 288 288 288 288 288 289 291 292 294 295 295 294 294 295 294 294 294 294 294
296 296 296 297 297 297 296 294 291 290 289 289 288 288 288 288 288 288 288 288 287 287 287 287 287 287 287 287 287 287 287 287 288 288 288 289 290 291 292 292 292 292 292 292
295 295 294 291 291 290 290 290 289 289 288 288 288 288 288 288 288 288 288 287 287 287 287 287 287 286 286 286 286 286 286 286 286 286 286 286 286 286 287 287 287 287 288 289
296 296 296 296 296 294 293 294 294 294 293 291 290 288 287 287 287 287 287 287 287 286 286 286 286 286 286 286 286 286 286 286 286 286 286 285 285 286 286 286 286 286 286 286
297 297 297 297 298 297 296 294 294 294 294 294 293 292 290 288 287 287 287 286 286 286 286 287 287 287 287 287 287 287 287 287 287 287 286 286 286 286 285 285 285 285 285 285
293 294 295 296 296 296 297 297 297 296 293 293 294 293 293 291 288 287 286 286 286 287 287 288 287 287 286 286 286 285 285 286 286 286 286 285 285 285 285 285 285 284 284 284
291 290 290 290 291 291 291 293 294 295 294 293 294 294 293 293 291 288 286 286 286 287 287 287 287 286 286 286 285 285 285 286 286 286 285 285 285 285 285 285 285 284 284 284

GFSNGP_850_thetae_096.txt.gz
Theta_e
309 310 311 311 314 314 314 313 311 311 310 311 307 308 309 311 311 311 311 312 312 312 312 311 311 311 312 313 315 315 315 315 315 316 317 318 317 315 311 309 309 310 310 309
303 308 310 311 312 314 314 314 313 312 312 310 311 310 310 312 312 312 311 311 312 312 312 312 312 311 312 312 313 314 314 314 314 313 312 311 310 310 309 309 310 309 308 307
300 306 310 309 309 312 312 312 313 315 313 312 312 311 311 311 311 311 311 311 311 311 311 312 311 311 312 312 311 312 312 312 311 311 310 310 310 309 309 309 308 307 307 306
298 309 312 311 308 310 312 312 311 312 311 311 312 312 312 312 311 310 310 310 310 310 310 311 311 312 312 312 312 311 311 311 311 310 310 310 309 309 309 308 308 307 306 306
304 308 310 309 307 310 310 311 309 309 310 311 311 310 309 309 309 310 310 310 310 310 310 310 310 311 312 313 312 311 311 311 311 310 310 310 309 308 308 307 307 306 305 304
304 309 310 309 305 306 307 308 309 308 307 307 307 307 305 309 310 309 308 308 308 308 309 310 310 311 312 313 312 311 311 311 311 309 309 308 308 307 307 306 305 304 303 303
299 302 307 306 304 307 307 304 309 311 312 311 309 308 310 308 308 308 308 309 308 308 308 310 310 310 312 313 313 312 311 311 310 309 308 308 307 307 306 305 304 303 302 300
305 305 307 305 306 306 304 304 308 311 312 312 311 310 309 309 309 309 308 307 307 307 308 310 310 311 311 312 313 312 311 310 310 309 308 308 307 306 305 304 303 302 300 298
306 304 306 305 304 303 304 305 306 307 312 312 311 310 309 309 309 309 308 307 306 308 309 309 309 310 312 313 312 311 310 309 309 308 307 306 306 305 304 303 303 301 298 298
303 303 302 304 305 304 304 303 305 307 307 310 310 310 311 310 309 309 308 308 307 307 309 310 311 312 312 311 311 310 309 308 308 307 307 306 304 304 303 303 302 300 298 298
298 298 301 301 299 299 301 302 304 306 306 306 309 311 310 310 310 308 308 308 307 307 307 308 309 310 310 310 309 309 308 307 307 306 305 304 304 303 303 302 301 300 299 298
297 297 297 297 297 297 300 302 304 304 306 308 309 310 309 309 308 307 308 308 308 307 306 307 307 307 307 307 307 306 306 306 305 305 304 303 302 303 303 303 302 300 298 297
297 298 298 299 299 299 300 301 301 305 305 307 309 309 308 308 307 307 307 307 307 307 307 307 307 307 306 306 306 306 306 306 305 305 304 302 302 302 303 302 302 300 299 297
298 298 298 298 297 297 297 301 301 304 305 306 307 308 309 307 307 307 307 306 306 306 306 305 306 306 306 306 306 306 306 306 306 305 304 303 302 301 301 301 301 301 299 298
298 296 296 297 297 299 298 302 303 303 304 305 306 306 306 307 306 306 305 304 303 303 303 302 302 302 302 302 303 304 303 302 302 302 302 302 301 301 300 300 300 300 300 299
296 296 297 297 297 298 298 301 302 304 304 304 304 305 305 304 304 304 303 302 302 302 302 302 301 301 301 300 300 301 302 302 301 301 300 300 300 300 300 300 300 300 300 299
297 297 297 298 298 298 300 302 302 303 303 303 303 303 302 302 302 302 301 302 302 302 301 301 300 300 299 299 300 299 300 300 300 300 300 300 300 299 299 298 298 298 299 299
296 297 297 298 298 299 301 302 302 302 301 301 301 301 302 300 301 301 302 302 301 300 300 299 299 298 297 296 297 298 298 298 298 298 299 299 299 298 298 298 297 298 298 298
297 297 298 298 299 299 299 300 300 300 301 300 300 301 301 301 301 300 298 298 297 296 295 293 292 292 292 293 295 294 295 296 297 297 297 298 298 298 297 297 297 297 297 297
297 297 298 298 299 299 299 298 298 299 299 299 300 300 300 299 295 294 292 291 291 290 289 289 288 288 288 288 289 289 292 295 296 296 296 296 296 296 296 295 293 293 294 295
296 297 298 298 298 298 297 297 296 297 297 296 296 296 294 291 289 289 289 289 289 288 288 288 288 288 288 288 288 288 288 288 289 290 292 293 294 294 294 294 293 293 293 292
296 296 296 296 296 296 295 292 289 289 289 288 288 288 288 288 288 288 288 288 288 287 287 287 287 287 287 287 287 287 287 287 287 287 287 287 287 287 287 287 288 288 289 290
294 295 294 292 290 290 291 291 290 288 288 288 288 287 287 287 287 287 288 287 287 287 287 287 286 286 287 286 287 287 287 287 287 287 287 286 286 286 286 286 286 286 286 286
296 296 295 294 295 295 295 295 295 294 293 291 290 289 288 287 287 287 287 287 287 286 286 286 287 287 287 287 287 288 287 287 287 287 287 287 287 286 286 286 285 285 285 285
296 297 297 297 297 297 296 296 296 296 295 293 292 292 292 290 288 287 287 286 286 286 286 287 287 287 287 287 286 286 286 286 286 287 287 286 286 286 285 285 285 285 285 285
293 293 292 292 292 293 294 295 296 296 295 296 295 292 292 293 292 290 287 286 286 286 287 287 287 287 286 286 286 285 285 285 286 286 286 286 286 286 286 285 285 285 285 285
291 291 291 291 290 290 290 290 290 291 293 294 296 295 294 294 293 293 291 288 286 286 286 287 287 286 286 286 286 285 285 285 286 286 286 286 286 285 285 285 284 284 284 284

GFSNGP_850_thetae_099.txt.gz
Theta_e
307 308 310 309 312 314 313 313 310 309 309 309 307 307 308 310 311 311 311 312 312 312 312 312 311 311 311 312 314 315 315 315 315 315 315 314 313 314 317 317 317 315 311 310
297 304 307 309 309 311 313 313 313 311 311 308 310 308 309 311 311 311 311 312 312 312 311 312 312 312 311 311 312 313 314 315 315 314 313 314 316 316 315 313 311 310 310 309
297 301 304 305 308 309 310 311 313 314 312 311 312 311 310 311 311 311 311 312 312 312 311 311 311 311 311 311 311 312 313 314 314 314 314 315 314 311 310 309 310 310 309 308
297 305 307 306 307 307 308 310 310 311 310 310 312 312 311 311 312 312 311 311 310 310 310 311 311 311 311 311 312 312 312 312 312 312 311 311 310 309 309 309 309 308 308 307
302 304 304 308 305 309 310 310 308 308 308 310 311 311 310 311 310 309 309 309 309 309 310 309 309 309 310 311 312 312 311 311 311 311 310 310 309 309 308 308 308 307 306 306
304 304 308 307 305 305 306 308 304 304 306 306 307 307 306 308 309 309 309 308 308 308 308 309 310 310 309 310 312 312 312 311 311 310 310 309 308 308 308 307 307 307 306 304
297 298 303 306 305 304 307 304 303 305 310 308 307 306 309 309 308 308 308 308 308 308 308 308 308 309 309 310 312 312 312 311 311 310 309 308 308 308 307 306 306 305 304 302
302 302 303 305 305 306 304 303 304 304 306 310 310 309 308 308 308 308 308 308 307 307 307 308 310 310 310 310 312 312 312 311 310 309 308 308 308 307 307 306 305 304 303 302
301 302 304 305 304 303 303 302 302 304 305 306 309 309 309 309 309 309 308 308 307 307 308 308 309 309 310 311 311 312 311 310 309 308 308 307 307 307 306 305 304 303 303 301
303 301 300 302 304 301 301 304 305 303 304 305 306 309 309 310 309 308 308 308 307 306 308 310 311 311 310 311 311 311 311 310 309 308 307 307 307 306 305 304 304 303 302 301
297 297 301 301 298 297 297 299 302 304 304 305 307 309 310 309 309 307 307 307 307 307 307 308 309 310 311 311 310 310 309 308 308 307 307 306 305 304 303 303 303 303 303 301
296 296 296 297 297 298 299 299 301 301 303 305 306 308 309 309 308 307 306 307 308 307 306 306 307 308 309 309 308 308 307 307 306 306 305 305 304 303 303 303 304 304 301 301
297 298 298 298 298 298 298 299 298 300 300 303 306 307 308 309 308 306 306 306 307 307 307 307 306 306 305 306 305 305 305 305 305 304 304 304 304 303 302 302 303 303 302 300
298 297 297 297 297 297 298 298 299 301 301 304 305 306 307 308 308 305 305 305 305 305 305 305 305 306 306 306 306 307 306 306 305 305 305 305 304 303 303 302 302 301 301 301
298 297 296 296 296 297 297 298 300 302 303 305 304 305 306 307 306 305 303 303 304 303 303 303 302 302 302 302 302 302 304 303 303 303 303 303 302 302 302 301 301 301 300 300
297 297 296 297 297 297 298 299 301 302 302 304 304 304 305 305 304 303 302 302 302 302 302 302 302 302 301 301 300 300 300 301 302 301 301 301 301 301 300 300 300 300 300 300
297 297 297 296 297 299 299 300 301 302 302 302 302 302 302 303 302 301 301 301 301 301 301 301 301 300 300 299 297 299 299 299 300 300 300 300 300 300 299 299 299 298 299 298
297 296 296 297 297 299 299 300 300 300 300 300 300 301 300 301 301 300 300 301 301 301 300 299 299 298 296 295 295 295 297 298 298 298 298 298 298 298 298 298 297 297 297 297
297 297 297 297 298 298 299 299 299 299 299 299 299 299 299 299 300 299 299 298 298 297 296 294 292 291 290 290 290 293 294 294 296 297 297 297 297 297 297 297 297 296 295 295
297 297 297 297 298 298 298 298 298 298 297 297 297 297 297 298 298 297 297 294 292 291 290 289 288 288 288 288 288 288 289 290 294 294 294 295 294 294 295 295 295 295 294 292
296 296 297 297 297 297 296 297 296 296 297 297 295 295 294 292 291 291 289 289 290 289 288 288 288 288 288 288 287 287 288 288 288 288 289 290 291 292 292 293 293 292 291 290
295 296 296 296 296 295 292 290 289 288 288 288 288 288 288 288 288 288 288 288 289 288 287 287 287 287 287 287 287 287 287 287 287 287 287 287 287 287 286 286 286 286 286 286
295 295 295 294 291 291 291 292 292 291 290 289 289 288 287 287 287 287 287 288 287 287 287 286 286 286 287 287 286 287 288 288 288 288 288 288 288 288 287 287 287 286 286 286
295 295 295 294 294 295 296 296 295 296 296 296 295 292 291 289 288 287 287 287 287 286 286 286 286 287 287 287 287 288 287 287 286 286 287 287 287 286 286 286 286 285 285 285
295 295 294 295 294 295 295 295 295 295 295 296 296 296 293 292 291 289 288 287 286 286 286 286 287 287 287 287 287 286 286 286 286 286 287 287 286 286 286 286 286 286 285 285
294 292 291 291 290 290 290 291 291 292 294 295 295 295 295 293 292 292 290 288 286 286 286 286 287 287 287 287 286 286 286 285 285 286 287 286 286 286 286 285 285 285 284 284
292 291 291 290 290 290 290 290 290 290 290 290 291 294 295 295 294 294 293 292 290 290 287 286 286 287 287 286 286 286 285 285 284 286 286 286 286 285 285 284 284 284 284 284

GFSNGP_850_thetae_102.txt.gz
Theta_e
304 304 307 308 309 309 311 313 311 309 308 308 307 307 308 310 310 310 311 311 311 311 311 311 312 311 311 311 311 313 316 316 315 314 314 314 313 312 312 312 316 317 316 314
297 301 302 305 307 309 310 309 312 311 310 307 309 307 308 309 309 310 311 312 311 312 311 311 311 311 311 311 311 311 312 315 314 314 314 314 314 312 312 314 316 315 311 309
299 300 305 302 306 308 309 311 311 312 312 311 311 310 311 310 311 311 311 312 311 311 311 311 311 311 311 311 311 311 311 313 314 314 314 314 313 312 314 315 311 309 309 310
299 303 302 304 306 307 307 307 309 310 309 311 311 311 311 311 311 311 311 311 311 311 310 310 310 310 311 311 311 311 311 312 313 314 313 313 313 314 313 309 309 309 309 309
301 303 301 306 306 304 309 309 305 304 305 307 308 310 310 311 311 311 310 310 310 309 309 309 309 309 309 309 310 311 311 312 312 313 313 312 312 310 309 308 308 309 308 308
298 302 305 306 305 305 302 309 304 304 304 306 307 308 309 310 309 309 309 309 310 309 309 309 308 308 309 309 309 309 311 312 311 312 311 310 309 308 308 308 308 308 308 307
296 297 299 303 305 304 307 304 303 304 304 304 306 306 308 308 309 309 308 308 308 308 308 308 308 308 308 309 310 309 311 312 311 311 310 309 308 308 308 307 307 307 307 306
300 300 300 304 304 306 303 303 302 303 303 304 306 308 307 308 308 308 308 308 308 307 307 307 308 309 310 309 309 309 311 311 311 310 310 309 308 307 307 307 307 307 306 305
300 300 301 304 303 303 304 304 304 304 304 304 304 306 307 308 308 308 309 308 307 306 307 308 308 309 309 309 309 311 311 311 310 309 309 308 307 307 307 307 306 305 305 305
302 301 300 300 303 300 297 298 300 301 303 305 304 305 308 308 308 308 308 308 307 306 307 309 310 309 309 310 310 311 311 311 310 309 308 308 307 306 306 306 305 304 304 305
296 296 300 301 298 298 298 298 298 300 301 302 304 305 307 307 307 307 307 307 307 306 306 308 309 309 310 310 310 310 310 310 309 308 307 307 306 306 305 304 304 304 304 304
296 295 296 297 298 298 298 298 298 298 299 300 300 304 306 307 307 306 307 306 306 306 306 306 307 308 309 308 308 308 309 309 308 307 306 306 306 305 304 303 303 303 303 304
296 297 297 298 297 297 297 297 297 297 298 299 300 304 305 306 306 304 306 305 305 305 306 306 305 305 305 306 307 307 307 307 307 306 305 305 304 304 303 303 303 303 303 302
297 297 297 296 295 296 296 297 298 299 301 302 302 303 305 305 306 306 306 304 304 304 304 305 305 305 306 306 306 306 305 305 304 303 303 303 304 304 304 304 303 302 300 300
297 297 296 296 296 296 297 298 298 299 300 301 302 304 305 305 306 306 305 304 304 302 302 302 302 302 302 302 302 302 302 303 304 304 304 304 304 303 303 302 302 301 300 300
297 297 296 296 296 297 298 299 300 301 301 302 302 302 304 304 305 305 304 303 302 301 301 301 302 302 301 301 301 299 299 300 300 301 301 301 301 301 301 301 300 300 300 299
297 297 296 296 296 297 298 299 300 301 301 301 301 301 301 302 302 301 300 300 300 300 300 301 301 301 300 300 299 297 297 299 299 299 299 300 299 299 299 299 299 299 299 298
297 297 296 296 297 297 298 298 299 299 300 300 300 300 300 301 300 300 300 300 300 300 300 300 299 298 296 294 293 293 295 296 297 297 298 298 298 298 298 298 298 298 297 297
297 297 297 297 297 297 298 298 298 298 298 298 299 299 299 299 299 299 299 299 298 298 297 295 293 291 290 289 289 289 290 293 293 295 295 296 296 296 296 296 296 296 296 295
297 297 297 297 297 297 297 297 297 297 297 297 297 298 298 298 298 297 297 297 296 294 291 290 289 288 288 288 288 288 288 288 290 292 292 293 293 293 294 293 293 293 293 293
296 296 296 296 296 297 297 296 296 295 295 296 295 293 293 293 290 290 290 290 289 290 289 288 288 288 287 287 287 287 287 287 287 287 287 288 288 288 288 288 288 288 287 287
295 296 296 296 296 295 292 290 289 289 288 288 288 288 288 288 289 289 288 288 288 289 288 287 287 287 287 287 287 286 286 286 287 287 287 287 287 287 287 287 286 286 286 286
294 295 295 295 293 291 291 292 293 294 294 294 292 290 289 288 287 287 287 287 288 288 287 286 286 286 286 286 286 286 287 288 287 287 287 287 288 287 287 286 286 286 286 286
295 295 295 295 293 293 295 295 294 294 295 295 296 296 296 294 291 289 288 287 287 286 286 286 286 286 286 287 287 287 287 286 286 286 286 287 287 286 286 286 286 286 286 286
294 293 293 293 293 293 293 294 294 295 295 295 295 295 295 295 295 293 290 289 287 286 286 286 286 286 287 287 287 287 286 286 285 285 285 286 286 286 286 286 286 285 285 285
294 293 292 291 290 290 290 290 290 290 290 290 290 292 294 294 294 294 294 292 290 288 286 285 285 286 286 287 287 286 286 285 285 285 285 286 286 286 285 285 285 285 285 285
294 292 291 290 289 288 288 288 288 288 289 290 291 290 289 290 292 294 294 294 294 294 293 291 287 285 285 286 286 286 286 285 285 285 284 286 286 286 285 285 284 284 284 284

GFSNGP_850_thetae_105.txt.gz
Theta_e
302 302 303 304 305 307 305 308 313 309 308 308 307 306 308 309 309 310 311 311 311 311 311 311 311 311 311 311 312 314 316 316 316 316 315 314 314 314 314 313 311 311 312 315
293 300 301 303 303 304 307 307 307 309 310 308 309 309 307 308 310 311 311 312 312 311 311 311 311 311 311 311 311 311 312 314 315 315 314 314 313 312 312 311 311 315 316 315
297 299 302 301 306 306 307 308 309 309 311 311 310 309 310 310 309 309 311 311 312 311 311 311 311 311 311 311 311 311 311 312 314 314 314 313 313 313 311 311 313 315 313 309
300 297 300 306 304 307 307 307 306 308 308 307 307 309 310 310 311 311 311 311 311 311 310 310 310 310 310 310 311 311 311 311 312 313 313 313 313 313 312 311 314 312 309 308
300 302 300 306 306 305 306 309 306 305 305 306 306 305 308 309 309 310 310 310 310 310 310 309 309 309 309 309 309 310 310 311 311 312 313 313 313 312 312 313 311 308 308 308
296 300 305 305 305 304 302 308 304 304 304 304 306 309 308 307 307 308 308 309 309 309 309 309 309 309 309 309 310 309 309 310 311 311 312 312 312 312 312 309 307 308 308 307
297 298 299 298 303 303 308 305 303 303 303 304 305 305 306 307 307 308 307 308 308 308 308 308 307 308 308 308 308 309 309 309 311 311 311 312 311 310 308 307 307 307 307 307
299 300 299 303 303 306 303 302 302 303 304 304 304 305 306 307 307 308 309 309 309 308 308 307 307 307 307 308 309 308 308 309 311 311 311 310 309 308 307 307 307 307 306 306
299 299 299 304 304 303 303 302 301 301 301 302 304 305 305 307 307 307 308 308 308 308 306 307 308 309 308 309 309 308 308 310 311 310 310 309 308 307 307 306 306 306 306 305
301 300 300 300 302 303 297 298 298 298 299 301 301 304 305 306 307 307 307 307 307 307 306 307 309 309 308 309 309 309 310 311 311 310 309 309 308 306 306 306 306 306 305 305
297 296 297 300 300 297 297 298 298 298 298 299 300 300 304 305 306 306 306 306 306 306 306 307 308 308 309 309 309 309 310 310 310 309 309 308 307 306 306 305 305 305 304 304
297 296 296 297 297 298 297 297 297 297 297 298 298 300 302 304 306 305 305 306 306 306 306 306 306 308 308 308 308 308 309 308 308 308 307 307 306 305 305 305 304 303 303 304
296 296 297 298 297 295 295 296 297 297 298 299 298 300 301 304 305 305 305 305 307 305 305 306 305 305 305 306 307 307 307 307 306 307 306 305 305 305 305 304 303 303 303 303
297 297 297 296 295 296 296 296 297 298 299 301 301 302 303 305 305 306 306 305 305 303 303 304 304 304 305 306 306 305 305 305 305 305 306 305 304 304 303 303 303 303 303 302
297 297 297 296 295 296 297 297 300 299 300 300 301 302 304 305 305 305 304 303 302 302 302 302 302 302 302 302 302 302 302 302 303 304 303 303 303 303 303 302 303 302 302 301
297 296 297 296 295 296 298 299 299 300 300 301 301 302 303 304 305 304 304 303 302 301 301 301 300 301 301 301 301 301 300 299 299 300 300 301 301 301 301 301 301 300 300 300
297 296 296 296 295 297 297 298 299 299 300 300 300 300 301 301 302 302 303 302 301 300 299 299 300 300 300 300 299 299 298 296 298 299 299 299 299 299 299 299 299 299 299 299
297 297 297 296 296 297 297 298 299 299 299 299 299 299 299 299 299 300 300 301 301 300 300 300 299 298 296 294 293 292 292 294 295 296 296 297 297 298 298 298 298 297 297 297
297 297 297 297 297 297 297 298 298 298 298 298 298 298 298 298 298 298 298 298 298 299 298 298 295 292 290 289 289 289 289 290 292 294 294 295 296 296 296 295 295 295 295 295
297 298 298 297 297 297 297 297 297 297 297 297 297 297 297 297 297 297 296 296 296 296 295 293 291 289 288 288 288 288 288 288 289 291 292 292 293 293 294 294 294 293 292 292
297 297 296 297 296 296 296 296 295 293 291 289 290 291 290 289 289 289 289 289 289 290 290 289 288 287 287 287 287 287 287 287 287 287 288 288 289 289 289 289 288 288 287 286
295 296 296 296 296 296 295 292 290 290 290 290 289 288 288 288 288 288 288 289 288 288 289 288 287 287 286 286 286 286 286 286 286 287 287 287 287 287 287 287 287 286 286 286
294 295 295 295 295 294 292 291 292 293 294 295 295 295 295 294 292 290 289 287 287 287 287 287 286 286 286 286 286 286 286 287 287 286 287 287 287 287 287 286 286 286 286 286
294 294 295 295 294 293 293 293 294 294 294 294 294 294 294 294 295 294 292 289 287 286 286 286 286 286 286 286 286 286 287 286 286 286 286 286 287 287 286 286 286 286 286 285
294 294 293 293 292 291 291 290 290 290 290 290 290 291 292 294 294 294 293 293 292 288 286 286 285 285 285 285 286 286 286 286 286 286 285 285 286 286 286 286 286 285 285 285
294 293 293 292 291 290 290 289 289 288 289 289 289 290 290 289 290 291 293 293 292 292 293 289 286 285 285 285 286 286 286 288 286 285 285 284 285 286 286 285 285 285 285 284
295 294 292 290 290 288 288 288 288 287 287 287 287 287 288 289 290 290 290 290 291 292 291 291 290 290 287 285 285 285 286 286 285 285 285 284 284 286 286 285 285 284 284 284

GFSNGP_850_thetae_108.txt.gz
Theta_e
303 302 303 304 304 304 307 308 311 313 313 313 312 312 309 310 310 311 311 311 310 310 310 311 311 314 316 316 317 317 317 317 316 317 317 316 316 316 318 322 324 324 323 318
301 303 305 303 303 305 306 307 308 308 310 309 310 311 311 309 309 310 311 311 311 310 310 311 311 311 311 311 312 314 316 316 317 316 316 315 315 315 317 318 318 315 311 311
306 303 304 307 309 309 309 309 309 310 311 311 311 311 312 311 311 312 311 311 311 311 310 310 310 311 311 311 311 311 311 312 314 315 315 315 314 314 313 313 311 310 312 315
306 305 310 309 307 309 309 307 307 308 308 308 309 308 308 309 311 311 311 310 310 310 309 309 309 309 310 310 311 311 311 310 311 313 314 314 313 313 312 311 310 312 314 314
306 306 305 308 308 308 308 310 306 306 306 307 308 307 308 307 307 307 307 308 309 309 309 309 309 309 309 309 309 310 310 311 311 312 313 313 313 312 312 311 310 311 313 311
304 305 306 309 306 305 306 311 305 305 306 306 308 312 310 306 306 307 307 307 308 308 309 309 309 309 309 308 309 309 309 309 311 311 312 313 312 312 312 311 311 312 310 307
303 305 303 303 304 304 310 309 305 305 304 305 306 305 304 306 307 308 308 308 307 308 308 308 308 308 308 307 308 308 308 308 309 311 311 312 312 312 311 311 311 307 306 306
302 304 306 302 305 307 306 304 304 304 304 304 304 304 305 305 307 306 306 307 307 307 307 307 307 307 307 307 307 308 308 308 308 310 311 311 311 311 311 309 307 306 306 306
304 305 302 305 305 304 304 304 302 301 300 301 302 302 303 305 306 306 306 307 307 307 307 307 308 309 309 308 308 309 309 307 308 310 310 311 311 310 308 306 306 306 306 306
305 304 302 302 303 303 300 299 298 298 298 298 300 301 301 303 306 306 306 306 307 307 307 307 308 309 309 308 308 308 307 307 309 310 310 310 309 308 307 306 306 306 306 305
304 303 300 300 301 300 298 297 298 298 297 298 298 300 300 301 305 306 305 305 306 306 306 306 307 308 308 308 308 308 308 309 310 310 310 309 309 308 307 306 305 306 305 304
304 301 300 301 298 297 297 297 297 297 297 298 297 298 299 301 304 305 304 305 306 306 306 305 305 306 307 308 308 308 308 309 309 308 308 307 307 307 305 305 305 305 304 305
299 297 297 298 298 297 295 296 296 297 297 298 300 299 299 301 305 305 304 304 305 307 305 305 305 304 304 306 307 307 307 307 307 307 307 306 306 305 305 305 304 304 304 303
297 298 298 297 296 295 296 296 297 299 298 299 300 301 302 302 305 305 304 305 305 305 303 303 303 303 303 305 305 305 306 307 307 306 305 305 304 304 304 304 304 303 303 303
297 297 298 297 296 296 296 297 300 299 299 300 300 300 301 302 304 305 305 304 304 302 303 302 302 301 301 302 302 302 302 303 304 304 304 304 303 303 303 303 302 302 302 302
297 297 297 296 295 296 297 298 299 299 300 301 301 301 302 302 303 303 303 303 303 303 302 302 301 301 301 302 301 301 301 300 299 299 300 301 302 301 301 301 301 301 301 301
297 297 297 296 296 296 297 297 298 299 299 299 300 300 301 301 302 302 301 302 301 300 300 300 300 300 301 300 300 300 300 299 298 297 298 299 299 300 300 299 299 299 299 299
298 298 297 297 296 296 296 298 298 298 298 298 299 299 300 300 299 299 300 299 299 299 299 299 299 300 299 297 295 293 292 292 293 294 296 297 297 298 298 298 298 298 298 297
297 297 297 297 297 296 297 298 298 297 297 298 298 298 298 298 298 298 298 298 298 297 297 296 296 296 297 293 290 289 289 289 290 292 294 295 296 296 296 296 296 296 295 295
297 296 296 296 297 296 297 296 297 296 295 295 295 296 296 295 295 296 295 295 295 295 295 294 293 291 290 289 288 288 288 288 288 290 292 292 292 294 294 294 294 294 294 294
296 296 296 296 296 295 296 296 296 293 291 289 288 288 288 288 288 288 288 289 288 288 289 290 289 288 287 287 287 287 287 287 287 288 289 290 291 291 291 291 292 291 291 291
296 296 296 295 296 296 296 295 292 291 291 292 293 293 293 292 291 290 288 287 287 287 287 288 290 290 290 287 286 286 286 286 286 286 286 286 286 286 286 286 286 286 286 286
295 295 295 295 295 295 294 292 291 293 294 294 294 294 294 294 293 294 295 292 289 287 287 287 287 286 287 288 287 286 285 286 286 287 287 287 287 287 287 287 287 286 286 286
294 294 294 295 295 294 293 293 293 293 292 292 291 291 291 292 294 294 294 293 293 292 289 286 286 285 285 285 285 286 285 286 286 286 286 286 287 287 286 286 286 286 286 286
295 294 294 293 293 292 292 291 290 290 290 289 290 290 290 290 290 290 290 292 293 292 292 292 289 286 285 285 285 285 285 286 285 285 285 285 285 286 286 286 286 285 285 285
294 294 293 293 292 291 290 289 288 287 287 287 287 287 287 288 289 290 290 290 289 291 292 291 290 290 288 286 285 285 285 285 285 286 285 284 284 285 286 286 285 285 285 285
295 295 294 292 291 289 288 288 288 288 288 288 287 287 287 287 287 287 286 287 289 290 290 291 290 290 289 289 289 286 285 285 285 285 285 285 284 284 284 285 285 285 284 284

GFSNGP_850_thetae_111.txt.gz
Theta_e
304 304 304 304 305 305 307 308 310 311 310 313 312 312 312 312 312 312 312 312 311 311 311 312 314 315 315 316 317 318 318 319 320 320 319 317 316 316 317 318 319 322 324 325
304 305 305 304 304 304 306 308 308 309 311 311 311 312 313 312 311 312 312 312 312 311 310 310 311 311 313 315 316 317 318 318 317 316 316 316 316 316 317 318 321 323 323 323
307 306 307 310 309 309 310 309 310 310 311 310 310 310 311 311 312 312 312 312 311 309 309 309 310 310 311 311 311 312 314 315 315 316 316 315 315 316 317 319 321 322 321 317
309 307 313 310 309 310 309 309 308 309 308 309 310 310 309 309 309 310 310 309 309 309 309 309 309 309 310 310 311 311 311 311 311 313 314 315 315 314 315 316 317 316 312 310
309 307 307 308 308 309 309 310 307 308 308 309 309 309 309 307 307 308 308 308 308 308 308 309 309 310 310 309 309 309 310 311 311 311 312 313 314 314 313 313 312 311 310 312
307 308 307 310 309 307 308 311 307 306 306 307 309 312 309 306 307 307 307 307 307 307 307 307 308 308 309 309 309 309 309 309 310 310 311 311 313 313 312 311 310 310 311 312
306 307 305 308 306 307 310 311 307 307 306 306 308 306 306 306 306 306 308 309 309 309 308 307 307 307 307 307 307 307 308 308 309 309 310 311 312 312 312 311 310 310 310 310
305 306 307 306 306 309 308 307 307 306 305 304 305 304 304 305 306 307 307 308 308 309 309 307 307 307 307 308 307 307 307 307 307 308 309 310 311 312 311 311 311 310 310 309
306 307 306 306 307 306 305 306 305 303 302 301 301 302 302 302 305 306 305 305 305 307 307 308 307 308 309 309 308 307 308 308 308 307 308 310 311 311 311 311 310 310 309 307
306 306 305 305 306 305 305 303 301 300 300 299 300 300 301 301 302 305 306 306 305 305 305 306 307 308 308 308 307 307 307 307 306 306 308 309 310 311 310 310 310 309 306 306
305 305 303 303 303 304 301 299 299 299 299 299 299 299 300 301 301 303 305 305 305 305 306 306 305 307 307 308 308 307 307 306 306 306 308 309 310 310 310 309 307 306 306 306
305 305 304 304 303 300 299 299 298 298 298 298 299 299 299 299 301 303 305 304 305 305 306 306 306 305 306 307 307 307 307 307 308 308 309 309 309 308 307 306 305 305 305 304
303 301 300 300 299 299 298 297 297 297 298 299 299 300 300 300 302 303 305 305 304 305 306 305 305 306 305 305 307 307 307 307 307 307 307 307 307 307 306 305 305 304 304 304
299 299 300 299 300 297 296 297 297 298 299 299 299 300 300 301 302 303 304 305 305 304 304 303 303 303 302 303 304 305 306 307 306 306 306 306 306 305 305 304 304 304 304 304
299 299 300 299 298 297 297 297 299 299 300 300 301 300 300 301 302 303 304 304 304 304 303 302 302 302 301 301 301 301 302 302 304 304 305 305 305 304 303 304 303 302 302 302
299 299 299 298 297 297 297 298 298 299 299 300 300 300 300 302 302 302 303 303 303 303 302 302 301 301 301 301 301 301 301 301 301 301 300 301 302 302 302 302 302 301 301 300
299 298 298 298 297 297 298 298 298 298 299 299 299 300 300 300 300 301 301 301 301 301 301 301 300 300 300 300 299 299 298 299 299 298 298 298 298 299 300 301 301 300 300 299
299 299 299 299 298 297 297 297 297 297 298 298 299 299 299 299 299 300 300 300 300 300 299 299 299 298 298 298 299 298 294 292 291 292 294 295 296 297 298 298 299 299 299 299
298 298 298 298 297 297 296 296 296 297 297 297 297 298 297 298 298 298 298 298 298 297 297 297 296 296 295 295 295 294 291 290 288 289 290 292 294 295 296 297 297 297 297 296
298 298 298 297 297 296 296 296 297 297 296 295 294 292 293 293 292 291 291 291 290 290 290 291 292 291 290 289 288 288 289 289 288 288 289 291 293 294 294 294 295 295 294 294
297 296 296 296 296 296 295 295 296 296 293 290 289 289 289 289 288 288 289 288 288 288 289 289 289 290 290 288 287 287 286 287 287 287 288 289 290 291 291 292 292 292 293 293
297 296 296 296 295 295 295 295 295 293 291 291 293 294 294 294 294 294 294 294 294 292 289 287 287 288 289 291 291 289 288 287 286 286 286 287 288 289 290 290 290 290 290 290
296 295 296 296 296 296 296 294 293 292 292 293 293 294 294 293 293 293 293 294 294 294 293 291 288 287 287 286 287 287 287 287 287 286 286 286 286 286 286 286 286 286 286 286
296 296 296 296 295 295 294 293 292 293 293 292 291 290 290 290 290 290 290 291 292 293 293 292 292 291 287 286 285 285 285 285 286 286 286 286 286 286 286 286 286 286 285 285
295 294 294 295 294 294 293 292 291 290 290 289 289 288 288 288 288 288 289 289 290 290 290 292 292 291 290 289 288 285 285 285 285 285 286 286 285 285 285 285 285 285 285 285
294 293 293 293 293 292 291 291 290 288 287 287 287 287 287 287 287 287 287 287 287 287 288 289 290 290 290 289 289 289 286 285 285 285 285 285 284 284 284 284 286 285 285 285
295 294 293 293 292 291 290 289 288 288 288 288 288 288 288 288 287 287 287 286 286 286 286 286 287 288 289 289 289 289 288 287 285 285 285 284 284 284 287 285 284 286 285 285

GFSNGP_850_thetae_114.txt.gz
Theta_e
304 304 304 304 304 305 300 305 303 307 307 310 310 310 311 311 312 313 312 312 310 310 311 312 314 315 316 317 317 319 320 321 320 320 322 322 322 322 322 322 322 321 321 323
298 305 305 304 304 304 305 307 308 308 310 309 310 310 310 310 311 312 311 311 309 309 309 310 311 311 314 315 316 317 318 319 319 319 321 321 320 318 317 317 318 319 321 322
304 306 304 302 309 309 310 309 309 309 309 308 309 309 309 309 309 309 309 309 309 309 309 308 308 309 310 311 314 315 316 317 317 316 316 316 316 316 316 317 317 318 321 321
302 302 304 309 309 310 309 308 308 308 307 308 309 308 308 308 308 308 308 308 308 308 308 308 309 309 309 309 310 311 311 312 314 314 315 315 315 315 316 316 317 318 320 320
303 303 307 307 307 309 309 308 307 307 307 307 307 308 306 307 307 307 307 307 307 307 307 307 308 309 309 309 309 309 309 310 311 311 311 312 313 314 314 315 316 318 319 318
303 305 306 310 308 307 307 308 306 306 307 306 307 311 308 306 306 307 308 308 309 309 309 309 308 308 308 308 308 308 308 309 309 309 310 311 311 313 313 313 313 313 312 310
302 303 305 307 307 307 309 308 307 306 306 305 305 306 306 306 306 307 307 308 309 309 309 309 309 309 308 308 308 307 307 307 308 308 309 309 311 311 312 312 311 310 309 309
302 303 302 306 306 308 307 307 307 307 305 304 305 304 303 303 304 306 306 307 308 308 308 308 308 308 308 308 308 308 307 307 307 307 307 308 309 311 311 311 310 309 309 309
303 304 305 306 307 306 306 306 306 305 304 302 301 300 301 302 302 303 306 306 306 306 307 307 307 308 308 309 309 309 308 307 307 307 306 307 308 309 310 310 310 310 310 310
303 304 304 305 306 305 305 304 303 301 300 300 299 300 300 300 301 301 303 305 305 306 306 306 306 306 308 308 309 308 308 307 307 306 306 306 307 308 309 309 309 309 309 309
302 302 304 304 305 305 304 302 301 300 299 299 298 298 299 299 300 301 302 305 305 305 305 306 305 305 305 306 307 308 307 307 306 305 306 305 306 308 308 309 308 309 309 308
301 304 303 304 303 303 303 300 299 298 298 298 298 299 298 299 299 300 301 304 304 304 305 305 305 304 305 304 306 307 307 307 306 305 305 305 306 308 309 309 309 308 308 306
302 304 302 303 302 301 299 299 297 297 297 298 299 299 299 299 300 302 302 304 305 305 305 304 304 303 303 304 304 305 306 306 306 306 306 306 306 306 306 307 306 306 305 304
301 301 300 299 300 299 298 297 297 298 298 299 300 299 299 300 300 301 302 304 305 305 304 304 303 302 301 301 301 302 304 305 305 305 305 305 305 303 304 304 305 305 305 304
300 300 301 300 299 298 297 297 298 298 299 300 300 299 299 299 300 301 302 303 303 304 304 303 303 303 302 302 302 302 301 301 301 301 302 303 304 304 304 303 304 303 302 302
299 299 300 299 299 298 297 297 298 298 298 300 299 300 300 300 301 302 302 302 303 303 303 302 302 302 302 301 301 301 301 301 300 300 299 299 300 301 301 302 303 302 301 300
299 299 299 299 298 297 297 298 298 298 297 299 299 299 300 300 300 300 300 300 301 301 301 300 300 300 300 300 300 299 299 299 298 297 298 298 298 298 298 298 300 300 300 299
300 300 300 299 299 297 298 297 297 297 297 298 298 298 298 298 299 299 299 299 299 299 298 298 298 298 297 297 297 297 296 296 296 294 293 292 292 294 295 296 297 298 299 299
299 300 299 299 298 297 297 297 296 296 297 298 297 297 296 297 297 297 296 296 295 295 294 293 294 294 293 293 292 291 292 293 293 293 291 289 289 291 293 295 295 297 297 297
299 299 299 298 298 297 296 296 295 296 297 296 295 293 291 290 289 289 289 289 289 289 289 289 289 290 290 290 289 288 287 287 287 289 291 290 290 291 291 293 294 295 296 295
299 299 298 298 296 296 296 295 296 296 296 294 291 290 290 291 292 293 294 294 294 293 292 291 288 287 288 289 290 291 289 287 286 286 286 287 288 289 291 292 292 293 293 293
298 298 297 297 296 296 295 295 296 296 294 292 291 293 293 293 294 293 293 293 294 294 294 294 293 291 288 287 287 289 290 289 289 288 286 285 286 288 289 290 290 291 291 291
298 297 296 295 295 296 296 295 296 294 292 292 293 293 292 292 291 290 291 290 290 290 292 293 293 292 291 290 287 287 286 286 286 286 285 285 286 286 286 286 287 287 286 287
297 296 294 295 296 296 295 295 295 293 293 293 291 291 290 290 289 289 288 288 288 289 289 290 290 291 292 291 291 290 288 286 285 285 285 285 286 286 287 287 286 286 285 285
297 297 297 296 296 295 295 295 295 292 291 290 289 288 287 287 287 287 287 287 287 287 287 287 287 288 289 290 290 289 289 288 286 284 285 285 286 287 286 285 285 285 285 285
296 296 296 295 295 295 293 293 292 291 289 288 287 287 287 287 287 288 288 287 287 287 286 286 286 286 286 287 288 289 288 288 287 287 284 284 285 285 287 286 285 285 288 286
295 294 294 294 293 293 292 291 290 288 288 287 287 287 288 287 287 287 287 287 286 286 286 285 285 284 284 285 285 286 287 288 287 287 287 286 284 284 284 284 283 286 288 287

GFSNGP_850_thetae_117.txt.gz
Theta_e
302 303 303 303 303 303 296 302 300 306 310 309 308 307 308 309 309 309 309 309 308 309 310 311 313 315 316 316 318 320 324 321 320 320 320 320 323 322 323 324 325 325 325 325
295 304 304 303 303 303 304 305 307 307 311 307 309 308 307 307 308 308 308 308 308 308 308 309 310 311 313 315 316 317 319 320 320 320 320 319 318 320 322 322 321 321 320 320
300 304 299 298 306 307 309 308 307 305 307 306 308 308 306 307 307 307 307 307 308 308 308 308 308 308 309 311 313 315 317 318 319 319 317 317 319 320 318 317 317 317 318 319
297 296 297 303 308 308 308 307 307 307 307 307 308 307 307 307 307 307 307 307 307 307 307 308 308 308 309 309 309 310 311 312 314 315 316 316 315 315 316 316 316 317 318 318
299 298 302 307 307 308 307 306 305 305 305 306 306 307 306 306 307 307 307 308 308 308 307 308 308 308 308 308 309 309 309 309 310 310 311 312 313 314 314 315 315 316 316 317
298 302 304 305 306 307 306 305 305 305 305 306 306 307 307 306 306 306 307 307 308 309 309 308 308 308 308 308 308 308 308 308 309 309 309 310 311 312 312 313 314 315 316 316
298 299 301 305 306 307 306 301 306 306 306 305 303 305 305 304 304 304 306 306 306 307 308 308 308 308 308 308 308 307 307 307 307 307 308 308 309 310 311 312 312 312 313 314
298 299 299 305 305 304 303 307 307 306 306 304 304 304 303 302 302 302 305 306 306 306 307 307 307 307 308 308 308 308 308 308 307 307 307 307 307 309 310 310 310 310 310 309
299 300 300 306 305 306 306 306 306 306 305 304 303 301 300 300 301 301 302 305 306 306 306 307 307 307 307 308 308 309 309 308 307 307 307 307 306 307 308 309 309 309 309 308
301 300 302 305 306 306 306 305 305 305 303 301 300 299 299 299 300 300 301 301 304 305 306 306 306 306 306 306 307 308 308 307 307 306 306 306 306 306 306 308 308 309 308 308
299 299 302 304 305 306 305 304 303 301 301 300 299 298 298 298 298 299 300 301 303 305 305 305 305 305 305 305 305 307 308 308 307 305 305 304 304 305 305 305 306 307 308 308
299 301 301 303 304 305 305 304 302 300 299 298 297 298 298 298 299 299 299 301 302 304 304 304 305 304 303 303 305 305 306 306 305 305 305 305 305 304 304 305 306 306 307 307
302 303 303 304 303 304 303 302 300 299 297 298 298 298 299 299 299 299 301 302 302 304 304 304 304 303 303 303 303 303 304 304 305 305 305 305 304 304 304 304 304 304 304 304
302 302 302 302 302 302 301 300 298 297 298 298 299 299 298 299 299 299 300 301 302 303 303 303 303 303 303 303 302 301 301 301 301 303 304 304 304 303 303 303 303 302 302 303
301 301 302 302 301 300 299 298 297 298 299 299 299 299 299 299 299 300 300 301 302 303 303 303 303 303 302 302 302 302 302 302 302 302 301 301 302 303 303 303 302 301 301 302
301 301 301 301 300 299 298 297 297 298 298 298 299 299 300 300 300 300 301 301 302 302 302 302 301 301 301 301 301 301 300 300 300 300 300 300 300 300 300 300 301 301 301 301
299 299 299 300 300 299 298 298 298 298 298 297 298 299 299 299 299 299 299 300 300 300 300 300 299 299 299 299 299 298 298 298 298 298 298 297 296 296 296 297 297 298 299 300
300 300 300 300 299 299 298 297 298 297 297 297 298 298 298 299 299 299 298 298 298 298 298 297 297 297 296 296 295 295 294 294 294 294 294 294 293 293 293 293 293 295 296 297
300 299 299 300 299 299 298 297 298 297 296 296 297 297 297 296 296 296 295 293 292 292 291 291 290 290 290 291 291 290 289 289 288 288 288 291 291 291 290 291 292 294 295 295
299 299 299 299 299 299 298 298 297 296 296 296 296 295 294 292 290 289 289 290 291 291 292 292 292 290 288 288 289 289 290 290 288 287 286 286 287 289 290 290 291 292 293 295
299 299 299 299 298 298 297 297 295 295 295 296 294 292 291 290 292 293 294 294 294 294 295 294 294 293 292 290 288 287 287 288 290 289 288 287 286 286 288 289 290 291 292 293
299 299 299 298 298 298 297 295 295 296 296 294 292 291 293 294 293 293 292 291 290 291 291 291 292 293 293 292 291 291 288 287 286 286 287 286 285 285 286 287 288 289 290 290
299 299 298 298 297 296 295 296 295 295 295 293 292 293 294 292 291 290 290 289 289 288 288 288 289 289 290 290 291 291 291 290 288 286 285 285 285 285 286 286 286 286 288 288
299 298 298 297 296 294 296 296 295 295 294 293 293 292 291 290 289 288 287 287 287 287 287 287 287 286 286 287 288 289 289 289 289 288 287 285 285 285 285 287 288 286 285 285
298 298 297 296 295 296 296 295 295 294 293 292 291 289 288 287 287 287 287 287 287 287 287 287 287 286 286 286 286 286 287 288 288 287 287 287 285 284 284 286 286 286 285 285
297 297 296 296 297 296 295 295 295 293 291 290 288 287 287 287 287 287 287 287 287 287 286 286 285 285 285 285 284 284 285 285 286 287 286 286 286 285 284 284 286 287 285 286
297 296 296 295 295 295 294 293 292 291 289 288 287 287 287 287 287 287 287 287 286 286 285 285 284 284 284 283 283 283 283 283 284 284 286 286 285 285 285 284 284 285 285 284

GFSNGP_850_thetae_120.txt.gz
Theta_e
301 302 302 302 303 302 296 301 298 305 307 309 306 305 306 307 308 308 308 308 307 308 308 310 311 314 315 316 318 321 322 323 322 321 321 321 322 321 322 323 323 323 324 325
295 303 303 303 302 302 303 304 305 306 307 306 307 306 306 306 307 307 307 307 307 307 308 308 308 310 312 314 316 317 321 321 320 320 320 320 320 319 321 322 323 324 324 324
299 301 298 296 305 303 308 306 306 304 305 306 307 308 306 306 306 307 307 307 307 307 308 308 308 308 309 310 311 314 317 318 319 319 319 318 319 320 317 319 318 319 319 319
296 294 293 298 306 307 307 306 306 306 305 306 308 307 306 306 307 307 306 307 308 308 307 308 308 308 308 309 309 309 310 311 313 315 316 317 318 318 318 317 316 316 317 318
297 296 299 305 306 307 307 304 303 304 304 306 306 307 306 306 306 306 306 306 307 308 309 308 308 308 308 308 308 309 309 309 309 310 310 311 313 314 315 315 315 316 316 317
297 300 301 302 304 306 304 303 304 304 304 305 305 307 303 306 305 305 306 306 306 306 307 308 309 308 309 308 308 308 308 308 309 309 309 309 310 310 311 312 313 314 315 315
296 298 300 299 305 306 304 297 306 306 305 305 303 304 305 304 303 302 304 306 306 306 306 306 307 307 308 308 308 308 308 308 307 307 308 308 308 309 309 310 311 312 313 314
297 298 298 304 305 303 301 306 307 306 306 306 304 304 304 302 302 301 301 304 306 306 306 306 306 306 307 307 308 308 308 309 308 308 307 307 307 307 307 309 309 310 310 311
298 299 299 306 304 305 306 307 306 306 305 305 304 303 302 301 301 301 301 301 303 305 305 306 306 306 306 306 306 306 307 308 308 307 307 307 307 306 307 307 308 308 309 309
300 298 299 303 306 305 306 306 306 305 306 305 304 301 300 300 299 300 300 300 301 302 305 305 305 304 304 304 304 305 306 307 307 307 307 306 305 305 305 306 306 306 307 308
297 298 300 302 303 305 305 306 305 304 304 303 301 300 299 298 298 298 298 300 300 301 304 304 304 304 303 303 303 303 305 306 305 304 305 305 305 304 303 304 304 304 305 306
298 300 301 301 303 303 305 305 305 303 302 300 299 297 297 298 298 298 298 299 300 301 304 304 304 304 303 303 303 302 303 304 303 303 304 304 305 305 305 304 304 304 305 306
301 302 302 302 303 303 304 305 304 302 300 299 297 297 298 299 299 299 299 301 301 301 302 303 303 303 303 303 303 303 302 301 302 303 303 304 304 304 304 304 303 304 304 303
301 301 301 302 303 303 304 304 303 300 299 297 298 298 298 298 299 299 299 299 301 302 302 302 303 303 303 303 303 302 302 302 302 302 302 302 301 302 302 302 303 303 302 301
301 301 301 302 302 303 303 302 300 299 297 298 298 299 299 298 298 299 299 300 300 302 302 302 302 303 303 303 302 302 302 301 301 300 299 299 299 300 300 300 301 301 302 301
303 301 300 301 302 302 301 300 299 298 298 298 298 299 299 299 299 299 300 300 300 301 301 301 301 301 301 301 300 300 299 299 299 298 298 298 298 298 298 298 298 298 299 300
300 298 299 300 301 301 301 300 300 298 298 298 298 298 298 299 299 299 299 299 299 300 300 300 300 299 299 298 298 297 297 296 295 295 294 294 294 294 295 295 295 295 296 296
301 302 303 303 302 300 300 299 299 298 298 298 297 297 298 298 298 298 298 298 298 298 297 296 295 294 294 293 293 292 292 291 290 289 289 288 288 289 291 292 292 292 293 294
299 300 301 301 300 300 300 299 298 298 298 297 296 297 297 298 297 296 296 295 293 291 290 290 290 290 289 289 289 289 290 290 290 290 289 288 287 286 287 289 290 290 291 293
299 299 300 300 299 299 299 299 298 298 297 296 295 297 297 295 293 291 290 290 291 293 294 295 295 294 294 293 291 289 288 288 288 288 289 289 289 289 288 287 287 290 290 291
300 299 299 299 299 299 299 299 298 297 296 295 296 297 294 291 290 291 293 294 293 293 292 292 293 293 293 293 293 292 290 289 288 287 286 287 287 287 286 286 286 286 289 290
300 299 299 299 299 299 298 298 297 297 295 296 296 294 291 291 293 294 293 292 291 290 290 289 289 289 289 290 290 291 291 291 290 290 288 287 285 285 285 285 286 286 287 288
299 299 299 299 299 298 297 297 297 296 297 296 295 293 292 293 293 292 290 289 289 287 287 287 287 287 287 287 287 287 287 288 289 289 289 288 287 285 284 285 285 286 286 286
298 298 299 299 298 297 297 296 296 296 296 295 293 292 293 292 290 289 288 287 287 287 287 287 287 287 287 286 286 286 286 286 286 286 287 287 287 287 285 284 285 286 288 287
298 298 299 298 297 297 296 296 295 295 295 293 293 293 291 289 288 287 287 287 287 287 287 287 287 286 286 285 285 285 285 285 285 284 285 286 286 286 286 285 284 284 285 286
298 298 298 298 298 296 295 296 296 295 294 293 291 289 288 287 286 287 287 287 287 287 287 286 286 285 284 284 284 283 283 283 283 283 283 284 284 285 286 286 285 284 285 286
298 298 298 297 296 295 296 295 295 294 293 291 289 287 287 286 286 287 287 286 286 286 285 284 284 283 283 283 283 282 282 282 282 282 282 281 282 283 284 285 285 284 284 285

GFSNGP_850_thetae_123.txt.gz
Theta_e
300 300 301 302 302 301 296 301 297 303 305 308 307 305 305 306 307 307 307 307 307 307 307 308 310 313 315 316 319 322 323 323 323 319 320 320 319 319 321 322 322 322 323 323
293 301 302 304 302 301 302 303 304 305 305 305 306 306 306 306 306 307 307 307 307 307 307 307 307 308 310 313 316 318 321 322 322 321 320 320 320 320 321 321 321 322 323 323
297 299 295 293 302 303 305 305 305 304 304 305 305 305 306 306 306 306 306 307 308 307 307 307 307 307 308 309 310 313 316 318 319 319 319 319 319 319 318 318 317 317 319 322
295 295 294 297 302 305 306 305 304 305 304 305 307 306 306 306 306 307 307 307 308 308 308 308 308 308 308 308 308 309 309 310 312 313 314 315 317 317 317 318 317 317 317 317
296 295 298 303 306 306 307 304 302 303 303 305 306 306 306 306 306 306 306 306 307 307 308 308 308 308 308 308 308 308 308 308 308 309 309 310 311 312 314 315 315 316 316 316
296 298 298 299 303 305 302 299 302 303 303 304 305 304 302 306 305 305 305 306 306 307 307 307 308 308 308 308 308 308 308 308 308 308 308 308 309 309 310 311 311 312 313 314
295 297 298 297 304 304 301 296 304 305 305 305 302 304 305 305 303 302 302 305 306 306 306 307 307 307 307 307 307 308 308 308 308 308 308 307 307 307 308 308 309 310 311 312
296 297 297 302 304 302 300 305 306 306 306 305 306 305 303 304 303 302 301 301 304 305 306 306 306 306 306 307 306 307 307 308 308 308 308 307 307 307 307 307 307 308 309 309
298 298 298 305 305 306 304 306 306 306 305 305 305 304 303 303 301 301 300 300 300 302 304 304 305 305 304 304 304 304 306 307 307 308 308 308 307 306 306 306 306 307 307 308
299 298 297 301 304 306 305 305 305 305 305 305 304 305 304 303 301 300 299 299 300 300 301 304 304 304 304 303 303 303 304 305 306 306 306 306 304 305 305 304 304 304 304 304
296 297 299 301 302 303 303 305 305 305 305 304 304 304 302 300 299 298 297 298 299 300 300 303 303 304 303 303 302 302 302 303 303 303 303 303 304 304 305 305 304 303 302 302
299 301 301 302 303 302 302 303 305 305 304 303 303 301 299 297 297 298 298 298 298 299 300 301 303 303 303 302 302 302 302 303 302 302 302 302 303 303 304 304 305 304 304 303
301 303 302 302 302 302 303 303 304 305 304 303 301 299 297 298 298 298 298 299 300 300 300 301 302 303 303 302 302 302 302 302 302 301 301 301 302 302 302 302 302 303 303 303
302 302 301 301 302 302 302 303 303 304 303 302 299 298 298 298 298 298 298 298 298 299 301 301 301 301 302 302 302 302 302 302 301 301 300 300 299 299 299 299 301 301 301 301
302 301 302 302 302 302 302 303 303 303 302 300 298 298 298 298 298 298 298 298 299 299 301 301 301 301 301 301 301 301 301 300 299 299 298 298 297 297 297 297 297 298 299 300
303 302 301 300 301 301 301 302 303 303 301 299 298 298 299 299 298 299 299 299 299 300 300 300 301 301 301 301 301 300 299 298 297 296 295 295 295 294 294 294 295 295 295 296
300 300 300 300 300 300 301 302 302 302 301 299 298 298 299 299 299 299 299 299 299 299 299 299 299 299 298 298 297 296 295 294 292 291 290 290 289 289 289 288 289 291 292 293
302 302 301 301 302 302 301 301 301 301 300 299 298 298 297 296 297 297 297 298 298 298 297 296 295 294 292 291 290 290 290 290 290 290 289 289 289 289 289 288 287 287 288 291
303 303 301 300 300 301 301 301 301 300 299 298 298 298 296 296 297 298 297 297 295 295 292 291 291 291 291 293 294 294 293 291 290 289 288 288 288 289 289 289 289 288 287 288
302 302 301 299 299 299 300 300 300 299 298 298 298 297 296 296 297 295 294 293 290 291 293 294 295 295 295 294 294 293 293 293 292 290 289 289 288 286 286 286 286 286 286 287
304 302 301 299 299 299 299 299 300 299 298 298 298 296 295 297 295 293 291 291 293 294 293 292 291 291 291 290 290 290 290 291 291 291 291 291 290 289 288 286 285 285 285 286
303 301 300 299 298 299 299 299 299 298 298 298 297 294 296 295 292 291 292 294 293 291 290 290 288 287 287 287 287 287 287 287 287 286 287 288 289 289 289 288 286 285 285 286
302 300 299 299 298 299 299 298 298 298 298 297 296 296 296 293 291 293 294 292 290 289 288 287 287 287 287 287 287 287 286 286 285 285 285 285 286 287 287 287 287 285 284 285
301 299 299 299 298 298 298 298 298 297 297 296 296 295 292 291 292 293 291 289 288 287 287 287 287 287 287 287 286 286 285 285 284 284 284 284 284 284 286 286 286 286 284 284
299 298 298 298 298 298 298 297 297 296 296 296 294 293 291 292 292 290 288 287 287 287 287 287 287 287 286 285 285 284 284 283 282 282 282 282 282 283 283 284 285 285 285 284
298 298 298 298 299 298 297 297 296 296 295 295 293 292 292 291 289 287 287 287 287 287 287 287 286 285 284 284 283 283 283 282 282 282 281 281 281 281 280 281 283 284 285 285
298 297 297 298 298 297 297 296 296 296 295 294 293 292 289 288 287 286 286 287 286 286 286 285 284 284 283 283 283 282 282 282 281 281 281 281 281 281 280 280 280 282 283 284

GFSNGP_850_thetae_126.txt.gz
Theta_e
298 298 300 301 302 301 296 300 296 301 303 305 305 304 305 305 306 307 307 307 307 307 307 307 308 311 314 318 320 323 324 321 321 323 322 321 319 319 320 322 322 322 322 323
292 300 301 302 302 301 301 303 302 303 304 302 306 306 306 306 306 306 306 307 307 307 307 307 307 307 309 311 316 319 321 321 320 320 320 321 320 320 321 321 320 319 320 320
295 298 294 293 299 302 303 303 304 304 303 304 305 304 305 306 306 306 306 306 307 308 308 307 307 307 307 308 309 311 316 318 319 319 319 319 319 319 318 318 318 317 317 319
295 292 294 297 302 302 303 303 302 303 303 304 305 307 306 306 306 306 306 306 306 307 307 308 308 308 308 308 308 308 308 309 310 311 313 314 316 317 317 317 317 317 317 317
296 293 295 301 303 305 305 301 301 301 302 304 305 306 306 307 306 306 306 306 306 306 306 307 307 307 308 308 308 308 308 308 308 308 308 309 309 310 311 313 314 315 315 316
295 296 298 298 302 305 302 297 300 302 301 302 304 303 300 306 306 305 304 304 306 306 306 306 306 306 306 307 307 308 308 308 308 308 308 307 307 307 308 308 309 310 311 312
294 295 296 295 303 303 300 296 303 304 304 304 301 304 305 306 305 304 302 302 304 305 306 306 307 307 306 306 306 306 307 307 307 308 308 307 307 307 307 307 307 307 308 309
295 296 297 298 304 301 298 300 305 305 305 305 306 305 304 303 303 302 301 301 301 302 305 305 305 305 305 305 305 304 305 306 307 307 307 307 307 307 306 306 306 306 306 307
297 298 297 303 304 305 304 303 305 305 305 305 305 305 304 303 302 302 301 300 300 300 300 304 304 304 304 303 304 303 303 304 305 305 305 306 305 305 305 304 305 304 304 305
299 298 297 300 302 303 304 305 304 304 304 305 304 304 304 303 303 302 300 299 299 299 300 300 303 303 303 303 303 303 302 302 303 303 302 303 303 303 304 304 304 304 304 303
296 297 300 302 302 303 303 302 303 305 305 305 305 304 303 303 302 300 298 297 297 298 299 300 301 303 303 303 302 302 302 302 302 302 302 302 302 302 302 303 303 303 303 304
301 302 302 303 304 303 303 303 302 302 304 305 304 304 303 302 300 297 297 298 297 297 298 299 300 302 303 303 302 302 302 302 302 302 301 301 301 301 301 302 302 301 302 302
301 303 303 303 303 302 302 303 302 302 302 304 304 303 302 300 298 298 298 298 298 299 299 300 300 301 301 302 302 302 302 302 302 301 301 301 299 298 298 300 300 300 300 301
303 301 300 301 302 303 302 302 302 302 302 304 304 303 301 298 298 298 298 298 298 299 299 300 301 300 300 301 300 300 300 300 300 299 299 299 298 298 297 297 296 296 297 297
302 302 303 302 302 302 301 301 301 302 303 304 303 302 300 298 298 298 298 298 298 298 298 300 300 300 300 300 300 300 300 299 299 298 298 297 295 295 294 293 292 292 292 293
304 301 301 301 302 301 300 300 301 301 302 303 303 302 299 298 298 298 298 298 298 299 299 299 300 300 300 300 300 299 299 298 297 295 293 292 291 291 290 290 290 290 290 290
300 299 300 299 301 302 302 303 302 301 302 303 303 301 298 298 298 298 298 298 299 299 299 299 299 298 298 298 297 296 294 292 291 291 291 290 290 290 290 290 290 290 290 290
300 301 301 302 301 301 301 301 301 300 301 302 302 300 298 298 299 299 298 297 298 299 298 298 297 296 295 293 292 291 291 292 292 291 290 290 289 289 288 288 288 289 289 289
302 303 303 302 301 300 300 300 300 301 300 301 302 299 298 298 298 296 296 296 298 298 296 295 294 292 291 292 294 295 294 294 293 292 292 291 290 289 289 288 288 287 287 287
303 303 303 303 301 300 300 299 299 300 300 301 300 298 298 298 297 295 296 298 296 294 292 292 293 294 294 293 293 292 291 290 290 290 290 290 290 290 290 290 289 288 288 286
303 303 303 302 302 300 299 298 298 299 299 300 299 298 298 298 295 296 296 295 293 291 292 294 293 291 291 289 288 287 287 287 287 287 286 286 286 286 286 287 288 288 288 287
303 303 303 301 301 300 299 299 299 299 299 299 298 298 298 297 295 296 294 291 291 293 293 291 290 289 287 287 287 287 287 287 287 286 286 285 285 285 285 285 285 286 287 287
303 303 302 301 300 299 298 298 298 298 298 298 298 297 297 297 296 295 292 291 293 293 290 289 287 287 287 287 287 287 287 286 285 285 284 284 284 284 283 284 283 284 285 286
303 303 302 301 300 299 298 298 298 298 298 298 297 297 297 296 295 291 291 293 292 290 288 287 287 287 287 287 287 286 285 284 284 283 283 282 282 282 282 281 281 283 283 284
302 302 301 300 299 299 298 298 298 297 297 297 297 296 296 294 291 291 292 292 289 287 286 287 287 287 287 286 285 284 284 283 283 282 282 282 282 281 281 280 280 281 281 282
300 300 299 298 298 298 298 298 298 297 297 297 296 295 294 291 291 292 291 288 287 286 287 287 287 286 285 284 284 283 283 282 282 282 281 281 281 281 280 280 280 280 280 280
299 300 299 298 297 298 298 297 297 297 296 296 295 294 291 291 292 289 287 286 286 286 286 286 285 284 284 283 283 282 282 281 281 281 281 281 280 280 280 279 279 279 279 279